[[{"header":{"parameterUnit":"m.s-1","parameterCategory":1,"la1":31.0,"la2":29.5877,"lo1":-88.7671,"lo2":-86.6584,"dy":0.0162,"dx":0.0185,"nx":115,"ny":88,"refTime":"2025-04-13T12:00:00:Z","depth":0,"parameterNumber":2,"parameterNumberName":"U-component_of_WINDS"},"data":[0.0,0.0,0.0,0.0,0.0,0.0,0.0,0.0,0.0,0.0,0.0,0.0,0.0,0.0,0.0,0.0,0.0,0.0,0.0,0.0,0.0,0.0,0.0,0.0,0.0,0.0,0.0,0.0,0.0,0.0,0.0,0.0,0.0,0.0,0.0,0.0,0.0,0.0,0.0,0.0,0.0,0.0,0.0,0.0,0.0,0.0,0.0,0.0,0.0,0.0,0.0,0.0,0.0,0.0,0.0,0.0,0.0,0.0,0.0,0.0,0.0,0.0,0.0,0.0,0.0,0.0,0.0,0.0,0.0,0.0,0.0,0.0,0.0,0.0,0.0,0.0,0.0,0.0,0.0,0.0,0.0,0.0,0.0,0.0,0.0,0.0,0.0,0.0,0.0,0.0,0.0,0.0,0.0,0.0,0.0,0.0,0.0,0.0,0.0,0.0,0.0,0.0,0.0,0.0,0.0,0.0,0.0,0.0,0.0,0.0,0.0,0.0,0.0,0.0,0.0,0.0,0.0,0.0,0.0,0.0,0.0,0.0,0.0,0.0,0.0,0.0,0.0,0.0,0.0,0.0,0.0,0.0,0.0,0.0,0.0,0.0,0.0,0.0,0.0,0.0,0.0,0.0,0.0,0.0,0.0,0.0,0.0,0.0,0.0,0.0,0.0,0.0,0.0,0.0,0.0,0.0,0.0,0.0,0.0,0.0,0.0,0.0,0.0,0.0,0.0,0.0,0.0,0.0,0.0,0.0,0.0,0.0,0.0,0.0,0.0,0.0,0.0,0.0,0.0,0.0,0.0,0.0,0.0,0.0,0.0,0.0,0.0,0.0,0.0,0.0,0.0,0.0,0.0,0.0,0.0,0.0,0.0,0.0,0.0,0.0,0.0,0.0,0.0,0.0,0.0,0.0,0.0,0.0,0.0,0.0,0.0,0.0,0.0,0.0,0.0,0.0,0.0,0.0,0.0,0.0,0.0,0.0,0.0,0.0,0.0,0.0,0.0,0.0,0.0,0.0,0.0,0.0,0.0,0.0,0.0,0.0,0.0,0.0,0.0,0.0,0.0,0.0,0.0,0.0,0.0,0.0,0.0,0.0,0.0,0.0,0.0,0.0,0.0,0.0,0.0,0.0,0.0,0.0,0.0,0.0,0.0,0.0,0.0,0.0,0.0,0.0,0.0,0.0,0.0,0.0,0.0,0.0,0.0,0.0,0.0,0.0,0.0,0.0,0.0,0.0,0.0,0.0,0.0,0.0,0.0,0.0,0.0,0.0,0.0,0.0,0.0,0.0,0.0,0.0,0.0,0.0,0.0,0.0,0.0,0.0,0.0,0.0,0.0,0.0,0.0,0.0,0.0,0.0,0.0,0.0,0.0,0.0,0.0,0.0,0.0,0.0,0.0,0.0,0.0,0.0,0.0,0.0,0.0,0.0,0.0,0.0,0.0,0.0,0.0,0.0,0.0,0.0,0.0,0.0,0.0,0.0,0.0,0.0,0.0,0.0,0.0,0.0,0.0,0.0,0.0,0.0,0.0,0.0,0.0,0.0,0.0,0.0,0.0,0.0,0.0,0.0,0.0,0.0,0.0,0.0,0.0,0.0,0.0,0.0,0.0,0.0,0.0,0.0,0.0,0.0,0.0,0.0,0.0,0.0,0.0,0.0,0.0,0.0,0.0,0.0,0.0,0.0,0.0,0.0,0.0,0.0,0.0,0.0,0.0,0.0,0.0,0.0,0.0,0.0,0.0,0.0,0.0,0.0,0.0,0.0,0.0,0.0,0.0,0.0,0.0,0.0,0.0,0.0,0.0,0.0,0.0,0.0,0.0,0.0,0.0,0.0,0.0,0.0,0.0,0.0,0.0,0.0,0.0,0.0,0.0,0.0,0.0,0.0,0.0,0.0,0.0,0.0,0.0,0.0,0.0,0.0,0.0,0.0,0.0,0.0,0.0,0.0,0.0,0.0,0.0,0.0,0.0,0.0,0.0,0.0,0.0,0.0,0.0,0.0,0.0,0.0,0.0,0.0,0.0,0.0,0.0,0.0,0.0,0.0,0.0,0.0,0.0,0.0,0.0,0.0,0.0,0.0,0.0,0.0,0.0,0.0,0.0,0.0,0.0,0.0,0.0,0.0,0.0,0.0,0.0,0.0,0.0,0.0,0.0,0.0,0.0,0.0,0.0,0.0,0.0,0.0,0.0,0.0,0.0,0.0,0.0,0.0,0.0,0.0,0.0,0.0,0.0,0.0,0.0,0.0,0.0,0.0,0.0,0.0,0.0,0.0,0.0,0.0,0.0,0.0,0.0,0.0,0.0,0.0,0.0,0.0,0.0,0.0,0.0,0.0,0.0,0.0,0.0,0.0,0.0,0.0,0.0,0.0,0.0,0.0,0.0,0.0,0.0,0.0,0.0,0.0,0.0,0.0,0.0,0.0,0.0,0.0,0.0,0.0,0.0,0.0,0.0,0.0,0.0,0.0,0.0,0.0,0.0,0.0,0.0,0.0,0.0,0.0,0.0,0.0,0.0,0.0,0.0,0.0,0.0,0.0,0.0,0.0,0.0,0.0,0.0,0.0,0.0,0.0,0.0,0.0,0.0,0.0,0.0,0.0,0.0,0.0,0.0,0.0,0.0,0.0,0.0,0.0,0.0,0.0,0.0,0.0,0.0,0.0,0.0,0.0,0.0,0.0,0.0,0.0,0.0,0.0,0.0,0.0,0.0,0.0,0.0,0.0,0.0,0.0,0.0,0.0,0.0,0.0,0.0,0.0,0.0,0.0,0.0,0.0,0.0,0.0,0.0,0.0,0.0,0.0,0.0,0.0,0.0,0.0,0.0,0.0,0.0,0.0,0.0,0.0,0.0,0.0,0.0,0.0,0.0,0.0,0.0,0.0,0.0,0.0,0.0,0.0,0.0,0.0,0.0,0.0,0.0,0.0,0.0,0.0,0.0,0.0,0.0,0.0,0.0,0.0,0.0,0.0,0.0,0.0,0.0,0.0,0.0,0.0,0.0,0.0,0.0,0.0,0.0,0.0,0.0,0.0,0.0,0.0,0.0,0.0,0.0,0.0,0.0,0.0,0.0,0.0,0.0,0.0,0.0,0.0,0.0,0.0,0.0,0.0,0.0,0.0,0.0,0.0,0.0,0.0,0.0,0.0,0.0,0.0,0.0,0.0,0.0,0.0,0.0,0.0,0.0,0.0,0.0,0.0,0.0,0.0,0.0,0.0,0.0,0.0,0.0,0.0,0.0,0.0,0.0,0.0,0.0,0.0,0.0,0.0,0.0,0.0,0.0,0.0,0.0,0.0,0.0,0.0,0.0,0.0,0.0,0.0,0.0,0.0,0.0,0.0,0.0,0.0,0.0,0.0,0.0,0.0,0.0,0.0,0.0,0.0,0.0,0.0,0.0,0.0,0.0,0.0,0.0,0.0,0.0,0.0,0.0,0.0,0.0,0.0,0.0,0.0,0.0,0.0,0.0,0.0,0.0,0.0,0.0,0.0,0.0,0.0,0.0,0.0,0.0,0.0,0.0,0.0,0.0,0.0,0.0,0.0,0.0,0.0,0.0,0.0,0.0,0.0,0.0,0.0,0.0,0.0,0.0,0.0,0.0,0.0,0.0,0.0,0.0,0.0,0.0,0.0,0.0,0.0,0.0,0.0,0.0,0.0,0.0,0.0,0.0,0.0,0.0,0.0,0.0,0.0,0.0,0.0,0.0,0.0,0.0,0.0,0.0,0.0,0.0,0.0,0.0,0.0,0.0,0.0,0.0,0.0,0.0,0.0,0.0,0.0,0.0,0.0,0.0,0.0,0.0,0.0,0.0,0.0,0.0,0.0,0.0,0.0,0.0,0.0,0.0,0.0,0.0,0.0,0.0,0.0,0.0,0.0,0.0,0.0,0.0,0.0,0.0,0.0,0.0,0.0,0.0,0.0,0.0,0.0,0.0,0.0,0.0,0.0,0.0,0.0,0.0,0.0,0.0,0.0,0.0,0.0,0.0,0.0,0.0,0.0,0.0,0.0,0.0,0.0,0.0,0.0,0.0,0.0,0.0,0.0,0.0,0.0,0.0,0.0,0.0,0.0,0.0,0.0,0.0,0.0,0.0,0.0,0.0,0.0,0.0,0.0,0.0,0.0,0.0,0.0,0.0,0.0,0.0,0.0,0.0,0.0,0.0,0.0,0.0,0.0,0.0,0.0,0.0,0.0,0.0,0.0,0.0,0.0,0.0,0.0,0.0,0.0,0.0,0.0,0.0,0.0,0.0,0.0,1.6448,0.0,0.0,0.0,0.0,0.0,0.0,0.0,0.0,0.0,0.0,0.0,0.0,0.0,0.0,0.0,0.0,0.0,0.0,0.0,0.0,0.0,0.0,0.0,0.0,0.0,0.0,0.0,0.0,0.0,0.0,0.0,0.0,0.0,0.0,0.0,0.0,0.0,0.0,0.0,0.0,0.0,0.0,0.0,0.0,0.0,0.0,0.0,0.0,0.0,0.0,0.0,0.0,0.0,0.0,0.0,0.0,0.0,0.0,0.0,0.0,0.0,0.0,0.0,0.0,0.0,0.0,0.0,0.0,0.0,0.0,0.0,0.0,0.0,0.0,0.0,0.0,0.0,0.0,0.0,0.0,0.0,0.0,0.0,0.0,0.0,0.0,0.0,0.0,0.0,0.0,0.0,0.0,0.0,0.0,0.0,0.0,0.0,0.0,0.0,0.0,0.0,0.0,0.0,0.0,0.0,0.0,0.0,0.0,0.0,0.0,1.655,1.66,1.6613,1.6613,1.661,0.0,0.0,0.0,0.0,0.0,0.0,0.0,0.0,0.0,0.0,0.0,0.0,0.0,0.0,0.0,0.0,0.0,0.0,0.0,0.0,0.0,0.0,0.0,0.0,0.0,0.0,0.0,0.0,0.0,0.0,0.0,0.0,0.0,0.0,0.0,0.0,0.0,0.0,0.0,0.0,0.0,0.0,0.0,0.0,0.0,0.0,0.0,0.0,0.0,0.0,0.0,0.0,0.0,0.0,0.0,0.0,0.0,0.0,0.0,0.0,0.0,0.0,0.0,0.0,0.0,0.0,0.0,0.0,0.0,0.0,0.0,0.0,0.0,0.0,0.0,0.0,0.0,0.0,0.0,0.0,0.0,0.0,0.0,0.0,0.0,0.0,0.0,0.0,0.0,0.0,0.0,0.0,0.0,0.0,0.0,0.0,0.0,0.0,0.0,0.0,0.0,0.0,0.0,0.0,0.0,0.0,0.0,0.0,0.0,0.0,0.0,0.0,1.6613,1.6613,1.6603,0.0,0.0,0.0,0.0,0.0,0.0,0.0,0.0,0.0,0.0,0.0,0.0,0.0,0.0,0.0,0.0,0.0,0.0,0.0,0.0,0.0,0.0,0.0,0.0,0.0,0.0,0.0,0.0,0.0,0.0,0.0,0.0,0.0,0.0,0.0,0.0,0.0,0.0,0.0,0.0,0.0,0.0,0.0,0.0,0.0,0.0,0.0,0.0,0.0,0.0,0.0,0.0,0.0,0.0,0.0,0.0,0.0,0.0,0.0,0.0,0.0,0.0,0.0,0.0,0.0,0.0,0.0,0.0,0.0,0.0,0.0,0.0,0.0,0.0,0.0,0.0,0.0,0.0,0.0,0.0,0.0,0.0,0.0,0.0,0.0,0.0,0.0,0.0,0.0,0.0,0.0,0.0,0.0,0.0,0.0,0.0,0.0,0.0,0.0,0.0,0.0,0.0,0.0,0.0,0.0,0.0,0.0,0.0,0.0,0.0,1.6467,1.6606,1.661,0.0,1.6641,0.0,0.0,0.0,0.0,0.0,0.0,0.0,0.0,0.0,0.0,0.0,0.0,0.0,0.0,0.0,0.0,0.0,0.0,0.0,0.0,0.0,0.0,0.0,0.0,0.0,0.0,0.0,0.0,0.0,0.0,0.0,0.0,0.0,0.0,0.0,0.0,0.0,0.0,0.0,0.0,0.0,0.0,0.0,0.0,0.0,0.0,0.0,0.0,0.0,0.0,0.0,0.0,0.0,0.0,0.0,0.0,0.0,0.0,0.0,0.0,0.0,0.0,0.0,0.0,0.0,0.0,0.0,0.0,0.0,0.0,0.0,0.0,0.0,0.0,0.0,0.0,0.0,0.0,0.0,0.0,0.0,0.0,0.0,0.0,0.0,0.0,0.0,0.0,0.0,0.0,0.0,0.0,0.0,0.0,0.0,0.0,0.0,0.0,0.0,0.0,0.0,0.0,0.0,0.0,0.0,0.0,0.0,0.0,0.0,0.0,0.0,1.7759,1.7427,1.7048,0.0,0.0,0.0,0.0,0.0,0.0,0.0,0.0,0.0,0.0,0.0,0.0,0.0,0.0,0.0,0.0,0.0,0.0,0.0,0.0,0.0,0.0,0.0,0.0,0.0,0.0,0.0,0.0,0.0,0.0,0.0,0.0,0.0,0.0,0.0,0.0,0.0,0.0,0.0,0.0,0.0,0.0,0.0,0.0,0.0,0.0,0.0,0.0,0.0,0.0,0.0,0.0,0.0,0.0,0.0,0.0,0.0,0.0,0.0,0.0,0.0,0.0,0.0,0.0,0.0,0.0,0.0,0.0,0.0,0.0,0.0,0.0,0.0,0.0,0.0,0.0,0.0,0.0,0.0,0.0,0.0,0.0,0.0,0.0,0.0,0.0,0.0,0.0,0.0,0.0,0.0,0.0,0.0,0.0,0.0,0.0,0.0,0.0,0.0,0.0,0.0,0.0,0.0,0.0,0.0,0.0,0.0,0.0,0.0,0.0,1.7622,0.0,1.8543,1.8008,1.7413,1.6922,0.0,0.0,0.0,0.0,0.0,0.0,0.0,0.0,0.0,0.0,0.0,0.0,0.0,0.0,0.0,0.0,0.0,0.0,0.0,0.0,0.0,0.0,0.0,0.0,0.0,0.0,0.0,0.0,0.0,0.0,0.0,0.0,0.0,0.0,0.0,0.0,0.0,0.0,0.0,0.0,0.0,0.0,0.0,0.0,0.0,0.0,0.0,0.0,0.0,0.0,0.0,0.0,0.0,0.0,0.0,0.0,0.0,0.0,0.0,0.0,0.0,0.0,0.0,0.0,0.0,0.0,0.0,0.0,0.0,0.0,0.0,0.0,0.0,0.0,0.0,0.0,0.0,0.0,0.0,0.0,0.0,0.0,0.0,0.0,0.0,0.0,0.0,0.0,0.0,0.0,0.0,0.0,0.0,0.0,0.0,0.0,0.0,0.0,0.0,0.0,0.0,0.0,0.0,0.0,0.0,0.0,0.0,0.0,0.0,1.8269,1.8465,1.8598,1.7961,1.7623,0.0,0.0,0.0,0.0,0.0,0.0,0.0,0.0,0.0,0.0,0.0,0.0,0.0,0.0,0.0,0.0,0.0,0.0,0.0,0.0,0.0,0.0,0.0,0.0,0.0,0.0,0.0,0.0,0.0,0.0,0.0,0.0,0.0,0.0,0.0,0.0,0.0,0.0,0.0,0.0,0.0,0.0,0.0,0.0,0.0,0.0,0.0,0.0,0.0,0.0,0.0,0.0,0.0,0.0,0.0,0.0,0.0,0.0,0.0,0.0,0.0,0.0,0.0,0.0,0.0,0.0,0.0,0.0,0.0,0.0,0.0,0.0,0.0,0.0,0.0,0.0,0.0,0.0,0.0,0.0,0.0,0.0,0.0,0.0,0.0,0.0,0.0,0.0,0.0,0.0,0.0,0.0,0.0,0.0,0.0,0.0,0.0,0.0,0.0,0.0,0.0,0.0,0.0,0.0,0.0,0.0,0.0,0.0,0.0,1.868,1.9331,1.9531,1.9233,1.8582,1.8084,0.0,0.0,0.0,0.0,0.0,0.0,0.0,0.0,0.0,0.0,0.0,0.0,0.0,0.0,0.0,0.0,0.0,0.0,0.0,0.0,0.0,0.0,0.0,0.0,0.0,0.0,0.0,0.0,0.0,0.0,0.0,0.0,0.0,0.0,0.0,0.0,0.0,0.0,0.0,0.0,0.0,0.0,0.0,0.0,0.0,0.0,0.0,0.0,0.0,0.0,0.0,0.0,0.0,0.0,0.0,0.0,0.0,0.0,0.0,0.0,0.0,0.0,0.0,0.0,0.0,0.0,0.0,0.0,0.0,0.0,0.0,0.0,0.0,0.0,0.0,0.0,0.0,0.0,0.0,0.0,0.0,0.0,0.0,0.0,0.0,0.0,0.0,0.0,0.0,0.0,0.0,0.0,0.0,0.0,0.0,0.0,0.0,0.0,0.0,0.0,0.0,0.0,0.0,0.0,0.0,0.0,0.0,0.0,0.0,1.9341,0.0,2.0162,0.0,1.9214,1.8598,0.0,0.0,0.0,0.0,0.0,0.0,0.0,0.0,0.0,0.0,0.0,0.0,0.0,0.0,0.0,0.0,0.0,0.0,0.0,0.0,0.0,0.0,0.0,0.0,0.0,0.0,0.0,0.0,0.0,0.0,0.0,0.0,0.0,0.0,0.0,0.0,0.0,0.0,0.0,0.0,0.0,0.0,0.0,0.0,0.0,0.0,0.0,0.0,0.0,0.0,0.0,0.0,0.0,0.0,0.0,0.0,0.0,0.0,0.0,0.0,0.0,0.0,0.0,0.0,0.0,0.0,0.0,0.0,0.0,0.0,0.0,0.0,0.0,0.0,0.0,0.0,0.0,0.0,0.0,0.0,0.0,0.0,0.0,0.0,0.0,0.0,0.0,0.0,0.0,0.0,0.0,0.0,0.0,0.0,0.0,0.0,0.0,0.0,0.0,0.0,0.0,0.0,0.0,0.0,0.0,0.0,0.0,0.0,1.976,2.0085,2.0107,2.0202,2.0405,1.9784,1.9213,0.0,0.0,0.0,0.0,0.0,0.0,0.0,0.0,0.0,0.0,0.0,0.0,0.0,0.0,0.0,0.0,0.0,0.0,0.0,0.0,0.0,0.0,0.0,0.0,0.0,0.0,0.0,0.0,0.0,0.0,0.0,0.0,0.0,0.0,0.0,0.0,0.0,0.0,0.0,0.0,0.0,0.0,0.0,0.0,0.0,0.0,0.0,0.0,0.0,0.0,0.0,0.0,0.0,0.0,0.0,0.0,0.0,0.0,0.0,0.0,0.0,0.0,0.0,0.0,0.0,0.0,0.0,0.0,0.0,0.0,0.0,0.0,0.0,0.0,0.0,0.0,0.0,0.0,0.0,0.0,0.0,0.0,0.0,0.0,0.0,0.0,0.0,0.0,0.0,0.0,0.0,0.0,0.0,0.0,0.0,0.0,0.0,0.0,0.0,0.0,0.0,0.0,0.0,0.0,0.0,0.0,0.0,0.0,0.0,2.0646,2.0302,2.0417,2.1003,2.0014,1.9376,0.0,0.0,0.0,0.0,0.0,0.0,0.0,0.0,0.0,0.0,0.0,0.0,0.0,0.0,0.0,0.0,0.0,0.0,0.0,0.0,0.0,0.0,0.0,0.0,0.0,0.0,0.0,0.0,0.0,0.0,0.0,0.0,0.0,0.0,0.0,0.0,0.0,0.0,0.0,0.0,0.0,0.0,0.0,0.0,0.0,0.0,0.0,0.0,0.0,0.0,0.0,0.0,0.0,0.0,0.0,0.0,0.0,0.0,0.0,0.0,0.0,0.0,0.0,0.0,0.0,0.0,0.0,0.0,0.0,0.0,0.0,0.0,0.0,0.0,0.0,0.0,0.0,0.0,0.0,0.0,0.0,0.0,0.0,0.0,0.0,0.0,0.0,0.0,0.0,0.0,0.0,0.0,0.0,0.0,0.0,0.0,0.0,0.0,0.0,0.0,0.0,0.0,0.0,0.0,0.0,0.0,0.0,0.0,0.0,2.172,2.1095,2.1028,2.1727,2.068,2.0066,1.9884,0.0,0.0,0.0,0.0,0.0,0.0,0.0,0.0,0.0,0.0,0.0,0.0,0.0,0.0,0.0,0.0,0.0,0.0,0.0,0.0,0.0,0.0,0.0,0.0,0.0,0.0,0.0,0.0,0.0,0.0,0.0,0.0,0.0,0.0,0.0,0.0,0.0,0.0,0.0,0.0,0.0,0.0,0.0,0.0,0.0,0.0,0.0,0.0,0.0,0.0,0.0,0.0,0.0,0.0,0.0,0.0,0.0,0.0,0.0,0.0,0.0,0.0,0.0,0.0,0.0,0.0,0.0,0.0,0.0,0.0,0.0,0.0,0.0,0.0,0.0,0.0,0.0,0.0,0.0,0.0,0.0,0.0,0.0,0.0,0.0,0.0,0.0,0.0,0.0,0.0,0.0,0.0,0.0,0.0,0.0,0.0,0.0,0.0,0.0,0.0,0.0,0.0,0.0,0.0,0.0,0.0,0.0,0.0,2.3351,2.242,2.2087,2.2395,2.181,2.1175,0.0,0.0,0.0,0.0,0.0,0.0,0.0,0.0,0.0,0.0,0.0,0.0,0.0,0.0,0.0,0.0,0.0,0.0,0.0,0.0,0.0,0.0,0.0,0.0,0.0,0.0,0.0,0.0,0.0,0.0,0.0,0.0,0.0,0.0,0.0,0.0,0.0,0.0,0.0,0.0,0.0,0.0,0.0,0.0,0.0,0.0,0.0,0.0,0.0,0.0,0.0,0.0,0.0,0.0,0.0,0.0,0.0,0.0,0.0,0.0,0.0,0.0,0.0,0.0,0.0,0.0,0.0,0.0,0.0,0.0,0.0,0.0,0.0,0.0,0.0,0.0,0.0,0.0,0.0,0.0,0.0,0.0,0.0,0.0,0.0,0.0,0.0,0.0,0.0,0.0,0.0,0.0,0.0,0.0,0.0,0.0,0.0,0.0,0.0,0.0,0.0,0.0,0.0,0.0,0.0,0.0,0.0,0.0,0.0,2.409,2.3824,2.3659,2.3616,2.2909,2.2075,0.0,0.0,0.0,0.0,0.0,0.0,0.0,0.0,0.0,0.0,0.0,0.0,0.0,0.0,0.0,0.0,0.0,0.0,0.0,0.0,0.0,0.0,0.0,0.0,0.0,0.0,0.0,0.0,0.0,0.0,0.0,0.0,0.0,0.0,0.0,0.0,0.0,0.0,0.0,0.0,0.0,0.0,0.0,0.0,0.0,0.0,0.0,0.0,0.0,0.0,0.0,0.0,0.0,0.0,0.0,0.0,0.0,0.0,0.0,0.0,0.0,0.0,0.0,0.0,0.0,0.0,0.0,0.0,0.0,0.0,0.0,0.0,0.0,0.0,0.0,0.0,0.0,0.0,0.0,0.0,0.0,0.0,0.0,0.0,0.0,0.0,0.0,0.0,0.0,0.0,0.0,0.0,0.0,0.0,0.0,0.0,0.0,0.0,0.0,0.0,0.0,0.0,0.0,0.0,0.0,0.0,0.0,0.0,2.3653,2.4699,2.5068,2.5086,2.4701,2.3577,2.2744,0.0,0.0,0.0,0.0,0.0,0.0,0.0,0.0,0.0,0.0,0.0,0.0,0.0,0.0,0.0,0.0,0.0,0.0,0.0,0.0,0.0,0.0,0.0,0.0,0.0,0.0,0.0,0.0,0.0,0.0,0.0,0.0,0.0,0.0,0.0,0.0,0.0,0.0,0.0,0.0,0.0,0.0,0.0,0.0,0.0,0.0,0.0,0.0,0.0,0.0,0.0,0.0,0.0,0.0,0.0,0.0,0.0,0.0,0.0,0.0,0.0,0.0,0.0,0.0,0.0,0.0,0.0,0.0,0.0,0.0,0.0,0.0,0.0,0.0,0.0,0.0,0.0,0.0,0.0,0.0,0.0,0.0,0.0,0.0,0.0,0.0,0.0,0.0,0.0,0.0,0.0,0.0,0.0,0.0,0.0,0.0,0.0,0.0,0.0,0.0,0.0,0.0,0.0,0.0,0.0,0.0,0.0,0.0,2.4481,2.4998,2.596,2.6161,2.5615,2.4105,2.325,0.0,0.0,0.0,0.0,0.0,0.0,0.0,0.0,0.0,0.0,0.0,0.0,0.0,0.0,0.0,0.0,0.0,0.0,0.0,0.0,0.0,0.0,0.0,0.0,0.0,0.0,0.0,0.0,0.0,0.0,0.0,0.0,0.0,0.0,0.0,0.0,0.0,0.0,0.0,0.0,0.0,0.0,0.0,0.0,0.0,0.0,0.0,0.0,0.0,0.0,0.0,0.0,0.0,0.0,0.0,0.0,0.0,0.0,0.0,0.0,0.0,0.0,0.0,0.0,0.0,0.0,0.0,0.0,0.0,0.0,0.0,0.0,0.0,0.0,0.0,0.0,0.0,0.0,0.0,0.0,0.0,0.0,0.0,0.0,0.0,0.0,0.0,0.0,0.0,0.0,0.0,0.0,0.0,0.0,0.0,0.0,0.0,0.0,0.0,0.0,0.0,0.0,0.0,0.0,0.0,0.0,0.0,0.0,2.4107,2.5142,2.5277,2.5721,2.65,2.5076,2.3926,0.0,0.0,0.0,0.0,0.0,0.0,0.0,0.0,0.0,0.0,0.0,0.0,0.0,0.0,0.0,0.0,0.0,0.0,0.0,0.0,0.0,0.0,0.0,0.0,0.0,0.0,0.0,0.0,0.0,0.0,0.0,0.0,0.0,0.0,0.0,0.0,0.0,0.0,0.0,0.0,0.0,0.0,0.0,0.0,0.0,0.0,0.0,0.0,2.2516,0.0,0.0,0.0,0.0,0.0,0.0,0.0,0.0,0.0,0.0,0.0,0.0,0.0,0.0,0.0,0.0,0.0,0.0,0.0,0.0,0.0,0.0,0.0,0.0,0.0,0.0,0.0,0.0,0.0,0.0,0.0,0.0,0.0,0.0,0.0,0.0,0.0,0.0,0.0,0.0,0.0,0.0,0.0,0.0,0.0,0.0,0.0,0.0,0.0,0.0,0.0,0.0,0.0,0.0,0.0,0.0,0.0,0.0,0.0,2.5586,2.6752,2.6731,2.6728,2.6755,2.5557,2.4594,0.0,0.0,0.0,0.0,0.0,0.0,0.0,0.0,0.0,0.0,0.0,0.0,0.0,0.0,0.0,0.0,0.0,0.0,0.0,0.0,0.0,0.0,0.0,0.0,0.0,0.0,0.0,0.0,0.0,0.0,0.0,0.0,0.0,0.0,0.0,0.0,0.0,0.0,0.0,0.0,0.0,0.0,0.0,0.0,0.0,0.0,0.0,0.0,0.0,0.0,0.0,0.0,0.0,0.0,0.0,0.0,0.0,0.0,0.0,0.0,0.0,0.0,0.0,0.0,0.0,0.0,0.0,0.0,0.0,0.0,0.0,0.0,0.0,0.0,0.0,0.0,0.0,0.0,0.0,0.0,0.0,0.0,0.0,0.0,0.0,0.0,0.0,0.0,0.0,0.0,0.0,0.0,0.0,0.0,0.0,0.0,0.0,0.0,0.0,0.0,0.0,0.0,0.0,0.0,0.0,0.0,0.0,2.6097,2.7282,2.8519,2.8508,2.8011,2.7123,2.5956,2.5232,2.4973,0.0,0.0,0.0,0.0,0.0,0.0,0.0,0.0,0.0,0.0,0.0,0.0,0.0,0.0,0.0,0.0,0.0,0.0,0.0,0.0,0.0,0.0,0.0,0.0,0.0,0.0,0.0,0.0,0.0,0.0,0.0,0.0,0.0,0.0,0.0,0.0,0.0,0.0,2.0933,2.2225,0.0,0.0,0.0,0.0,0.0,0.0,0.0,0.0,2.3351,0.0,0.0,0.0,0.0,0.0,0.0,0.0,0.0,0.0,0.0,0.0,0.0,0.0,0.0,0.0,0.0,0.0,0.0,0.0,0.0,0.0,0.0,0.0,0.0,0.0,0.0,0.0,0.0,0.0,0.0,0.0,0.0,0.0,0.0,0.0,0.0,0.0,0.0,0.0,0.0,0.0,0.0,0.0,0.0,0.0,0.0,0.0,0.0,0.0,0.0,0.0,0.0,0.0,0.0,0.0,0.0,2.4977,2.5697,2.6871,2.8562,2.8112,2.8051,2.8371,2.6729,2.5682,2.5411,0.0,0.0,0.0,0.0,0.0,0.0,0.0,0.0,0.0,0.0,0.0,0.0,0.0,0.0,0.0,0.0,0.0,0.0,0.0,0.0,0.0,0.0,0.0,0.0,0.0,0.0,0.0,0.0,0.0,0.0,0.0,0.0,0.0,0.0,0.0,0.0,0.0,0.0,0.0,2.3228,2.4171,0.0,0.0,0.0,0.0,0.0,0.0,0.0,0.0,2.4714,0.0,0.0,0.0,0.0,0.0,0.0,0.0,0.0,0.0,0.0,0.0,0.0,0.0,0.0,0.0,0.0,0.0,0.0,0.0,0.0,0.0,0.0,0.0,0.0,0.0,0.0,0.0,0.0,0.0,0.0,0.0,0.0,0.0,0.0,0.0,0.0,0.0,0.0,0.0,0.0,0.0,0.0,0.0,0.0,0.0,0.0,0.0,0.0,0.0,0.0,0.0,0.0,0.0,0.0,0.0,2.5845,2.6844,2.8182,2.9911,2.9713,2.9429,2.9149,2.7635,2.6256,0.0,0.0,0.0,0.0,0.0,0.0,0.0,0.0,0.0,0.0,0.0,0.0,0.0,0.0,0.0,0.0,0.0,0.0,0.0,0.0,0.0,0.0,0.0,0.0,0.0,0.0,0.0,0.0,0.0,0.0,0.0,0.0,0.0,0.0,0.0,0.0,0.0,0.0,0.0,0.0,2.4438,2.5524,2.5486,0.0,0.0,0.0,0.0,0.0,0.0,2.6335,2.6017,0.0,0.0,0.0,0.0,0.0,0.0,0.0,0.0,0.0,0.0,0.0,0.0,0.0,0.0,0.0,0.0,0.0,0.0,0.0,0.0,0.0,0.0,0.0,0.0,0.0,0.0,0.0,0.0,0.0,0.0,0.0,0.0,0.0,0.0,0.0,0.0,0.0,0.0,0.0,0.0,0.0,0.0,0.0,0.0,0.0,0.0,0.0,0.0,0.0,0.0,0.0,0.0,0.0,0.0,0.0,2.6922,2.8302,2.9776,3.1404,3.1377,3.0851,2.9916,2.8597,2.6885,0.0,0.0,0.0,0.0,0.0,0.0,0.0,0.0,0.0,0.0,0.0,0.0,0.0,0.0,0.0,0.0,0.0,0.0,0.0,0.0,0.0,0.0,0.0,0.0,0.0,0.0,0.0,0.0,0.0,0.0,0.0,0.0,0.0,0.0,0.0,0.0,0.0,0.0,0.0,0.0,0.0,2.6614,2.5924,2.7031,0.0,0.0,0.0,0.0,2.7488,2.7515,0.0,0.0,0.0,0.0,0.0,0.0,0.0,0.0,0.0,0.0,0.0,0.0,0.0,0.0,0.0,0.0,0.0,0.0,0.0,0.0,0.0,0.0,0.0,0.0,0.0,0.0,0.0,0.0,0.0,0.0,0.0,0.0,0.0,0.0,0.0,0.0,0.0,0.0,0.0,0.0,0.0,0.0,0.0,0.0,0.0,0.0,0.0,0.0,0.0,0.0,0.0,0.0,0.0,0.0,0.0,0.0,2.7554,2.9325,3.0825,3.201,3.1558,3.1285,3.1242,2.947,2.7764,0.0,0.0,0.0,0.0,0.0,0.0,0.0,0.0,0.0,0.0,0.0,0.0,0.0,0.0,0.0,0.0,0.0,0.0,0.0,0.0,0.0,0.0,0.0,0.0,0.0,0.0,0.0,0.0,0.0,0.0,0.0,0.0,0.0,0.0,0.0,0.0,0.0,0.0,0.0,0.0,0.0,2.6762,2.8388,2.7804,2.7367,0.0,0.0,2.8221,2.8767,2.8856,0.0,0.0,0.0,0.0,0.0,0.0,0.0,0.0,0.0,0.0,0.0,0.0,0.0,0.0,0.0,0.0,0.0,0.0,0.0,0.0,0.0,0.0,0.0,0.0,0.0,0.0,0.0,0.0,0.0,0.0,0.0,0.0,0.0,0.0,0.0,0.0,0.0,0.0,0.0,0.0,0.0,0.0,0.0,0.0,0.0,0.0,0.0,0.0,0.0,0.0,0.0,0.0,0.0,0.0,0.0,2.5377,2.7174,2.898,3.0327,3.116,3.1594,3.1693,3.1401,2.9573,2.783,0.0,0.0,0.0,0.0,0.0,0.0,0.0,0.0,0.0,0.0,0.0,0.0,0.0,0.0,0.0,0.0,0.0,0.0,0.0,0.0,0.0,0.0,0.0,0.0,0.0,0.0,0.0,0.0,0.0,0.0,0.0,0.0,0.0,0.0,0.0,0.0,0.0,0.0,0.0,0.0,0.0,0.0,2.8988,2.9947,0.0,0.0,0.0,3.1046,3.0907,0.0,0.0,0.0,0.0,0.0,0.0,0.0,0.0,0.0,0.0,0.0,0.0,0.0,0.0,0.0,0.0,0.0,0.0,0.0,0.0,0.0,0.0,0.0,0.0,0.0,0.0,0.0,0.0,0.0,0.0,0.0,0.0,0.0,0.0,0.0,0.0,0.0,0.0,0.0,0.0,0.0,0.0,0.0,0.0,0.0,0.0,0.0,0.0,0.0,0.0,0.0,0.0,0.0,0.0,0.0,0.0,0.0,2.7445,2.9124,3.0318,3.1042,3.182,3.1974,3.1513,2.9776,0.0,0.0,0.0,0.0,0.0,0.0,0.0,0.0,0.0,0.0,0.0,0.0,0.0,0.0,0.0,0.0,0.0,0.0,0.0,0.0,0.0,0.0,0.0,0.0,0.0,0.0,0.0,1.8022,0.0,0.0,0.0,0.0,0.0,0.0,0.0,0.0,0.0,0.0,0.0,0.0,0.0,0.0,2.9688,2.9878,3.1855,3.2993,0.0,0.0,3.3315,3.2633,3.1811,3.085,0.0,0.0,0.0,0.0,0.0,0.0,0.0,0.0,0.0,0.0,0.0,0.0,0.0,0.0,0.0,0.0,0.0,0.0,0.0,0.0,0.0,0.0,0.0,0.0,0.0,0.0,0.0,0.0,0.0,0.0,0.0,0.0,0.0,0.0,0.0,0.0,0.0,0.0,0.0,0.0,0.0,0.0,0.0,0.0,0.0,0.0,0.0,0.0,0.0,0.0,0.0,0.0,0.0,0.0,0.0,2.9268,3.0544,3.1739,3.2843,3.2454,3.2182,3.2092,3.0381,2.8853,0.0,0.0,0.0,0.0,0.0,0.0,0.0,0.0,0.0,0.0,0.0,0.0,0.0,0.0,0.0,0.0,0.0,0.0,0.0,0.0,0.0,0.0,0.0,0.0,0.0,0.0,0.0,0.0,0.0,0.0,0.0,0.0,0.0,0.0,0.0,0.0,0.0,0.0,0.0,0.0,0.0,3.1305,3.1975,3.2784,3.3492,0.0,0.0,3.4011,3.3334,3.3663,3.3347,3.14,0.0,0.0,0.0,0.0,0.0,0.0,0.0,0.0,0.0,0.0,0.0,0.0,0.0,0.0,0.0,0.0,0.0,0.0,0.0,0.0,0.0,0.0,0.0,0.0,0.0,0.0,0.0,0.0,0.0,0.0,0.0,0.0,0.0,0.0,0.0,0.0,0.0,0.0,0.0,0.0,0.0,0.0,0.0,0.0,0.0,0.0,0.0,0.0,0.0,0.0,0.0,0.0,0.0,2.7515,2.8934,3.087,3.2264,3.3033,3.287,3.2762,3.2762,3.0634,2.9105,0.0,0.0,0.0,0.0,0.0,0.0,0.0,0.0,0.0,0.0,0.0,0.0,0.0,0.0,0.0,0.0,0.0,0.0,0.0,0.0,0.0,0.0,0.0,0.0,0.0,0.0,0.0,0.0,2.2853,2.3409,2.3811,0.0,0.0,0.0,0.0,0.0,0.0,0.0,0.0,0.0,0.0,3.1804,3.3743,3.4656,0.0,0.0,3.5913,3.6002,3.5317,3.4345,3.3403,3.2639,3.0508,0.0,0.0,0.0,0.0,0.0,0.0,0.0,0.0,0.0,0.0,0.0,0.0,0.0,0.0,0.0,0.0,0.0,0.0,0.0,0.0,0.0,0.0,0.0,0.0,0.0,0.0,0.0,0.0,0.0,0.0,0.0,0.0,0.0,0.0,0.0,0.0,0.0,0.0,0.0,0.0,0.0,0.0,0.0,0.0,0.0,0.0,0.0,0.0,0.0,0.0,0.0,0.0,2.7914,2.9667,3.1359,3.2662,3.3585,3.3278,3.3115,3.3061,3.0924,2.9396,0.0,0.0,0.0,0.0,0.0,0.0,0.0,0.0,0.0,0.0,0.0,0.0,0.0,0.0,0.0,0.0,0.0,0.0,0.0,0.0,0.0,0.0,0.0,0.0,0.0,0.0,0.0,0.0,2.354,2.3986,2.4502,0.0,0.0,0.0,0.0,0.0,0.0,0.0,0.0,0.0,0.0,3.3002,3.4519,3.5768,3.6487,3.6519,3.7076,3.7242,3.6503,3.5001,3.3776,3.3319,0.0,0.0,0.0,0.0,0.0,0.0,0.0,0.0,0.0,0.0,0.0,0.0,0.0,0.0,0.0,0.0,0.0,0.0,0.0,0.0,0.0,0.0,0.0,0.0,0.0,0.0,0.0,1.7703,0.0,0.0,1.8488,0.0,0.0,0.0,0.0,0.0,0.0,0.0,0.0,0.0,0.0,0.0,0.0,0.0,0.0,0.0,0.0,0.0,0.0,0.0,0.0,0.0,0.0,2.9143,3.2055,3.22,3.306,3.4649,3.3694,3.3142,3.3078,3.1323,2.9813,2.8592,0.0,0.0,0.0,0.0,0.0,0.0,0.0,0.0,0.0,0.0,0.0,0.0,0.0,0.0,0.0,0.0,0.0,0.0,0.0,0.0,0.0,0.0,0.0,0.0,0.0,0.0,2.2817,2.3558,2.4173,0.0,0.0,0.0,0.0,0.0,0.0,0.0,0.0,0.0,0.0,3.2897,3.5324,3.417,3.5789,3.7171,3.7178,3.7383,3.7259,3.6559,3.5816,3.4847,0.0,0.0,0.0,0.0,0.0,0.0,0.0,0.0,0.0,0.0,0.0,0.0,0.0,0.0,0.0,0.0,0.0,0.0,0.0,0.0,0.0,0.0,0.0,0.0,0.0,0.0,0.0,1.9219,1.9802,0.0,0.0,0.0,0.0,0.0,0.0,0.0,0.0,0.0,0.0,0.0,2.5112,2.5502,0.0,0.0,0.0,0.0,0.0,0.0,0.0,0.0,0.0,0.0,0.0,0.0,3.0193,3.1594,3.3168,3.4415,3.5337,3.4632,3.4006,3.3495,3.2144,3.0195,2.7691,0.0,0.0,0.0,0.0,0.0,0.0,0.0,0.0,0.0,0.0,0.0,0.0,0.0,0.0,0.0,0.0,0.0,0.0,0.0,0.0,0.0,0.0,0.0,0.0,0.0,2.2486,0.0,0.0,0.0,0.0,0.0,0.0,0.0,0.0,0.0,0.0,0.0,3.0136,3.1873,3.3422,3.4722,3.5636,3.6776,3.7522,0.0,0.0,0.0,0.0,0.0,0.0,0.0,0.0,0.0,0.0,0.0,0.0,0.0,0.0,3.1596,2.8965,2.8588,2.8964,2.9876,0.0,0.0,0.0,0.0,0.0,0.0,0.0,0.0,0.0,0.0,0.0,0.0,0.0,0.0,2.0775,0.0,2.1891,0.0,0.0,0.0,0.0,0.0,0.0,0.0,0.0,2.6142,2.6724,2.675,2.7149,2.7359,0.0,2.7602,2.6671,0.0,0.0,0.0,0.0,0.0,0.0,0.0,0.0,3.1172,3.2415,3.3852,3.4901,3.5423,3.4901,3.4357,3.3856,3.2289,3.0281,2.7842,2.6882,2.5431,0.0,0.0,0.0,0.0,0.0,0.0,0.0,0.0,0.0,0.0,0.0,0.0,0.0,0.0,0.0,0.0,0.0,0.0,0.0,0.0,0.0,0.0,0.0,2.3105,0.0,0.0,0.0,0.0,0.0,0.0,0.0,0.0,0.0,2.9299,3.0289,3.1882,3.4089,3.4797,3.5553,3.6816,0.0,0.0,0.0,0.0,0.0,0.0,0.0,3.7125,3.6613,3.5774,3.5293,3.5805,3.5642,3.5531,3.5692,0.0,0.0,3.183,3.1342,3.1695,3.2622,3.3384,3.4275,3.5422,3.6197,3.6723,0.0,0.0,0.0,0.0,0.0,0.0,0.0,0.0,2.1694,2.2133,0.0,2.3035,0.0,0.0,0.0,0.0,2.407,2.509,0.0,0.0,2.7046,2.7885,2.8372,2.8555,2.842,2.8083,2.8674,2.8831,2.8462,2.6982,0.0,0.0,0.0,0.0,0.0,0.0,3.2121,3.4307,3.4296,3.451,3.509,3.4536,3.4223,3.4107,3.1894,3.014,2.9055,2.7322,2.6058,2.5473,2.3948,0.0,0.0,0.0,0.0,0.0,0.0,0.0,0.0,0.0,0.0,0.0,0.0,0.0,0.0,0.0,0.0,0.0,0.0,0.0,0.0,2.3743,0.0,0.0,0.0,0.0,0.0,0.0,0.0,0.0,0.0,0.0,3.0977,3.3419,3.5468,3.5689,0.0,0.0,0.0,0.0,3.8619,3.8782,3.8952,3.9065,3.9026,3.8488,3.7981,3.773,0.0,0.0,3.773,3.7242,3.6894,3.7016,3.7133,3.674,3.5822,3.5412,3.5331,3.5458,3.5988,3.6707,3.7432,3.8206,3.8878,2.4174,0.0,0.0,0.0,0.0,2.2247,2.2976,2.4348,2.4117,2.4591,2.5575,2.5587,0.0,0.0,0.0,0.0,0.0,0.0,2.7451,2.8066,2.9337,3.0031,3.0215,3.0663,3.082,3.0772,3.1512,3.1892,3.1873,3.1147,3.0197,2.9057,0.0,0.0,0.0,0.0,3.2957,3.3643,3.4423,3.4936,3.5079,3.4936,3.4359,3.3377,3.21,3.0938,2.9801,2.8986,2.7961,2.6692,2.5485,0.0,0.0,0.0,0.0,0.0,0.0,0.0,0.0,0.0,0.0,0.0,0.0,0.0,0.0,0.0,0.0,0.0,0.0,0.0,2.2768,2.3239,2.366,0.0,0.0,0.0,0.0,0.0,0.0,0.0,0.0,0.0,3.4934,3.5034,3.5445,0.0,0.0,3.7624,3.8128,3.8799,3.9247,3.9297,3.9748,0.0,3.9403,3.9195,3.8892,3.8357,3.8658,3.8988,3.8988,3.9235,3.9478,3.9622,4.009,4.032,4.0116,3.8223,3.6996,3.7333,3.8053,3.8824,3.9598,4.064,4.1533,2.7547,2.6023,2.477,2.4601,2.5124,2.4908,2.5559,2.6712,2.6392,2.6716,2.7458,2.7322,2.7225,2.7156,2.7578,0.0,0.0,0.0,2.8694,2.9189,3.0297,3.089,3.1141,3.1581,3.1818,3.1879,3.2618,3.3006,3.3101,3.3435,3.3007,3.1811,0.0,0.0,3.2382,3.3589,3.4328,3.4576,3.5166,3.5384,3.5182,3.4934,3.4328,3.329,3.2758,3.2002,3.0927,3.0379,2.9601,2.8562,2.7045,2.5563,0.0,0.0,0.0,0.0,0.0,0.0,0.0,0.0,0.0,0.0,0.0,2.2432,0.0,0.0,0.0,0.0,2.3167,2.3354,2.378,2.4218,0.0,0.0,0.0,0.0,0.0,0.0,0.0,3.1608,3.3595,3.5348,3.6352,3.6323,3.6728,3.818,3.8344,3.8555,3.9196,0.0,3.983,3.989,4.0237,4.036,3.9968,4.0062,4.0077,3.9899,4.0157,4.0441,4.0471,4.0799,4.1097,4.1264,4.1648,4.2053,4.2169,4.0623,3.9567,4.0054,4.056,4.109,4.1622,4.2616,4.3372,3.0069,2.9479,2.7282,2.6658,2.7116,2.737,2.7831,2.8383,2.8395,2.8405,2.8461,2.8451,2.8598,2.8891,2.9282,0.0,2.8835,2.927,2.9493,2.9561,3.0369,3.0984,3.1426,3.1784,3.1905,3.194,3.2606,3.2947,3.31,3.444,3.5105,3.506,3.3913,3.3915,3.5062,3.5431,3.5911,3.645,3.6206,3.5835,3.5286,3.4763,3.4199,3.3634,3.3545,3.305,3.2093,3.1355,3.0888,3.0618,2.8474,2.6766,2.58,0.0,0.0,0.0,0.0,0.0,0.0,0.0,0.0,0.0,0.0,0.0,0.0,0.0,0.0,0.0,2.3889,0.0,2.5257,2.6206,0.0,0.0,0.0,3.0094,3.0221,3.226,3.3509,3.3169,0.0,0.0,3.6247,3.7446,3.8889,4.0388,4.0239,4.0073,4.0427,4.0401,4.0423,4.058,4.0615,4.0606,4.0672,4.0957,4.1294,4.1617,4.1886,4.1814,4.1802,4.1814,4.1895,4.1863,4.2132,4.2371,4.2371,4.2531,4.2975,4.3043,4.3038,4.3073,4.3209,4.3768,4.423,3.1202,3.1036,3.0469,2.9731,2.8905,2.8944,2.9065,2.921,2.9222,2.9429,2.9735,2.9574,2.9842,3.0366,2.9955,2.9801,2.9841,2.9964,3.0197,3.0577,3.1598,3.2219,3.2528,3.2801,3.295,3.2987,3.3688,3.4222,3.4654,3.5544,3.5985,3.5993,3.6079,3.6019,3.586,3.5922,3.6042,3.6173,3.6129,3.5824,3.5323,3.5155,3.4607,3.3623,3.3143,3.2578,3.1901,3.1306,3.0833,3.0447,2.9029,2.7858,2.6999,2.5478,0.0,0.0,0.0,0.0,0.0,0.0,0.0,0.0,0.0,2.5374,2.5503,0.0,2.7526,0.0,2.6294,2.6194,2.6536,2.7609,0.0,0.0,3.0937,3.2092,3.2264,3.3871,3.5226,3.592,3.6742,3.7667,3.8667,3.91,3.9799,4.0922,4.019,3.9739,4.0323,4.0754,4.1125,4.1453,4.1526,4.1559,4.1538,4.1623,4.179,4.1895,4.1917,4.1886,4.1917,4.1886,4.1886,4.1956,4.2437,4.2797,4.2828,4.3422,4.3888,4.3952,4.3545,4.3114,4.3158,4.372,4.4179,3.1957,3.1966,3.2175,3.1817,3.1065,3.0624,3.0416,3.0428,3.0428,3.0568,3.0821,3.0843,3.1059,3.137,3.1149,3.1111,3.1221,3.1219,3.1365,3.1646,3.2334,3.2755,3.2916,3.318,3.3305,3.333,3.3719,3.4077,3.4373,3.509,3.5459,3.5483,3.6428,3.6729,3.6401,3.66,3.6769,3.6907,3.6645,3.6347,3.6044,3.5547,3.5009,3.4382,3.378,3.3064,3.2235,3.1905,3.146,3.0815,2.9998,2.9014,2.7865,2.6977,2.6143,0.0,0.0,0.0,0.0,0.0,0.0,0.0,0.0,0.0,0.0,0.0,2.8961,2.891,2.8096,2.8062,2.9212,2.9943,3.0776,3.1712,3.3312,3.4361,3.4473,3.5646,3.6701,3.7302,3.7516,3.7923,3.8749,3.9029,3.9391,3.9971,3.9952,4.0155,4.0912,4.1322,4.162,4.1835,4.1886,4.201,4.2168,4.221,4.2293,4.2488,4.252,4.252,4.252,4.252,4.252,4.256,4.2957,4.3307,4.3326,4.3763,4.417,4.4213,4.394,4.3756,4.3855,4.4203,4.4442,3.2507,3.2516,3.2923,3.3111,3.3032,3.2162,3.1791,3.1791,3.1778,3.1769,3.1717,3.1947,3.2031,3.2015,3.2249,3.2401,3.2493,3.2413,3.2413,3.2519,3.2781,3.2891,3.2916,3.3167,3.3305,3.3305,3.3305,3.3342,3.343,3.4029,3.4397,3.4508,3.5798,3.6498,3.6615,3.7097,3.7517,3.7888,3.7377,3.7078,3.6974,3.5966,3.5365,3.5286,3.4669,3.3849,3.2875,3.2682,3.2211,3.1403,3.0872,3.0006,2.8655,2.8619,2.8192,0.0,2.705,0.0,0.0,0.0,0.0,0.0,0.0,0.0,0.0,2.9648,3.0291,3.0817,2.9976,3.0264,3.2345,3.2772,3.3355,3.4421,3.5672,3.6506,3.6636,3.737,3.7922,3.8036,3.8015,3.7994,3.8154,3.8421,3.872,3.9098,3.9919,4.0842,4.1689,4.1949,4.2012,4.2064,4.2084,4.2314,4.2602,4.2684,4.2816,4.3199,4.324,4.329,4.326,4.326,4.328,4.3299,4.3418,4.3606,4.3636,4.3782,4.4007,4.4162,4.4167,4.4308,4.4659,4.4772,4.4865,3.2967,3.3002,3.3067,3.3111,3.3076,3.2901,3.2813,3.2822,3.2813,3.2617,3.2254,3.2306,3.2194,3.198,3.1655,3.1887,3.2471,3.203,3.2074,3.2506,3.2768,3.2891,3.2916,3.3157,3.3305,3.3305,3.3305,3.3494,3.3855,3.4003,3.4298,3.4726,3.4993,3.5488,3.6108,0.0,0.0,0.0,3.7795,3.7508,3.7011,3.6321,3.572,3.5297,3.4267,0.0,3.3404,3.2506,3.1905,3.1691,3.0742,0.0,0.0,0.0,0.0,0.0,0.0,0.0,0.0,0.0,0.0,0.0,3.1684,3.1594,3.0907,3.2182,3.3122,3.323,3.3483,3.3818,3.4252,3.5204,3.5886,3.6141,3.6813,3.7533,3.8209,3.8318,3.8553,3.9256,3.9153,3.9098,3.9256,3.9583,3.9906,4.0312,4.0902,4.1419,4.1883,4.2237,4.2573,4.2938,4.2968,4.3019,4.3149,4.3149,4.3149,4.33,4.329,4.329,4.329,4.329,4.329,4.329,4.3329,4.3369,4.3369,4.3587,4.3773,4.3833,4.3949,4.4191,4.4562,4.4657,4.4648,3.3805,3.3805,3.3805,3.3792,0.0,3.3805,3.3792,3.3748,3.3294,3.2967,3.2761,3.2889,3.2867,3.2732,3.2618,3.2804,3.3195,3.3041,3.3115,3.3402,3.3694,3.3858,3.3835,3.3976,3.405,3.4027,3.3787,3.3776,3.3991,3.3784,3.3804,3.4088,3.4689,3.5199,3.5619,3.6344,3.7085,3.79,3.7911,3.7743,3.7429,3.6843,3.629,3.5704,3.4905,0.0,0.0,0.0,0.0,0.0,0.0,0.0,0.0,0.0,0.0,3.0744,3.042,3.0444,3.1028,3.1721,3.2408,3.3014,3.4146,3.4308,3.3123,3.3826,3.4595,3.5201,3.5527,3.5798,3.6151,3.6964,3.749,3.7517,3.8033,3.8575,3.8929,3.8934,3.9037,3.9392,3.9485,3.9496,3.9507,3.9925,4.0241,4.0516,4.1029,4.1469,4.1715,4.2242,4.2793,4.322,4.329,4.33,4.329,4.329,4.329,4.33,4.329,4.329,4.329,4.329,4.329,4.329,4.329,4.329,4.33,4.3399,4.3537,4.3665,4.3783,4.3949,4.4258,4.4372,4.4479,3.4761,3.4761,3.4761,3.4761,3.4761,3.4747,3.4747,3.4709,3.3748,0.0,0.0,3.3465,3.3541,3.3515,3.3719,3.3891,3.3984,3.4185,3.4339,3.4405,3.4667,3.4795,3.4795,3.4795,3.4795,3.4785,3.4349,3.4142,3.4119,3.3649,3.342,3.352,3.4396,3.4969,3.5271,3.6415,3.7285,3.7739,3.7808,3.7842,3.7888,3.7314,3.6776,3.6279,3.573,3.4946,3.3974,3.3796,3.3237,3.2189,3.2171,3.1995,3.1512,3.1753,3.2141,3.2602,3.248,3.2666,3.3296,3.3943,3.4428,3.4666,3.6059,3.6459,3.5354,3.5273,3.5707,3.6822,3.6931,3.7164,3.7767,3.8239,3.8564,3.8564,3.9009,3.9292,3.9292,3.9319,3.9292,3.933,3.9485,3.954,3.9374,3.9892,4.0252,4.0159,4.072,4.1322,4.148,4.2057,4.2639,4.2911,4.304,4.316,4.319,4.326,4.329,4.329,4.329,4.329,4.329,4.329,4.329,4.329,4.329,4.329,4.329,4.3309,4.3389,4.3587,4.3626,4.3665,4.3851,4.4055,4.42,3.5772,3.5808,3.5787,3.5787,3.5772,3.5772,3.5787,3.5685,3.4731,3.4076,3.3718,3.3745,3.3662,3.3493,3.352,3.3812,3.4234,3.4264,3.4471,3.4742,3.4782,3.4795,3.4795,3.4795,3.4795,3.4808,3.4716,3.4693,3.4611,3.4142,3.3889,3.3869,3.3677,3.4139,3.5211,3.6238,3.6922,3.7201,3.7436,3.7681,3.7888,3.7314,3.6985,3.6854,3.6294,3.5704,3.5088,3.4565,3.4005,3.3378,3.2895,3.2591,3.2539,3.3162,3.3598,3.3714,3.4209,3.4917,3.5711,3.5886,3.6485,3.7648,3.8033,3.7859,3.7208,3.7116,3.7425,3.8076,3.8114,3.8385,3.8966,3.9091,3.9145,3.9145,3.9237,3.9319,3.9319,3.9319,3.9319,3.9319,3.9341,3.9385,3.9374,3.9771,4.005,4.0072,4.044,4.0901,4.1272,4.1777,4.2098,4.2241,4.2546,4.2749,4.2789,4.309,4.321,4.329,4.329,4.329,4.329,4.329,4.329,4.329,4.329,4.329,4.329,4.329,4.3319,4.3369,4.3409,4.3399,4.3448,4.3655,4.3832,3.5998,3.5998,3.5998,3.5998,3.5998,3.5998,3.5998,3.5976,3.5532,3.5204,3.5021,3.4985,3.4779,3.443,3.443,3.4414,3.4416,3.4742,3.4994,3.5142,3.5478,3.5625,3.5602,3.5625,3.5588,3.5602,3.5313,3.5198,3.5139,3.467,3.444,3.4446,3.4519,3.4842,3.5428,3.6168,3.6664,3.6898,3.7143,3.7343,3.7459,3.72,3.6959,3.6786,3.6512,3.6173,3.5757,3.5366,3.4901,3.4329,3.3918,3.3742,3.3913,3.4251,3.4643,3.5057,3.5548,3.5982,3.6375,3.6952,3.7752,3.8781,3.8884,3.8792,3.8483,3.8494,3.8591,3.8846,3.8912,3.8982,3.9264,3.9319,3.9319,3.9319,3.9319,3.9319,3.9319,3.9319,3.9319,3.933,3.9441,3.9452,3.9303,3.97,3.9919,3.9903,4.0154,4.0436,4.0651,4.0827,4.117,4.1705,4.2034,4.2137,4.2189,4.2505,4.2799,4.295,4.316,4.327,4.329,4.329,4.329,4.329,4.329,4.329,4.329,4.329,4.329,4.329,4.329,4.329,4.3319,4.3429,4.3606,3.6311,3.6311,3.6311,3.6326,3.6311,3.6311,3.6311,3.6326,3.6326,3.6311,3.6289,3.6107,3.575,3.5386,3.5401,3.5211,3.5003,3.536,3.5607,3.5718,3.6105,3.6282,3.6282,3.6282,3.6282,3.6259,3.5864,3.568,3.5621,3.5185,3.4887,3.4866,3.5214,3.5437,3.543,3.5813,3.618,3.6427,3.6652,3.6875,3.7097,3.7108,3.6984,3.6744,3.673,3.6548,3.6181,3.5989,3.5653,3.5132,3.4852,3.4849,3.5156,3.5184,3.5523,3.6154,3.6524,3.6768,3.6904,3.7698,3.8511,3.9137,3.9203,3.9225,3.928,3.9319,3.9319,3.9319,3.9292,3.9292,3.9319,3.9319,3.9319,3.9319,3.9319,3.9319,3.9319,3.9319,3.9319,3.9314,3.9474,3.9518,3.9452,3.9656,3.9881,3.9837,3.9914,4.0012,4.0023,4.0023,4.0397,4.0954,4.1367,4.1472,4.1514,4.1974,4.2354,4.2607,4.301,4.323,4.329,4.329,4.329,4.329,4.329,4.329,4.329,4.329,4.329,4.329,4.329,4.3359,4.3569,4.3609,4.3588,3.7273,3.7258,3.7236,3.7273,3.7236,3.7251,3.7214,3.7229,3.7273,3.7288,3.7127,3.6377,3.6005,3.5918,3.5918,3.599,3.6125,3.6068,3.6185,3.6433,3.6347,3.6305,3.6314,3.6305,3.6305,3.6295,3.6199,3.619,3.613,3.568,3.5231,3.4837,3.4846,3.4929,3.4924,3.5002,3.5247,3.5704,3.5728,3.6168,3.7038,3.7108,3.7083,3.7055,3.7055,3.6821,3.6313,3.6254,3.609,3.5731,3.5458,3.5532,3.5943,3.6096,3.6282,3.6548,3.7085,3.7603,3.7983,3.8345,3.8646,3.8897,3.8942,3.9058,3.9296,3.9319,3.9319,3.9373,3.9346,3.9346,3.9319,3.9335,3.9416,3.9481,3.9427,3.9319,3.9373,3.9319,3.9319,3.9319,3.9379,3.9352,3.9352,3.9551,3.9788,3.9953,3.9975,4.0074,4.014,4.0173,4.0112,4.0177,4.0421,4.0797,4.0908,4.1642,4.2057,4.2282,4.287,4.314,4.319,4.324,4.329,4.329,4.3389,4.3419,4.3389,4.3319,4.3379,4.3419,4.3419,4.3459,4.3997,4.4087,4.3998,3.8073,3.7826,3.7826,3.7651,3.7426,3.7389,3.7389,3.7389,3.7389,3.7389,3.7345,3.6989,3.6683,3.6406,3.6406,3.6326,3.6172,3.6226,3.6459,3.675,3.6858,3.6831,3.6723,3.67,3.6589,3.6305,3.6282,3.6282,3.6259,3.6075,3.5703,3.5373,3.5866,3.6055,3.5796,3.6051,3.6354,3.6522,3.6236,3.6275,3.6629,3.6676,3.6746,3.6838,3.6887,3.6855,3.6778,3.6622,3.6474,3.6327,3.6107,3.613,3.6436,3.6495,3.6634,3.689,3.7108,3.7398,3.7744,3.8019,3.8327,3.8688,3.883,3.9143,3.9757,3.9807,3.997,4.0257,4.004,3.9807,3.9873,4.0149,4.0366,4.0366,4.0366,4.0366,4.0366,4.0051,3.9845,3.9818,3.9509,3.9319,3.933,3.9407,3.9643,4.0005,4.011,4.0187,4.0536,4.0785,4.0853,4.0831,4.1145,4.0969,4.0463,4.0627,4.1149,4.1464,4.2118,4.2708,4.277,4.311,4.329,4.329,4.3599,4.3818,4.3927,4.4237,4.4416,4.4027,4.3449,4.3419,4.3698,4.3728,4.3668,3.861,3.8304,3.8298,3.808,3.7789,3.7767,3.7717,3.7586,3.7586,3.752,3.7389,3.7389,3.7214,3.693,3.6908,3.669,3.6443,3.6538,3.6762,3.7081,3.7242,3.7269,3.7186,3.7053,3.6837,3.6521,3.6373,3.6282,3.6282,3.6282,3.6084,3.5883,3.6425,3.6521,3.6206,3.6462,3.6702,3.6911,3.6612,3.6534,3.6798,3.6695,3.6627,3.6605,3.6603,3.6697,3.6887,3.6734,3.6652,3.6686,3.6511,3.6523,3.6793,3.6686,3.6709,3.6957,3.7003,3.722,3.7689,3.7921,3.83,3.8895,3.9085,3.9501,4.0152,4.034,4.0579,4.0989,4.0827,4.0687,4.0513,4.0827,4.1086,4.1113,4.1113,4.1113,4.1044,4.0675,4.0377,4.0198,3.9807,3.9454,3.9357,3.933,3.9477,3.9814,3.9938,4.0051,4.054,4.0809,4.1071,4.1153,4.1434,4.1223,4.0271,4.06,4.0755,4.0944,4.1736,4.2495,4.2425,4.296,4.329,4.3359,4.3938,4.4087,4.3838,4.4326,4.4785,4.4177,4.3628,4.3389,4.3718,4.3599,4.3828,3.8784,3.8784,3.8763,3.8719,3.8703,3.8697,3.8473,3.8058,3.8073,3.7833,3.7498,3.7455,3.7404,3.7367,3.7352,3.7361,3.7303,3.711,3.7222,3.7551,3.7408,3.7488,3.7724,3.7237,3.7007,3.6938,3.6553,3.6327,3.6305,3.6282,3.6282,3.6249,3.5946,3.5653,3.5653,3.5424,3.5491,3.6515,3.6557,3.6896,3.7704,3.7399,3.6946,3.6568,3.6417,3.644,3.644,3.6428,3.6499,3.6697,3.6511,3.6605,3.6968,3.6666,3.6548,3.6748,3.6783,3.7235,3.8171,3.8378,3.8773,3.9596,3.9753,4.0059,4.0609,4.0694,4.083,4.1106,4.1555,4.1605,4.116,4.1226,4.1261,4.1261,4.1179,4.1206,4.1179,4.1179,4.08,4.0415,4.0171,3.99,3.9427,3.9319,3.9357,3.9454,3.94,3.9536,3.978,4.0085,4.0414,4.0588,4.0879,4.1088,4.0923,4.0913,4.1133,4.1177,4.1471,4.2495,4.2769,4.298,4.314,4.3439,4.3938,4.4027,4.3688,4.3688,4.3997,4.3788,4.3549,4.3459,4.3688,4.4087,4.4338,3.9574,3.9269,3.8931,3.8784,3.8784,3.8784,3.8713,3.856,3.8544,3.8457,3.832,3.8313,3.8139,3.7839,3.7855,3.7695,3.7404,3.732,3.7583,3.8037,3.8028,3.8125,3.8269,3.8114,3.7816,3.7471,3.7012,3.6576,3.6305,3.6282,3.6282,3.635,3.6472,3.6527,3.6554,3.675,3.7057,3.7354,3.7416,3.763,3.7978,3.7814,3.7625,3.7387,3.6733,3.6405,3.6405,3.6405,3.6428,3.6511,3.6428,3.6476,3.6642,3.6803,3.7017,3.7269,3.7585,3.8046,3.8587,3.8817,3.9137,3.963,3.9821,4.0259,4.0861,4.1013,4.1194,4.1626,4.1892,4.193,4.191,4.2046,4.2249,4.2249,4.2249,4.2195,4.2168,4.1912,4.1559,4.1284,4.0741,4.0101,3.9888,3.9547,3.9465,3.9791,3.9873,4.0008,4.04,4.0774,4.092,4.1059,4.1338,4.142,4.0912,4.0734,4.0725,4.0664,4.0917,4.1361,4.1725,4.2456,4.2739,4.322,4.3757,4.4187,4.3908,4.3808,4.3967,4.3908,4.3638,4.3419,4.3599,4.4057,4.4438,4.0115,3.9787,3.9427,3.9265,3.9265,3.928,3.9193,3.9062,3.9062,3.8975,3.8828,3.8784,3.861,3.8363,3.832,3.8073,3.763,3.7492,3.7713,3.8208,3.835,3.8498,3.8636,3.8613,3.8413,3.8037,3.7517,3.7067,3.6773,3.6612,3.6507,3.6571,3.6777,3.686,3.6925,3.7244,3.751,3.7659,3.7702,3.7849,3.8178,3.8079,3.8116,3.8116,3.7399,3.6909,3.6921,3.6909,3.6909,3.6921,3.6909,3.6897,3.6959,3.7248,3.7548,3.7756,3.8046,3.8547,3.9031,3.9265,3.9574,4.0111,4.0281,4.0657,4.1283,4.1372,4.1607,4.1961,4.2078,4.2078,4.219,4.2509,4.2752,4.2779,4.2779,4.2801,4.2873,4.256,4.2222,4.1869,4.111,4.0605,4.0431,3.9943,3.9873,4.0171,4.0063,4.0106,4.0454,4.0829,4.1075,4.1114,4.1331,4.1322,4.0989,4.0672,4.0408,4.0311,4.0763,4.0968,4.1194,4.1953,4.2577,4.3039,4.3528,4.4066,4.4247,4.4087,4.4027,4.3997,4.3728,4.3419,4.3688,4.4027,4.4567,4.0296,4.0268,4.029,4.0203,4.0164,4.0164,4.0,3.9612,3.9606,3.9356,3.9024,3.8893,3.8931,3.8806,3.8822,3.856,3.8117,3.7739,3.7695,3.7961,3.8261,3.8537,3.8765,3.8717,3.8634,3.8519,3.8037,3.7784,3.7646,3.7228,3.7007,3.6929,3.6612,3.652,3.6355,3.6613,3.6756,3.717,3.7379,3.7838,3.8597,3.8378,3.8412,3.878,3.8291,3.8015,3.8015,3.7939,3.7864,3.7889,3.7914,3.7965,3.7864,3.7965,3.8027,3.8089,3.8102,3.8639,3.9557,3.9721,4.0163,4.0824,4.1169,4.1228,4.1465,4.1605,4.173,4.193,4.2018,4.2067,4.2133,4.2332,4.2516,4.2511,4.2584,4.2694,4.2825,4.2885,4.2656,4.2114,4.1517,4.1152,4.0989,4.0594,4.0296,4.0214,3.9943,3.9699,3.9877,4.0232,4.0248,4.0357,4.06,4.0723,4.0658,4.059,4.0274,4.0134,4.0821,4.1254,4.132,4.186,4.2507,4.2989,4.3429,4.3947,4.3948,4.3818,4.3599,4.3509,4.3389,4.3579,4.3938,4.4366,4.4965,4.0312,4.0312,4.0312,4.0312,4.0312,4.0312,4.0203,4.0093,4.0071,4.0006,3.9842,3.9837,3.9646,3.94,3.935,3.9056,3.8588,3.8423,3.822,3.8026,3.8231,3.8544,3.8789,3.9015,3.8895,3.8634,3.8427,3.8137,3.7853,3.7632,3.7563,3.7475,3.7177,3.6903,3.6819,3.736,3.7736,3.7796,3.8513,3.9102,3.9388,3.9251,3.9254,3.9395,3.9245,3.917,3.9145,3.8429,3.8015,3.804,3.799,3.799,3.8065,3.8404,3.868,3.8931,3.9272,3.9639,4.012,4.0235,4.0349,4.0731,4.0921,4.1047,4.1173,4.1388,4.1513,4.16,4.1574,4.1679,4.2085,4.224,4.2397,4.2477,4.267,4.2821,4.2958,4.2967,4.2831,4.2614,4.2114,4.1788,4.1613,4.1191,4.0827,4.08,4.061,4.0474,4.0501,4.0268,4.0198,4.0225,4.0187,4.0268,4.042,4.0447,4.0187,4.009,4.0625,4.0933,4.1089,4.178,4.2435,4.296,4.3429,4.3598,4.3628,4.3609,4.3509,4.3569,4.3778,4.4057,4.4337,4.4975,4.5813,4.0312,4.0312,4.0312,4.0312,4.0312,4.0312,4.0312,4.0312,4.0312,4.0312,4.0312,4.0312,4.0121,3.9896,3.9853,3.9569,3.9143,3.9084,3.8794,3.8353,3.8506,3.868,3.8738,3.9116,3.917,3.8918,3.8849,3.8688,3.8367,3.8197,3.8105,3.804,3.7708,3.742,3.7311,3.7603,3.7735,3.775,3.8306,3.8854,3.905,3.9258,3.949,3.9658,3.971,3.971,3.9622,3.8994,3.8617,3.8642,3.8642,3.8617,3.8668,3.9007,3.9284,3.9462,3.9727,4.0045,4.03,4.03,4.0581,4.0888,4.1143,4.14,4.1619,4.1862,4.1926,4.1939,4.1977,4.2108,4.2447,4.2602,4.2699,4.2824,4.3096,4.333,4.3478,4.3564,4.3455,4.3265,4.29,4.2602,4.2276,4.1815,4.1478,4.1423,4.1234,4.1113,4.1044,4.0745,4.0675,4.0621,4.0594,4.0583,4.0447,4.0311,4.0094,4.0153,4.0371,4.0363,4.0369,4.1561,4.2476,4.297,4.3429,4.3429,4.3449,4.3758,4.3818,4.4027,4.4446,4.5144,4.5743,4.6441,4.7219,4.0312,4.0312,4.0312,4.0312,4.0312,4.0312,4.0312,4.0312,4.0312,4.0312,4.0312,4.0312,4.029,4.029,4.0224,4.0006,3.9678,3.9612,3.935,3.9004,3.9026,3.9008,3.8769,3.9134,3.9303,3.9247,3.9262,3.9262,3.9101,3.8795,3.8634,3.8573,3.8149,3.7847,3.7821,3.7384,3.7326,3.7395,3.7506,3.7939,3.8346,3.8757,3.9253,3.9772,3.9798,3.9823,3.9798,3.971,3.9647,3.9672,3.9546,3.9534,3.9647,3.971,3.966,3.9736,3.976,3.9978,4.0146,4.0349,4.0669,4.1466,4.1647,4.2113,4.2541,4.2632,4.2723,4.2788,4.2827,4.2918,4.3049,4.3218,4.3413,4.3543,4.3705,4.4009,4.4511,4.4572,4.427,4.3848,4.3739,4.3549,4.2885,4.2331,4.2114,4.1978,4.1668,4.1505,4.1396,4.1423,4.1505,4.1423,4.13,4.1327,4.1354,4.1381,4.1218,4.1198,4.1167,4.0924,4.0693,4.1794,4.2931,4.3358,4.3688,4.3569,4.3838,4.4446,4.4785,4.5055,4.5713,4.652,4.716,4.7698,4.8297,4.0312,4.0312,4.0312,4.0312,4.0312,4.0312,4.0312,4.0312,4.0312,4.0312,4.0312,4.0312,4.0312,4.0312,4.0312,4.0224,4.0115,4.0093,3.9869,3.9501,3.9664,3.9602,3.9341,3.9409,3.9437,3.9341,3.9333,3.9308,3.9308,3.9147,3.9093,3.9087,3.869,3.8476,3.8375,3.8332,3.8328,3.8363,3.9097,3.9264,3.9189,3.9696,4.0116,4.0247,4.0287,4.0287,4.0287,4.0287,4.0074,3.9722,3.971,3.971,3.9772,3.9785,3.9948,4.0236,4.0325,4.0514,4.0856,4.0958,4.1125,4.1371,4.1688,4.1924,4.2342,4.2617,4.2775,4.2932,4.2997,4.3219,4.3572,4.3743,4.4045,4.4573,4.4345,4.4213,4.4378,4.4525,4.4447,4.3929,4.3835,4.3512,4.3103,4.2753,4.2602,4.2575,4.2451,4.2276,4.2141,4.2059,4.2114,4.2276,4.2261,4.2304,4.2358,4.2424,4.2424,4.2424,4.2375,4.2274,4.2191,4.2617,4.3676,4.4476,4.4845,4.4845,4.5463,4.6132,4.6221,4.6132,4.7059,4.7897,4.8087,4.8517,4.9134,4.047,4.0585,4.0585,4.0492,4.0334,4.0312,4.0312,4.0312,4.0312,4.0312,4.0312,4.0312,4.0312,4.0312,4.0312,4.0312,4.0312,4.0312,4.0159,3.9956,4.0052,3.9945,3.9736,3.9664,3.962,3.953,3.9452,3.9429,3.9405,3.9349,3.9293,3.927,3.9093,3.8971,3.888,3.8779,3.8715,3.8712,3.9316,3.9571,3.9631,4.0171,4.0586,4.0746,4.0826,4.0826,4.0826,4.0851,4.0588,4.0211,4.0236,4.0349,4.0362,4.0375,4.0538,4.0826,4.0864,4.0988,4.1227,4.1289,4.1482,4.1793,4.2018,4.2428,4.297,4.3235,4.3422,4.3701,4.3702,4.3912,4.4121,4.4239,4.4489,4.4781,4.4758,4.4661,4.4765,4.4988,4.4846,4.4424,4.4007,4.3706,4.3286,4.2978,4.2843,4.2849,4.2831,4.2804,4.2777,4.275,4.2885,4.3172,4.3443,4.3579,4.37,4.3781,4.3673,4.3645,4.3712,4.3614,4.3828,4.3937,4.4744,4.5641,4.5917,4.6262,4.67,4.7089,4.7189,4.7459,4.8405,4.8944,4.9105,4.9194,4.9841,4.0783,4.1087,4.1087,4.0825,4.0509,4.0405,4.0427,4.0399,4.0334,4.0312,4.0312,4.0312,4.0312,4.0312,4.0312,4.0312,4.0312,4.0312,4.0312,4.0246,4.0267,4.0108,3.9915,3.9833,3.9783,3.975,3.9665,3.9598,3.9537,3.9405,3.931,3.9301,3.9293,3.9293,3.917,3.8901,3.8703,3.877,3.9013,3.9281,3.9654,4.0208,4.0769,4.1108,4.1389,4.1403,4.1416,4.1391,4.119,4.0727,4.1076,4.1163,4.1214,4.1264,4.1352,4.1391,4.1416,4.1453,4.1528,4.1654,4.1824,4.2431,4.2587,4.3079,4.3795,4.4023,4.4159,4.4459,4.4695,4.4604,4.4616,4.4669,4.4682,4.479,4.494,4.5221,4.5462,4.5569,4.5462,4.507,4.4286,4.389,4.3527,4.3129,4.2655,4.3082,4.317,4.3399,4.3503,4.3618,4.3959,4.4474,4.4719,4.4936,4.5044,4.5165,4.5003,4.4917,4.5047,4.512,4.5588,4.5845,4.6277,4.6785,4.7098,4.7189,4.7209,4.7538,4.7997,4.8327,4.8974,4.9561,5.0009,5.0009,5.0398,4.1479,4.1563,4.1546,4.1481,4.1344,4.1022,4.0847,4.0804,4.0449,4.0312,4.0312,4.0312,4.0312,4.0312,4.0312,4.0312,4.0312,4.0312,4.0312,4.0312,4.0312,4.0295,4.0148,4.0021,3.9897,3.984,3.98,3.9693,3.9628,3.9583,3.946,3.9333,3.9318,3.9308,3.9285,3.9193,3.9147,3.9227,3.957,3.9597,3.967,4.0424,4.1009,4.1299,4.175,4.1996,4.2009,4.2009,4.1934,4.1783,4.1555,4.1453,4.1428,4.1403,4.1592,4.192,4.2034,4.2171,4.2523,4.2534,4.2688,4.2821,4.2902,4.3222,4.3848,4.3996,4.4217,4.4585,4.4721,4.4721,4.4721,4.4721,4.4721,4.4748,4.4802,4.487,4.4952,4.5301,4.5289,4.4849,4.4223,4.3649,4.3307,4.3145,4.3009,4.3274,4.3589,4.3978,4.4159,4.4284,4.4746,4.518,4.5451,4.5573,4.5763,4.5853,4.5815,4.5839,4.6067,4.672,4.7166,4.7317,4.7624,4.7922,4.823,4.8237,4.8087,4.8723,4.9291,4.9452,4.9374,4.9692,5.0009,5.0338,5.0667,4.164,4.1793,4.1793,4.1743,4.16,4.103,4.0834,4.088,4.0514,4.0312,4.0312,4.0312,4.0312,4.0312,4.0312,4.0312,4.0312,4.0312,4.0312,4.0312,4.0312,4.0312,4.029,4.0201,4.0118,4.0028,3.9932,3.9838,3.9792,3.9723,3.9598,3.9445,3.9414,3.9366,3.9316,3.9316,3.9285,3.9329,3.9594,3.9747,3.9919,4.0331,4.114,4.1629,4.2216,4.2562,4.2576,4.2587,4.2576,4.2487,4.2272,4.2108,4.2094,4.2108,4.2258,4.2473,4.2576,4.2663,4.2939,4.3,4.2975,4.3,4.3,4.3348,4.372,4.3886,4.4148,4.4558,4.4721,4.4721,4.4721,4.4721,4.4721,4.4721,4.4721,4.4721,4.4749,4.4979,4.5155,4.4798,4.4322,4.412,4.3812,4.3438,4.3316,4.3562,4.3687,4.4009,4.4224,4.4433,4.5057,4.5518,4.5844,4.6101,4.6318,4.6432,4.645,4.6578,4.6875,4.7836,4.8764,4.8775,4.8738,4.8996,4.9254,4.9116,4.9134,4.9871,4.977,4.9213,4.9015,4.9464,4.9871,5.0219,5.0596,4.1532,4.1912,4.1982,4.1951,4.1738,4.1084,4.0995,4.1142,4.0645,4.0487,4.0383,4.0361,4.0312,4.0312,4.0312,4.0312,4.0312,4.0312,4.0312,4.0312,4.0312,4.0312,4.029,4.0301,4.0273,4.0284,4.0154,4.0033,3.9949,3.9877,3.9757,3.965,3.962,3.9538,3.9414,3.9357,3.9373,3.9411,3.9392,3.9535,3.9928,4.0167,4.0861,4.1917,4.2396,4.2774,4.2858,4.2925,4.295,4.3,4.3,4.3,4.3,4.3,4.3,4.2975,4.2939,4.2964,4.295,4.3,4.3,4.3,4.307,4.3321,4.3748,4.4021,4.4348,4.4725,4.5008,4.5153,4.4996,4.4956,4.4943,4.4852,4.4799,4.4721,4.4721,4.4721,4.4844,4.49,4.4414,4.4072,4.4121,4.3944,4.3875,4.3841,4.3968,4.4136,4.4408,4.4785,4.5464,4.5817,4.6156,4.6264,4.6454,4.6236,4.635,4.6699,4.7109,4.8176,4.928,4.8952,4.8756,4.9839,5.011,4.9714,4.9295,4.9273,4.9033,4.8547,4.8757,4.9355,4.9763,5.0088,5.0446,4.1564,4.2017,4.2368,4.2478,4.2414,4.2153,4.2012,4.1993,4.1219,4.0891,4.0809,4.047,4.0312,4.0312,4.0312,4.0312,4.0312,4.0312,4.0312,4.0312,4.0312,4.0312,4.0312,4.0312,4.0312,4.0296,4.024,4.0172,4.0046,3.9968,3.9906,3.9799,3.9764,3.9698,3.9656,3.9605,3.9545,3.956,3.9533,3.9632,3.9794,4.0288,4.0961,4.2092,4.2393,4.2675,4.2983,4.3039,4.3,4.3,4.3,4.3039,4.3118,4.3118,4.3132,4.3014,4.3092,4.3171,4.3157,4.3132,4.3053,4.3056,4.3338,4.3577,4.3923,4.4197,4.4742,4.5328,4.5846,4.6147,4.6187,4.5715,4.5492,4.5348,4.506,4.4799,4.4773,4.4734,4.4748,4.479,4.4345,4.4071,4.4283,4.4372,4.4274,4.4397,4.4698,4.4947,4.5253,4.5602,4.6128,4.6318,4.6387,4.6454,4.6509,4.6101,4.597,4.6309,4.6805,4.7502,4.8272,4.8255,4.8654,4.9821,4.9901,4.9206,4.8895,4.8944,4.8805,4.8667,4.8977,4.9337,4.9703,5.0069,5.0267,4.1295,4.1753,4.2141,4.2423,4.2512,4.2276,4.2231,4.2233,4.142,4.0984,4.0869,4.0536,4.0312,4.0312,4.0312,4.0312,4.0312,4.0312,4.0312,4.0312,4.0312,4.0312,4.0328,4.0328,4.0312,4.0312,4.029,4.0267,4.0177,4.0172,4.0062,3.9914,3.9897,3.9864,3.9812,3.9729,3.9746,3.9763,4.0098,4.0328,4.0409,4.1096,4.1962,4.2315,4.2598,4.2954,4.3464,4.3132,4.3249,4.3577,4.3681,4.3681,4.3785,4.3956,4.3903,4.3327,4.3445,4.3681,4.3799,4.4035,4.4376,4.4404,4.4441,4.4649,4.4913,4.5214,4.5462,4.5931,4.6226,4.6527,4.6449,4.6212,4.6107,4.5976,4.5544,4.5217,4.5087,4.4878,4.4852,4.4825,4.4631,4.4569,4.4678,4.4719,4.4612,4.4862,4.5338,4.5616,4.5921,4.6175,4.6416,4.6509,4.6481,4.6373,4.6427,4.621,4.5894,4.6141,4.6722,4.7415,4.8093,4.8444,4.9056,4.9958,4.9519,4.9194,4.9333,4.965,4.9213,4.8876,4.9187,4.9486,4.9763,5.0009,5.0297,4.0864,4.1402,4.1753,4.2089,4.2288,4.2071,4.2077,4.2141,4.153,4.115,4.0949,4.064,4.0405,4.0334,4.0312,4.0312,4.0312,4.0312,4.0312,4.0312,4.0312,4.0328,4.0409,4.0409,4.0474,4.0637,4.0604,4.0426,4.0279,4.0279,4.0195,4.0104,4.0074,4.0031,3.9926,4.0192,4.0078,4.0422,4.1045,4.1578,4.1837,4.24,4.2962,4.3063,4.3116,4.355,4.426,4.3933,4.3964,4.4362,4.4574,4.4549,4.4679,4.5221,4.4917,4.3942,4.4232,4.4469,4.4733,4.505,4.5315,4.5289,4.5585,4.5768,4.5936,4.6026,4.6389,4.66,4.6853,4.6972,4.7024,4.6749,4.6696,4.6566,4.6172,4.574,4.5675,4.5532,4.5375,4.5257,4.5048,4.5001,4.5086,4.4996,4.4904,4.5036,4.5461,4.5579,4.5857,4.6083,4.6324,4.6469,4.6454,4.6291,4.6291,4.6414,4.6178,4.6194,4.6956,4.7781,4.85,4.9139,4.9762,5.0319,5.0405,5.0189,5.0297,5.0088,4.9602,4.9355,4.9445,4.9744,5.026,5.0488,5.0667,4.0169,4.1007,4.1419,4.1579,4.1703,4.1898,4.2021,4.2037,4.1857,4.1533,4.1121,4.0943,4.0651,4.0377,4.0312,4.0312,4.0312,4.0312,4.0312,4.0312,4.0312,4.0426,4.0647,4.0744,4.0744,4.0864,4.1009,4.0831,4.0523,4.0393,4.0355,4.0327,4.0347,4.0234,4.0304,4.0677,4.1295,4.1406,4.2101,4.2604,4.2694,4.2905,4.3247,4.3536,4.3711,4.4078,4.4828,4.473,4.4924,4.5297,4.546,4.546,4.5474,4.5514,4.5554,4.5354,4.5394,4.546,4.5514,4.5754,4.5914,4.5997,4.6005,4.599,4.6325,4.6794,4.7131,4.7214,4.7597,4.7821,4.769,4.7452,4.7295,4.7034,4.6734,4.6473,4.633,4.6043,4.5886,4.5938,4.5794,4.5526,4.5415,4.5299,4.5208,4.5369,4.5529,4.5648,4.582,4.6085,4.6284,4.6456,4.6509,4.6373,4.6318,4.64,4.6449,4.6343,4.7166,4.8073,4.8796,4.9484,5.023,5.0685,5.0838,5.0727,5.035,5.0021,4.9793,4.9883,5.0092,5.0481,5.0978,5.1068,5.0996,3.9892,4.0563,4.1205,4.149,4.1544,4.1841,4.2141,4.2245,4.2016,4.1731,4.1424,4.1118,4.0738,4.0361,4.0312,4.0312,4.0312,4.0312,4.0312,4.0312,4.0328,4.0377,4.0474,4.0517,4.0615,4.0744,4.0766,4.0718,4.0588,4.0761,4.0864,4.0847,4.0831,4.0755,4.0653,4.0909,4.0938,4.1262,4.2203,4.3311,4.3832,4.4188,4.4433,4.4684,4.441,4.4771,4.5247,4.5208,4.5468,4.5895,4.6196,4.634,4.649,4.6772,4.708,4.7065,4.7065,4.6864,4.6501,4.6783,4.6904,4.704,4.7141,4.7305,4.7334,4.7496,4.7792,4.7832,4.8015,4.8187,4.8187,4.7963,4.7885,4.7649,4.7257,4.71,4.6891,4.6566,4.6397,4.6475,4.6501,4.6261,4.595,4.574,4.5505,4.5324,4.5567,4.5769,4.5928,4.6126,4.6311,4.6495,4.6509,4.6481,4.6454,4.6495,4.6625,4.668,4.7361,4.823,4.9005,4.9744,5.043,5.0899,5.1046,5.0769,5.0331,5.0361,5.0469,5.0619,5.0757,5.0966,5.1187,5.1187,5.1116,3.9875,4.0276,4.1036,4.1366,4.1366,4.1629,4.1792,4.1924,4.1817,4.1495,4.1116,4.0773,4.047,4.0345,4.0312,4.0312,4.0312,4.0312,4.0312,4.0312,4.0328,4.0377,4.0469,4.0453,4.0523,4.0523,4.075,4.0783,4.0955,4.1116,4.1212,4.1277,4.1203,4.1132,4.1067,4.1328,4.1546,4.1922,4.2934,4.3962,4.4722,4.516,4.5425,4.5484,4.5386,4.5353,4.5906,4.5802,4.6003,4.6473,4.6777,4.6867,4.6977,4.7297,4.7581,4.761,4.7654,4.7579,4.738,4.7571,4.8091,4.8187,4.8187,4.7986,4.8053,4.8187,4.8187,4.812,4.8161,4.8187,4.8187,4.8161,4.812,4.7989,4.7794,4.7635,4.7464,4.7205,4.7115,4.726,4.7219,4.6958,4.666,4.6304,4.5926,4.5458,4.5521,4.5887,4.6196,4.6503,4.6784,4.7039,4.6889,4.6889,4.682,4.6806,4.6855,4.7087,4.7731,4.8412,4.9202,4.9897,5.0567,5.0911,5.1272,5.1068,5.078,5.1008,5.1217,5.1086,5.0996,5.1086,5.1217,5.1217,5.1259,4.0164,4.0244,4.0749,4.0972,4.0972,4.0972,4.0779,4.0737,4.115,4.0702,3.99,3.9756,4.0072,4.0214,4.0296,4.0312,4.0312,4.0312,4.0312,4.0312,4.0328,4.0458,4.0534,4.0647,4.0793,4.1025,4.0944,4.1009,4.1219,4.1132,4.1245,4.1293,4.1373,4.1331,4.1444,4.179,4.2404,4.2878,4.3724,4.4299,4.4915,4.5345,4.5653,4.6095,4.619,4.636,4.6685,4.6552,4.658,4.6993,4.7085,4.7129,4.7188,4.732,4.7442,4.7486,4.7677,4.7684,4.7702,4.7893,4.8117,4.8187,4.8187,4.8187,4.8187,4.8187,4.8187,4.8187,4.8187,4.8187,4.8187,4.8187,4.8187,4.8134,4.803,4.7989,4.7911,4.7937,4.7873,4.803,4.7899,4.7559,4.7428,4.706,4.6499,4.6018,4.6123,4.6455,4.6999,4.7338,4.7636,4.7758,4.7513,4.7405,4.7296,4.7281,4.7239,4.7565,4.815,4.8764,4.9399,5.008,5.1099,5.1387,5.1768,5.1487,5.1337,5.1636,5.1726,5.1367,5.1217,5.1217,5.1217,5.1217,5.1301,4.0368,4.0672,4.0817,4.09,4.09,4.09,4.0939,4.0985,4.0973,4.0527,3.9689,3.973,3.9789,3.9969,4.023,4.0312,4.0312,4.0312,4.0312,4.0312,4.0344,4.0393,4.0485,4.0517,4.055,4.0702,4.0734,4.0825,4.0955,4.0987,4.1325,4.147,4.1534,4.1614,4.1806,4.1854,4.2236,4.272,4.3475,4.4175,4.4469,4.5489,4.6019,4.624,4.6311,4.6346,4.6481,4.6691,4.6825,4.6974,4.7087,4.7131,4.7146,4.7161,4.7146,4.7205,4.7457,4.7619,4.7747,4.7982,4.8172,4.8187,4.8187,4.8187,4.8187,4.8187,4.8187,4.8187,4.8187,4.8187,4.8187,4.8187,4.8187,4.8187,4.8187,4.8187,4.8187,4.8187,4.8187,4.8134,4.8134,4.8004,4.7911,4.7832,4.7219,4.6646,4.6821,4.7088,4.7624,4.7954,4.8159,4.8257,4.8001,4.7907,4.7812,4.7717,4.7621,4.8085,4.8569,4.9272,4.9999,5.1103,5.1933,5.2149,5.2318,5.2288,5.2306,5.2396,5.2217,5.1768,5.1427,5.1217,5.1217,5.1349,5.1629,4.0593,4.0879,4.09,4.09,4.09,4.09,4.096,4.1023,4.0724,4.0268,3.9682,3.9507,3.9543,3.974,3.9969,4.023,4.0263,4.0312,4.0312,4.0312,4.0312,4.0312,4.0312,4.0328,4.0377,4.0312,4.0328,4.0453,4.0631,4.0647,4.1019,4.1405,4.1662,4.1694,4.1886,4.1749,4.1678,4.222,4.2847,4.3973,4.436,4.5291,4.6135,4.621,4.6311,4.6286,4.6361,4.6496,4.6611,4.6691,4.677,4.6879,4.6909,4.6949,4.6949,4.7057,4.7279,4.7556,4.7659,4.7938,4.8157,4.8187,4.8187,4.8187,4.8187,4.8187,4.8187,4.8187,4.8187,4.8187,4.8187,4.8187,4.8187,4.8187,4.8187,4.8187,4.8187,4.8187,4.8187,4.8187,4.8187,4.8187,4.812,4.8056,4.7922,4.7493,4.7705,4.7894,4.8177,4.8388,4.8405,4.8452,4.8362,4.8337,4.8326,4.8246,4.8204,4.8511,4.9108,4.999,5.0845,5.1879,5.2553,5.2723,5.2887,5.3139,5.3109,5.2917,5.2528,5.2067,5.1917,5.1876,5.2115,5.2318,5.2479,4.0879,4.09,4.09,4.09,4.09,4.09,4.0711,4.045,4.0191,3.9761,3.9198,3.8913,3.9094,3.9527,3.9675,3.9904,4.0165,4.023,4.0279,4.0296,4.0312,4.0312,4.0312,4.0312,4.0312,4.0312,4.0312,4.0344,4.0377,4.0409,4.0783,4.1267,4.1534,4.1742,4.2227,4.2275,4.2585,4.3137,4.3247,4.4066,4.4776,4.5312,4.5868,4.6165,4.6311,4.6311,4.6316,4.6331,4.6431,4.6436,4.6436,4.6481,4.6466,4.6451,4.6436,4.6451,4.6934,4.7191,4.7279,4.7865,4.8128,4.8187,4.8187,4.8187,4.8187,4.8187,4.8187,4.8187,4.8187,4.8187,4.8187,4.8187,4.8187,4.8187,4.8187,4.8187,4.8187,4.8187,4.8187,4.8187,4.8187,4.8187,4.8187,4.8216,4.8361,4.8372,4.8582,4.8688,4.866,4.8695,4.8631,4.8651,4.8633,4.8749,4.8769,4.8777,4.8817,4.9126,4.9718,5.0682,5.1374,5.2126,5.2721,5.3128,5.3528,5.3857,5.3588,5.3258,5.3186,5.3186,5.2917,5.2899,5.3109,5.3158,5.3164,4.09,4.09,4.09,4.09,4.09,4.09,4.0797,4.0569,3.9986,3.9274,3.8678,3.8598,3.8764,3.9045,3.933,3.9576,3.9855,3.9904,3.9969,4.0279,4.0312,4.0312,4.0312,4.0312,4.0312,4.0312,4.0312,4.0312,4.0328,4.0312,4.0702,4.1203,4.1701,4.2068,4.2243,4.2307,4.2466,4.2798,4.342,4.4237,4.47,4.5443,4.6029,4.6271,4.6311,4.6311,4.6311,4.6311,4.6311,4.6311,4.6311,4.6311,4.6311,4.6311,4.6311,4.6346,4.6751,4.7127,4.7468,4.7953,4.8157,4.8187,4.8187,4.8187,4.8187,4.8187,4.8187,4.8187,4.8187,4.8187,4.8187,4.8187,4.8187,4.8187,4.8187,4.8187,4.8187,4.8187,4.8187,4.8187,4.8187,4.8187,4.8187,4.8187,4.8329,4.8359,4.8446,4.8431,4.8401,4.8589,4.8664,4.8764,4.8828,4.9073,4.9182,4.9237,4.9515,4.9858,5.061,5.1589,5.221,5.2484,5.3147,5.3726,5.4176,5.4516,5.4306,5.4186,5.4456,5.4443,5.3964,5.3545,5.3492,5.3511,5.3482,4.09,4.09,4.09,4.09,4.09,4.09,4.0735,4.0365,3.9747,3.9002,3.8382,3.8437,3.8598,3.8731,3.8929,3.9193,3.9527,3.9675,3.9757,4.0116,4.0263,4.0296,4.0312,4.0312,4.0312,4.0312,4.0312,4.0312,4.0312,4.0312,4.0685,4.1299,4.1941,4.2196,4.2307,4.2307,4.2482,4.2854,4.3521,4.4144,4.4746,4.5428,4.6014,4.621,4.6311,4.6311,4.6311,4.6311,4.6311,4.6311,4.6311,4.6311,4.6311,4.6311,4.6311,4.6401,4.6736,4.7172,4.763,4.7982,4.8157,4.8187,4.8187,4.8187,4.8187,4.8187,4.8187,4.8187,4.8187,4.8187,4.8187,4.8187,4.8187,4.8187,4.8187,4.8187,4.8187,4.8187,4.8187,4.8187,4.8187,4.8187,4.8187,4.8187,4.8216,4.8201,4.8201,4.8187,4.8187,4.8402,4.8577,4.8649,4.8794,4.8973,4.9362,4.9805,5.0115,5.0586,5.1279,5.2017,5.2432,5.2649,5.3509,5.4226,5.437,5.4603,5.4979,5.5132,5.5012,5.4862,5.4563,5.4204,5.3935,5.3966,5.4082,4.09,4.09,4.09,4.09,4.09,4.09,4.0386,3.9564,3.9523,3.8985,3.8208,3.8225,3.837,3.8632,3.8681,3.888,3.9214,3.9494,3.9675,3.9855,4.0149,4.0247,4.0312,4.0312,4.0312,4.0312,4.0312,4.0312,4.0328,4.0507,4.0847,4.1315,4.1972,4.2227,4.2307,4.2355,4.2561,4.2886,4.331,4.3989,4.4746,4.5236,4.5777,4.609,4.6311,4.6311,4.6311,4.6311,4.6311,4.6311,4.6311,4.6311,4.6311,4.6311,4.6311,4.6451,4.6859,4.7279,4.7589,4.7924,4.8143,4.8187,4.8187,4.8187,4.8187,4.8187,4.8187,4.8187,4.8187,4.8187,4.8187,4.8187,4.8187,4.8187,4.8187,4.8187,4.8187,4.8187,4.8187,4.8187,4.8187,4.8187,4.8187,4.8187,4.8187,4.8187,4.8187,4.8187,4.8187,4.8187,4.8344,4.8373,4.8533,4.8765,4.9226,4.9712,5.0221,5.0516,5.1169,5.1868,5.2274,5.2743,5.3393,5.3929,5.4239,5.459,5.504,5.5222,5.5192,5.5012,5.4862,5.4803,5.4533,5.4808,5.4997,4.09,4.09,4.09,4.09,4.09,4.09,4.0365,3.9564,3.9482,3.9023,3.8208,3.8208,3.8271,3.8337,3.8337,3.857,3.8847,3.9198,3.9494,3.9773,4.01,4.0247,4.0312,4.0312,4.0312,4.0312,4.0312,4.0328,4.0442,4.0669,4.0993,4.1373,4.1972,4.2227,4.2307,4.2323,4.2506,4.2744,4.3122,4.3818,4.4576,4.5068,4.5626,4.6105,4.6286,4.6311,4.6311,4.6311,4.6311,4.6311,4.6311,4.6311,4.6311,4.6311,4.6286,4.6361,4.6815,4.7265,4.7412,4.788,4.8172,4.8172,4.8187,4.8187,4.8187,4.8187,4.8187,4.8187,4.8187,4.8187,4.8187,4.8187,4.8187,4.8187,4.8187,4.8187,4.8187,4.8187,4.8187,4.8187,4.8187,4.8187,4.8187,4.8187,4.8187,4.8187,4.8187,4.8187,4.8187,4.8187,4.8187,4.8242,4.8315,4.8562,4.8895,4.9356,4.9953,5.0516,5.11,5.165,5.2085,5.2596,5.3224,5.3802,5.4346,5.4743,5.5116,5.5222,5.5222,5.5222,5.5102,5.5162,5.5217,5.5305,5.5355,4.09,4.09,4.09,4.09,4.09,4.09,4.043,3.9813,3.9585,3.9068,3.846,3.8253,3.8208,3.8225,3.8225,3.832,3.852,3.9033,3.9346,3.9543,4.0051,4.0247,4.0312,4.0312,4.0312,4.0312,4.0312,4.0312,4.0491,4.0928,4.1277,4.1364,4.1972,4.2227,4.2386,4.2577,4.2728,4.2886,4.3169,4.3678,4.4314,4.4976,4.5611,4.615,4.6271,4.6311,4.6311,4.6311,4.6311,4.6311,4.6311,4.6311,4.6311,4.6311,4.6311,4.6376,4.6721,4.7068,4.7265,4.7663,4.7997,4.8157,4.8187,4.8187,4.8187,4.8187,4.8187,4.8187,4.8187,4.8187,4.8187,4.8187,4.8187,4.8187,4.8187,4.8187,4.8187,4.8187,4.8187,4.8187,4.8187,4.8187,4.8187,4.8187,4.8187,4.8187,4.8187,4.8187,4.8187,4.8187,4.8187,4.8187,4.8257,4.8373,4.8721,4.9055,4.9627,5.0221,5.0795,5.1335,5.184,5.2489,5.3158,5.388,5.459,5.4938,5.5222,5.5222,5.5222,5.5222,5.5222,5.5222,5.5222,5.5217,5.5242,4.0859,4.09,4.09,4.09,4.09,4.0838,4.0551,4.0143,3.9626,3.9213,3.8758,3.8402,3.827,3.8229,3.8208,3.8208,3.8437,3.8835,3.9144,3.921,3.9855,4.0182,4.0296,4.0312,4.0312,4.0312,4.0312,4.0328,4.0507,4.089,4.1293,4.1364,4.1972,4.2291,4.2371,4.2886,4.3106,4.3185,4.3537,4.4051,4.4484,4.5037,4.5595,4.6165,4.6311,4.6311,4.6311,4.6311,4.6311,4.6311,4.6311,4.6311,4.6311,4.6311,4.6311,4.6416,4.6661,4.6934,4.7231,4.756,4.788,4.807,4.8187,4.8187,4.8187,4.8187,4.8187,4.8187,4.8187,4.8187,4.8187,4.8187,4.8187,4.8187,4.8187,4.8187,4.8187,4.8187,4.8187,4.8187,4.8187,4.8213,4.8239,4.8265,4.8538,4.8396,4.85,4.8553,4.8396,4.8396,4.8265,4.8265,4.8227,4.83,4.8518,4.8868,4.9328,4.9883,5.0474,5.11,5.1677,5.2355,5.3089,5.3877,5.4679,5.4976,5.5222,5.5222,5.5222,5.5222,5.5222,5.5222,5.5222,5.5222,5.5222,4.0593,4.09,4.09,4.09,4.0838,4.0507,4.0323,4.0123,3.9316,3.8927,3.8782,3.8675,3.8481,3.8229,3.8208,3.8208,3.8341,3.8653,3.8929,3.921,3.9691,4.0051,4.0263,4.0279,4.0312,4.0312,4.0312,4.0328,4.0458,4.0912,4.1309,4.1396,4.1956,4.2291,4.2371,4.298,4.3396,4.3475,4.4314,4.473,4.5068,4.522,4.5586,4.6075,4.6311,4.6311,4.6311,4.6311,4.6311,4.6311,4.6311,4.6311,4.6311,4.6311,4.6311,4.6371,4.6596,4.6885,4.7187,4.7471,4.7792,4.8055,4.8187,4.8187,4.8187,4.8187,4.8187,4.8187,4.8187,4.8187,4.8187,4.8187,4.8187,4.8187,4.8187,4.8187,4.8187,4.8187,4.8187,4.8187,4.8187,4.8239,4.8291,4.8474,4.8773,4.9061,4.9389,4.9442,4.9076,4.8893,4.85,4.8422,4.8265,4.8326,4.8446,4.8649,4.9041,4.9556,5.0137,5.0809,5.1527,5.241,5.3248,5.4019,5.4705,5.4938,5.5091,5.5222,5.5222,5.5222,5.5222,5.5222,5.5222,5.5222,5.5222,4.0161,4.0593,4.0817,4.09,4.0817,4.0406,4.0202,4.0061,3.942,3.8968,3.8762,3.8613,3.8419,3.8208,3.8208,3.8229,3.8295,3.857,3.8764,3.9045,3.9509,3.9773,4.0002,4.0263,4.0296,4.0312,4.0312,4.0344,4.0486,4.0928,4.1331,4.1428,4.1941,4.2323,4.245,4.3122,4.3678,4.3833,4.5006,4.5565,4.5671,4.5762,4.5853,4.624,4.6311,4.6311,4.6311,4.6311,4.6311,4.6311,4.6311,4.6311,4.6311,4.6311,4.6311,4.6356,4.6521,4.6766,4.7112,4.7398,4.7718,4.7997,4.8187,4.8187,4.8187,4.8187,4.8187,4.8187,4.8187,4.8187,4.8187,4.8187,4.8187,4.8187,4.8187,4.8187,4.8187,4.8187,4.8187,4.8187,4.8187,4.8213,4.8239,4.8265,4.8527,4.8553,4.9049,4.9232,4.9076,4.9232,4.8866,4.8579,4.8448,4.8291,4.8286,4.846,4.8721,4.9242,4.9975,5.0683,5.1542,5.2546,5.3432,5.4101,5.4558,5.4735,5.4888,5.5295,5.5251,5.5222,5.5222,5.5222,5.5251,5.5371,5.5491,3.9688,4.0143,4.0613,4.0797,4.0717,4.0306,4.0099,3.9978,3.9523,3.913,3.8803,3.8464,3.8274,3.8208,3.8374,3.8332,3.8441,3.8795,3.8875,3.9158,3.9557,3.9967,4.0211,4.0317,4.0514,4.0629,4.0662,4.0618,4.0634,4.1155,4.1504,4.1537,4.1861,4.2307,4.2665,4.3357,4.3989,4.4252,4.5031,4.5893,4.6135,4.6281,4.6281,4.6296,4.6311,4.6311,4.6311,4.6311,4.6311,4.6311,4.6311,4.6311,4.6311,4.6311,4.6311,4.6341,4.6341,4.6661,4.6993,4.7205,4.76,4.7924,4.8125,4.8213,4.8239,4.8239,4.8239,4.8344,4.8344,4.8239,4.8239,4.8239,4.8239,4.8396,4.8396,4.8448,4.8448,4.8396,4.8344,4.8344,4.8291,4.8291,4.8265,4.8265,4.8344,4.8332,4.8358,4.8344,4.85,4.8919,4.8997,4.8788,4.8657,4.8474,4.837,4.8446,4.8703,4.9612,5.0383,5.0885,5.1488,5.237,5.3228,5.4044,5.4423,5.4896,5.5338,5.5812,5.5641,5.5521,5.576,5.594,5.588,5.6,5.6,3.9213,3.9668,4.0123,4.0347,4.0264,3.9833,3.9647,3.9502,3.8837,3.8564,3.8799,3.8741,3.853,3.8253,3.9002,3.9068,3.8771,3.9076,3.953,3.9904,3.9863,4.0286,4.0635,4.077,4.1115,4.1227,4.1269,4.1319,4.1161,4.1555,4.1816,4.1749,4.2041,4.2344,4.2464,4.3129,4.3687,4.4055,4.4755,4.557,4.581,4.5968,4.6266,4.6311,4.6311,4.6311,4.6311,4.6311,4.6311,4.6311,4.6311,4.6311,4.6311,4.6311,4.6351,4.6527,4.6487,4.6833,4.7178,4.7457,4.7884,4.8125,4.8327,4.8422,4.8422,4.8422,4.8553,4.884,4.8762,4.8474,4.8422,4.8396,4.8448,4.8919,4.9128,4.9285,4.9389,4.9128,4.8919,4.8788,4.8605,4.8553,4.8448,4.8605,4.8919,4.8997,4.9232,4.918,4.8814,4.8971,4.9128,4.8919,4.8762,4.8945,4.8919,4.8724,4.9009,4.9946,5.0593,5.0856,5.1317,5.2058,5.2879,5.3658,5.4783,5.5548,5.5972,5.6149,5.6436,5.6419,5.6645,5.6795,5.6688,5.6598,5.6598]},{"header":{"parameterUnit":"m.s-1","parameterCategory":1,"la1":31.0,"la2":29.5877,"lo1":-88.7671,"lo2":-86.6584,"dy":0.0162,"dx":0.0185,"nx":115,"ny":88,"refTime":"2025-04-13T12:00:00:Z","depth":0,"parameterNumber":3,"parameterNumberName":"V-component_of_WINDS"},"data":[0.0,0.0,0.0,0.0,0.0,0.0,0.0,0.0,0.0,0.0,0.0,0.0,0.0,0.0,0.0,0.0,0.0,0.0,0.0,0.0,0.0,0.0,0.0,0.0,0.0,0.0,0.0,0.0,0.0,0.0,0.0,0.0,0.0,0.0,0.0,0.0,0.0,0.0,0.0,0.0,0.0,0.0,0.0,0.0,0.0,0.0,0.0,0.0,0.0,0.0,0.0,0.0,0.0,0.0,0.0,0.0,0.0,0.0,0.0,0.0,0.0,0.0,0.0,0.0,0.0,0.0,0.0,0.0,0.0,0.0,0.0,0.0,0.0,0.0,0.0,0.0,0.0,0.0,0.0,0.0,0.0,0.0,0.0,0.0,0.0,0.0,0.0,0.0,0.0,0.0,0.0,0.0,0.0,0.0,0.0,0.0,0.0,0.0,0.0,0.0,0.0,0.0,0.0,0.0,0.0,0.0,0.0,0.0,0.0,0.0,0.0,0.0,0.0,0.0,0.0,0.0,0.0,0.0,0.0,0.0,0.0,0.0,0.0,0.0,0.0,0.0,0.0,0.0,0.0,0.0,0.0,0.0,0.0,0.0,0.0,0.0,0.0,0.0,0.0,0.0,0.0,0.0,0.0,0.0,0.0,0.0,0.0,0.0,0.0,0.0,0.0,0.0,0.0,0.0,0.0,0.0,0.0,0.0,0.0,0.0,0.0,0.0,0.0,0.0,0.0,0.0,0.0,0.0,0.0,0.0,0.0,0.0,0.0,0.0,0.0,0.0,0.0,0.0,0.0,0.0,0.0,0.0,0.0,0.0,0.0,0.0,0.0,0.0,0.0,0.0,0.0,0.0,0.0,0.0,0.0,0.0,0.0,0.0,0.0,0.0,0.0,0.0,0.0,0.0,0.0,0.0,0.0,0.0,0.0,0.0,0.0,0.0,0.0,0.0,0.0,0.0,0.0,0.0,0.0,0.0,0.0,0.0,0.0,0.0,0.0,0.0,0.0,0.0,0.0,0.0,0.0,0.0,0.0,0.0,0.0,0.0,0.0,0.0,0.0,0.0,0.0,0.0,0.0,0.0,0.0,0.0,0.0,0.0,0.0,0.0,0.0,0.0,0.0,0.0,0.0,0.0,0.0,0.0,0.0,0.0,0.0,0.0,0.0,0.0,0.0,0.0,0.0,0.0,0.0,0.0,0.0,0.0,0.0,0.0,0.0,0.0,0.0,0.0,0.0,0.0,0.0,0.0,0.0,0.0,0.0,0.0,0.0,0.0,0.0,0.0,0.0,0.0,0.0,0.0,0.0,0.0,0.0,0.0,0.0,0.0,0.0,0.0,0.0,0.0,0.0,0.0,0.0,0.0,0.0,0.0,0.0,0.0,0.0,0.0,0.0,0.0,0.0,0.0,0.0,0.0,0.0,0.0,0.0,0.0,0.0,0.0,0.0,0.0,0.0,0.0,0.0,0.0,0.0,0.0,0.0,0.0,0.0,0.0,0.0,0.0,0.0,0.0,0.0,0.0,0.0,0.0,0.0,0.0,0.0,0.0,0.0,0.0,0.0,0.0,0.0,0.0,0.0,0.0,0.0,0.0,0.0,0.0,0.0,0.0,0.0,0.0,0.0,0.0,0.0,0.0,0.0,0.0,0.0,0.0,0.0,0.0,0.0,0.0,0.0,0.0,0.0,0.0,0.0,0.0,0.0,0.0,0.0,0.0,0.0,0.0,0.0,0.0,0.0,0.0,0.0,0.0,0.0,0.0,0.0,0.0,0.0,0.0,0.0,0.0,0.0,0.0,0.0,0.0,0.0,0.0,0.0,0.0,0.0,0.0,0.0,0.0,0.0,0.0,0.0,0.0,0.0,0.0,0.0,0.0,0.0,0.0,0.0,0.0,0.0,0.0,0.0,0.0,0.0,0.0,0.0,0.0,0.0,0.0,0.0,0.0,0.0,0.0,0.0,0.0,0.0,0.0,0.0,0.0,0.0,0.0,0.0,0.0,0.0,0.0,0.0,0.0,0.0,0.0,0.0,0.0,0.0,0.0,0.0,0.0,0.0,0.0,0.0,0.0,0.0,0.0,0.0,0.0,0.0,0.0,0.0,0.0,0.0,0.0,0.0,0.0,0.0,0.0,0.0,0.0,0.0,0.0,0.0,0.0,0.0,0.0,0.0,0.0,0.0,0.0,0.0,0.0,0.0,0.0,0.0,0.0,0.0,0.0,0.0,0.0,0.0,0.0,0.0,0.0,0.0,0.0,0.0,0.0,0.0,0.0,0.0,0.0,0.0,0.0,0.0,0.0,0.0,0.0,0.0,0.0,0.0,0.0,0.0,0.0,0.0,0.0,0.0,0.0,0.0,0.0,0.0,0.0,0.0,0.0,0.0,0.0,0.0,0.0,0.0,0.0,0.0,0.0,0.0,0.0,0.0,0.0,0.0,0.0,0.0,0.0,0.0,0.0,0.0,0.0,0.0,0.0,0.0,0.0,0.0,0.0,0.0,0.0,0.0,0.0,0.0,0.0,0.0,0.0,0.0,0.0,0.0,0.0,0.0,0.0,0.0,0.0,0.0,0.0,0.0,0.0,0.0,0.0,0.0,0.0,0.0,0.0,0.0,0.0,0.0,0.0,0.0,0.0,0.0,0.0,0.0,0.0,0.0,0.0,0.0,0.0,0.0,0.0,0.0,0.0,0.0,0.0,0.0,0.0,0.0,0.0,0.0,0.0,0.0,0.0,0.0,0.0,0.0,0.0,0.0,0.0,0.0,0.0,0.0,0.0,0.0,0.0,0.0,0.0,0.0,0.0,0.0,0.0,0.0,0.0,0.0,0.0,0.0,0.0,0.0,0.0,0.0,0.0,0.0,0.0,0.0,0.0,0.0,0.0,0.0,0.0,0.0,0.0,0.0,0.0,0.0,0.0,0.0,0.0,0.0,0.0,0.0,0.0,0.0,0.0,0.0,0.0,0.0,0.0,0.0,0.0,0.0,0.0,0.0,0.0,0.0,0.0,0.0,0.0,0.0,0.0,0.0,0.0,0.0,0.0,0.0,0.0,0.0,0.0,0.0,0.0,0.0,0.0,0.0,0.0,0.0,0.0,0.0,0.0,0.0,0.0,0.0,0.0,0.0,0.0,0.0,0.0,0.0,0.0,0.0,0.0,0.0,0.0,0.0,0.0,0.0,0.0,0.0,0.0,0.0,0.0,0.0,0.0,0.0,0.0,0.0,0.0,0.0,0.0,0.0,0.0,0.0,0.0,0.0,0.0,0.0,0.0,0.0,0.0,0.0,0.0,0.0,0.0,0.0,0.0,0.0,0.0,0.0,0.0,0.0,0.0,0.0,0.0,0.0,0.0,0.0,0.0,0.0,0.0,0.0,0.0,0.0,0.0,0.0,0.0,0.0,0.0,0.0,0.0,0.0,0.0,0.0,0.0,0.0,0.0,0.0,0.0,0.0,0.0,0.0,0.0,0.0,0.0,0.0,0.0,0.0,0.0,0.0,0.0,0.0,0.0,0.0,0.0,0.0,0.0,0.0,0.0,0.0,0.0,0.0,0.0,0.0,0.0,0.0,0.0,0.0,0.0,0.0,0.0,0.0,0.0,0.0,0.0,0.0,0.0,0.0,0.0,0.0,0.0,0.0,0.0,0.0,0.0,0.0,0.0,0.0,0.0,0.0,0.0,0.0,0.0,0.0,0.0,0.0,0.0,0.0,0.0,0.0,0.0,0.0,0.0,0.0,0.0,0.0,0.0,0.0,0.0,0.0,0.0,0.0,0.0,0.0,0.0,0.0,0.0,0.0,0.0,0.0,0.0,0.0,0.0,0.0,0.0,0.0,0.0,0.0,0.0,0.0,0.0,0.0,0.0,0.0,0.0,0.0,0.0,0.0,0.0,0.0,0.0,0.0,0.0,0.0,0.0,0.0,0.0,0.0,0.0,0.0,0.0,0.0,0.0,0.0,0.0,0.0,0.0,0.0,0.0,0.0,0.0,0.0,0.0,0.0,0.0,0.0,0.0,0.0,0.0,0.0,0.0,0.0,0.0,0.0,0.0,0.0,0.0,0.0,0.0,0.0,0.0,0.0,0.0,0.0,0.0,0.0,0.0,0.0,0.0,0.0,0.0,0.0,0.0,0.0,0.0,0.0,0.0,0.0,0.0,0.0,0.0,0.0,0.0,0.0,0.0,0.0,0.0,0.0,0.0,0.0,0.0,0.0,0.0,0.0,0.0,0.0,0.0,0.0,0.0,0.0,0.0,0.0,0.0,0.0,0.0,1.1985,0.0,0.0,0.0,0.0,0.0,0.0,0.0,0.0,0.0,0.0,0.0,0.0,0.0,0.0,0.0,0.0,0.0,0.0,0.0,0.0,0.0,0.0,0.0,0.0,0.0,0.0,0.0,0.0,0.0,0.0,0.0,0.0,0.0,0.0,0.0,0.0,0.0,0.0,0.0,0.0,0.0,0.0,0.0,0.0,0.0,0.0,0.0,0.0,0.0,0.0,0.0,0.0,0.0,0.0,0.0,0.0,0.0,0.0,0.0,0.0,0.0,0.0,0.0,0.0,0.0,0.0,0.0,0.0,0.0,0.0,0.0,0.0,0.0,0.0,0.0,0.0,0.0,0.0,0.0,0.0,0.0,0.0,0.0,0.0,0.0,0.0,0.0,0.0,0.0,0.0,0.0,0.0,0.0,0.0,0.0,0.0,0.0,0.0,0.0,0.0,0.0,0.0,0.0,0.0,0.0,0.0,0.0,0.0,0.0,0.0,1.2177,1.2109,1.2091,1.2091,1.2095,0.0,0.0,0.0,0.0,0.0,0.0,0.0,0.0,0.0,0.0,0.0,0.0,0.0,0.0,0.0,0.0,0.0,0.0,0.0,0.0,0.0,0.0,0.0,0.0,0.0,0.0,0.0,0.0,0.0,0.0,0.0,0.0,0.0,0.0,0.0,0.0,0.0,0.0,0.0,0.0,0.0,0.0,0.0,0.0,0.0,0.0,0.0,0.0,0.0,0.0,0.0,0.0,0.0,0.0,0.0,0.0,0.0,0.0,0.0,0.0,0.0,0.0,0.0,0.0,0.0,0.0,0.0,0.0,0.0,0.0,0.0,0.0,0.0,0.0,0.0,0.0,0.0,0.0,0.0,0.0,0.0,0.0,0.0,0.0,0.0,0.0,0.0,0.0,0.0,0.0,0.0,0.0,0.0,0.0,0.0,0.0,0.0,0.0,0.0,0.0,0.0,0.0,0.0,0.0,0.0,0.0,0.0,0.0,0.0,0.0,0.0,0.0,1.2091,1.2091,1.2104,0.0,0.0,0.0,0.0,0.0,0.0,0.0,0.0,0.0,0.0,0.0,0.0,0.0,0.0,0.0,0.0,0.0,0.0,0.0,0.0,0.0,0.0,0.0,0.0,0.0,0.0,0.0,0.0,0.0,0.0,0.0,0.0,0.0,0.0,0.0,0.0,0.0,0.0,0.0,0.0,0.0,0.0,0.0,0.0,0.0,0.0,0.0,0.0,0.0,0.0,0.0,0.0,0.0,0.0,0.0,0.0,0.0,0.0,0.0,0.0,0.0,0.0,0.0,0.0,0.0,0.0,0.0,0.0,0.0,0.0,0.0,0.0,0.0,0.0,0.0,0.0,0.0,0.0,0.0,0.0,0.0,0.0,0.0,0.0,0.0,0.0,0.0,0.0,0.0,0.0,0.0,0.0,0.0,0.0,0.0,0.0,0.0,0.0,0.0,0.0,0.0,0.0,0.0,0.0,0.0,0.0,0.0,0.0,0.0,0.0,1.2289,1.21,1.2095,0.0,1.2118,0.0,0.0,0.0,0.0,0.0,0.0,0.0,0.0,0.0,0.0,0.0,0.0,0.0,0.0,0.0,0.0,0.0,0.0,0.0,0.0,0.0,0.0,0.0,0.0,0.0,0.0,0.0,0.0,0.0,0.0,0.0,0.0,0.0,0.0,0.0,0.0,0.0,0.0,0.0,0.0,0.0,0.0,0.0,0.0,0.0,0.0,0.0,0.0,0.0,0.0,0.0,0.0,0.0,0.0,0.0,0.0,0.0,0.0,0.0,0.0,0.0,0.0,0.0,0.0,0.0,0.0,0.0,0.0,0.0,0.0,0.0,0.0,0.0,0.0,0.0,0.0,0.0,0.0,0.0,0.0,0.0,0.0,0.0,0.0,0.0,0.0,0.0,0.0,0.0,0.0,0.0,0.0,0.0,0.0,0.0,0.0,0.0,0.0,0.0,0.0,0.0,0.0,0.0,0.0,0.0,0.0,0.0,0.0,0.0,0.0,0.0,1.3104,1.2764,1.2422,0.0,0.0,0.0,0.0,0.0,0.0,0.0,0.0,0.0,0.0,0.0,0.0,0.0,0.0,0.0,0.0,0.0,0.0,0.0,0.0,0.0,0.0,0.0,0.0,0.0,0.0,0.0,0.0,0.0,0.0,0.0,0.0,0.0,0.0,0.0,0.0,0.0,0.0,0.0,0.0,0.0,0.0,0.0,0.0,0.0,0.0,0.0,0.0,0.0,0.0,0.0,0.0,0.0,0.0,0.0,0.0,0.0,0.0,0.0,0.0,0.0,0.0,0.0,0.0,0.0,0.0,0.0,0.0,0.0,0.0,0.0,0.0,0.0,0.0,0.0,0.0,0.0,0.0,0.0,0.0,0.0,0.0,0.0,0.0,0.0,0.0,0.0,0.0,0.0,0.0,0.0,0.0,0.0,0.0,0.0,0.0,0.0,0.0,0.0,0.0,0.0,0.0,0.0,0.0,0.0,0.0,0.0,0.0,0.0,0.0,1.3545,0.0,1.3752,1.3227,1.2717,1.233,0.0,0.0,0.0,0.0,0.0,0.0,0.0,0.0,0.0,0.0,0.0,0.0,0.0,0.0,0.0,0.0,0.0,0.0,0.0,0.0,0.0,0.0,0.0,0.0,0.0,0.0,0.0,0.0,0.0,0.0,0.0,0.0,0.0,0.0,0.0,0.0,0.0,0.0,0.0,0.0,0.0,0.0,0.0,0.0,0.0,0.0,0.0,0.0,0.0,0.0,0.0,0.0,0.0,0.0,0.0,0.0,0.0,0.0,0.0,0.0,0.0,0.0,0.0,0.0,0.0,0.0,0.0,0.0,0.0,0.0,0.0,0.0,0.0,0.0,0.0,0.0,0.0,0.0,0.0,0.0,0.0,0.0,0.0,0.0,0.0,0.0,0.0,0.0,0.0,0.0,0.0,0.0,0.0,0.0,0.0,0.0,0.0,0.0,0.0,0.0,0.0,0.0,0.0,0.0,0.0,0.0,0.0,0.0,0.0,1.4177,1.3986,1.3809,1.3291,1.2959,0.0,0.0,0.0,0.0,0.0,0.0,0.0,0.0,0.0,0.0,0.0,0.0,0.0,0.0,0.0,0.0,0.0,0.0,0.0,0.0,0.0,0.0,0.0,0.0,0.0,0.0,0.0,0.0,0.0,0.0,0.0,0.0,0.0,0.0,0.0,0.0,0.0,0.0,0.0,0.0,0.0,0.0,0.0,0.0,0.0,0.0,0.0,0.0,0.0,0.0,0.0,0.0,0.0,0.0,0.0,0.0,0.0,0.0,0.0,0.0,0.0,0.0,0.0,0.0,0.0,0.0,0.0,0.0,0.0,0.0,0.0,0.0,0.0,0.0,0.0,0.0,0.0,0.0,0.0,0.0,0.0,0.0,0.0,0.0,0.0,0.0,0.0,0.0,0.0,0.0,0.0,0.0,0.0,0.0,0.0,0.0,0.0,0.0,0.0,0.0,0.0,0.0,0.0,0.0,0.0,0.0,0.0,0.0,0.0,1.5043,1.5103,1.4843,1.4264,1.3765,1.3321,0.0,0.0,0.0,0.0,0.0,0.0,0.0,0.0,0.0,0.0,0.0,0.0,0.0,0.0,0.0,0.0,0.0,0.0,0.0,0.0,0.0,0.0,0.0,0.0,0.0,0.0,0.0,0.0,0.0,0.0,0.0,0.0,0.0,0.0,0.0,0.0,0.0,0.0,0.0,0.0,0.0,0.0,0.0,0.0,0.0,0.0,0.0,0.0,0.0,0.0,0.0,0.0,0.0,0.0,0.0,0.0,0.0,0.0,0.0,0.0,0.0,0.0,0.0,0.0,0.0,0.0,0.0,0.0,0.0,0.0,0.0,0.0,0.0,0.0,0.0,0.0,0.0,0.0,0.0,0.0,0.0,0.0,0.0,0.0,0.0,0.0,0.0,0.0,0.0,0.0,0.0,0.0,0.0,0.0,0.0,0.0,0.0,0.0,0.0,0.0,0.0,0.0,0.0,0.0,0.0,0.0,0.0,0.0,0.0,1.5592,0.0,1.5497,0.0,1.4356,1.3809,0.0,0.0,0.0,0.0,0.0,0.0,0.0,0.0,0.0,0.0,0.0,0.0,0.0,0.0,0.0,0.0,0.0,0.0,0.0,0.0,0.0,0.0,0.0,0.0,0.0,0.0,0.0,0.0,0.0,0.0,0.0,0.0,0.0,0.0,0.0,0.0,0.0,0.0,0.0,0.0,0.0,0.0,0.0,0.0,0.0,0.0,0.0,0.0,0.0,0.0,0.0,0.0,0.0,0.0,0.0,0.0,0.0,0.0,0.0,0.0,0.0,0.0,0.0,0.0,0.0,0.0,0.0,0.0,0.0,0.0,0.0,0.0,0.0,0.0,0.0,0.0,0.0,0.0,0.0,0.0,0.0,0.0,0.0,0.0,0.0,0.0,0.0,0.0,0.0,0.0,0.0,0.0,0.0,0.0,0.0,0.0,0.0,0.0,0.0,0.0,0.0,0.0,0.0,0.0,0.0,0.0,0.0,0.0,1.6498,1.6039,1.6012,1.5891,1.5693,1.5027,1.4421,0.0,0.0,0.0,0.0,0.0,0.0,0.0,0.0,0.0,0.0,0.0,0.0,0.0,0.0,0.0,0.0,0.0,0.0,0.0,0.0,0.0,0.0,0.0,0.0,0.0,0.0,0.0,0.0,0.0,0.0,0.0,0.0,0.0,0.0,0.0,0.0,0.0,0.0,0.0,0.0,0.0,0.0,0.0,0.0,0.0,0.0,0.0,0.0,0.0,0.0,0.0,0.0,0.0,0.0,0.0,0.0,0.0,0.0,0.0,0.0,0.0,0.0,0.0,0.0,0.0,0.0,0.0,0.0,0.0,0.0,0.0,0.0,0.0,0.0,0.0,0.0,0.0,0.0,0.0,0.0,0.0,0.0,0.0,0.0,0.0,0.0,0.0,0.0,0.0,0.0,0.0,0.0,0.0,0.0,0.0,0.0,0.0,0.0,0.0,0.0,0.0,0.0,0.0,0.0,0.0,0.0,0.0,0.0,0.0,1.6775,1.6267,1.606,1.6134,1.5305,1.4659,0.0,0.0,0.0,0.0,0.0,0.0,0.0,0.0,0.0,0.0,0.0,0.0,0.0,0.0,0.0,0.0,0.0,0.0,0.0,0.0,0.0,0.0,0.0,0.0,0.0,0.0,0.0,0.0,0.0,0.0,0.0,0.0,0.0,0.0,0.0,0.0,0.0,0.0,0.0,0.0,0.0,0.0,0.0,0.0,0.0,0.0,0.0,0.0,0.0,0.0,0.0,0.0,0.0,0.0,0.0,0.0,0.0,0.0,0.0,0.0,0.0,0.0,0.0,0.0,0.0,0.0,0.0,0.0,0.0,0.0,0.0,0.0,0.0,0.0,0.0,0.0,0.0,0.0,0.0,0.0,0.0,0.0,0.0,0.0,0.0,0.0,0.0,0.0,0.0,0.0,0.0,0.0,0.0,0.0,0.0,0.0,0.0,0.0,0.0,0.0,0.0,0.0,0.0,0.0,0.0,0.0,0.0,0.0,0.0,1.8235,1.7274,1.6736,1.6794,1.5913,1.5302,1.4959,0.0,0.0,0.0,0.0,0.0,0.0,0.0,0.0,0.0,0.0,0.0,0.0,0.0,0.0,0.0,0.0,0.0,0.0,0.0,0.0,0.0,0.0,0.0,0.0,0.0,0.0,0.0,0.0,0.0,0.0,0.0,0.0,0.0,0.0,0.0,0.0,0.0,0.0,0.0,0.0,0.0,0.0,0.0,0.0,0.0,0.0,0.0,0.0,0.0,0.0,0.0,0.0,0.0,0.0,0.0,0.0,0.0,0.0,0.0,0.0,0.0,0.0,0.0,0.0,0.0,0.0,0.0,0.0,0.0,0.0,0.0,0.0,0.0,0.0,0.0,0.0,0.0,0.0,0.0,0.0,0.0,0.0,0.0,0.0,0.0,0.0,0.0,0.0,0.0,0.0,0.0,0.0,0.0,0.0,0.0,0.0,0.0,0.0,0.0,0.0,0.0,0.0,0.0,0.0,0.0,0.0,0.0,0.0,2.0354,1.898,1.8036,1.7526,1.6878,1.6294,0.0,0.0,0.0,0.0,0.0,0.0,0.0,0.0,0.0,0.0,0.0,0.0,0.0,0.0,0.0,0.0,0.0,0.0,0.0,0.0,0.0,0.0,0.0,0.0,0.0,0.0,0.0,0.0,0.0,0.0,0.0,0.0,0.0,0.0,0.0,0.0,0.0,0.0,0.0,0.0,0.0,0.0,0.0,0.0,0.0,0.0,0.0,0.0,0.0,0.0,0.0,0.0,0.0,0.0,0.0,0.0,0.0,0.0,0.0,0.0,0.0,0.0,0.0,0.0,0.0,0.0,0.0,0.0,0.0,0.0,0.0,0.0,0.0,0.0,0.0,0.0,0.0,0.0,0.0,0.0,0.0,0.0,0.0,0.0,0.0,0.0,0.0,0.0,0.0,0.0,0.0,0.0,0.0,0.0,0.0,0.0,0.0,0.0,0.0,0.0,0.0,0.0,0.0,0.0,0.0,0.0,0.0,0.0,0.0,2.199,2.1759,2.0714,1.8816,1.8325,1.749,0.0,0.0,0.0,0.0,0.0,0.0,0.0,0.0,0.0,0.0,0.0,0.0,0.0,0.0,0.0,0.0,0.0,0.0,0.0,0.0,0.0,0.0,0.0,0.0,0.0,0.0,0.0,0.0,0.0,0.0,0.0,0.0,0.0,0.0,0.0,0.0,0.0,0.0,0.0,0.0,0.0,0.0,0.0,0.0,0.0,0.0,0.0,0.0,0.0,0.0,0.0,0.0,0.0,0.0,0.0,0.0,0.0,0.0,0.0,0.0,0.0,0.0,0.0,0.0,0.0,0.0,0.0,0.0,0.0,0.0,0.0,0.0,0.0,0.0,0.0,0.0,0.0,0.0,0.0,0.0,0.0,0.0,0.0,0.0,0.0,0.0,0.0,0.0,0.0,0.0,0.0,0.0,0.0,0.0,0.0,0.0,0.0,0.0,0.0,0.0,0.0,0.0,0.0,0.0,0.0,0.0,0.0,0.0,2.2967,2.3286,2.3919,2.3215,2.1061,1.9971,1.8958,0.0,0.0,0.0,0.0,0.0,0.0,0.0,0.0,0.0,0.0,0.0,0.0,0.0,0.0,0.0,0.0,0.0,0.0,0.0,0.0,0.0,0.0,0.0,0.0,0.0,0.0,0.0,0.0,0.0,0.0,0.0,0.0,0.0,0.0,0.0,0.0,0.0,0.0,0.0,0.0,0.0,0.0,0.0,0.0,0.0,0.0,0.0,0.0,0.0,0.0,0.0,0.0,0.0,0.0,0.0,0.0,0.0,0.0,0.0,0.0,0.0,0.0,0.0,0.0,0.0,0.0,0.0,0.0,0.0,0.0,0.0,0.0,0.0,0.0,0.0,0.0,0.0,0.0,0.0,0.0,0.0,0.0,0.0,0.0,0.0,0.0,0.0,0.0,0.0,0.0,0.0,0.0,0.0,0.0,0.0,0.0,0.0,0.0,0.0,0.0,0.0,0.0,0.0,0.0,0.0,0.0,0.0,0.0,2.4574,2.4273,2.5469,2.5374,2.3965,2.1799,2.0469,0.0,0.0,0.0,0.0,0.0,0.0,0.0,0.0,0.0,0.0,0.0,0.0,0.0,0.0,0.0,0.0,0.0,0.0,0.0,0.0,0.0,0.0,0.0,0.0,0.0,0.0,0.0,0.0,0.0,0.0,0.0,0.0,0.0,0.0,0.0,0.0,0.0,0.0,0.0,0.0,0.0,0.0,0.0,0.0,0.0,0.0,0.0,0.0,0.0,0.0,0.0,0.0,0.0,0.0,0.0,0.0,0.0,0.0,0.0,0.0,0.0,0.0,0.0,0.0,0.0,0.0,0.0,0.0,0.0,0.0,0.0,0.0,0.0,0.0,0.0,0.0,0.0,0.0,0.0,0.0,0.0,0.0,0.0,0.0,0.0,0.0,0.0,0.0,0.0,0.0,0.0,0.0,0.0,0.0,0.0,0.0,0.0,0.0,0.0,0.0,0.0,0.0,0.0,0.0,0.0,0.0,0.0,0.0,2.4505,2.5349,2.5765,2.626,2.6863,2.3797,2.1531,0.0,0.0,0.0,0.0,0.0,0.0,0.0,0.0,0.0,0.0,0.0,0.0,0.0,0.0,0.0,0.0,0.0,0.0,0.0,0.0,0.0,0.0,0.0,0.0,0.0,0.0,0.0,0.0,0.0,0.0,0.0,0.0,0.0,0.0,0.0,0.0,0.0,0.0,0.0,0.0,0.0,0.0,0.0,0.0,0.0,0.0,0.0,0.0,1.6126,0.0,0.0,0.0,0.0,0.0,0.0,0.0,0.0,0.0,0.0,0.0,0.0,0.0,0.0,0.0,0.0,0.0,0.0,0.0,0.0,0.0,0.0,0.0,0.0,0.0,0.0,0.0,0.0,0.0,0.0,0.0,0.0,0.0,0.0,0.0,0.0,0.0,0.0,0.0,0.0,0.0,0.0,0.0,0.0,0.0,0.0,0.0,0.0,0.0,0.0,0.0,0.0,0.0,0.0,0.0,0.0,0.0,0.0,0.0,2.6337,2.7491,2.762,2.7678,2.7706,2.5376,2.3454,0.0,0.0,0.0,0.0,0.0,0.0,0.0,0.0,0.0,0.0,0.0,0.0,0.0,0.0,0.0,0.0,0.0,0.0,0.0,0.0,0.0,0.0,0.0,0.0,0.0,0.0,0.0,0.0,0.0,0.0,0.0,0.0,0.0,0.0,0.0,0.0,0.0,0.0,0.0,0.0,0.0,0.0,0.0,0.0,0.0,0.0,0.0,0.0,0.0,0.0,0.0,0.0,0.0,0.0,0.0,0.0,0.0,0.0,0.0,0.0,0.0,0.0,0.0,0.0,0.0,0.0,0.0,0.0,0.0,0.0,0.0,0.0,0.0,0.0,0.0,0.0,0.0,0.0,0.0,0.0,0.0,0.0,0.0,0.0,0.0,0.0,0.0,0.0,0.0,0.0,0.0,0.0,0.0,0.0,0.0,0.0,0.0,0.0,0.0,0.0,0.0,0.0,0.0,0.0,0.0,0.0,0.0,2.7038,2.8283,2.9532,2.9489,2.8991,2.8056,2.663,2.5425,2.4354,0.0,0.0,0.0,0.0,0.0,0.0,0.0,0.0,0.0,0.0,0.0,0.0,0.0,0.0,0.0,0.0,0.0,0.0,0.0,0.0,0.0,0.0,0.0,0.0,0.0,0.0,0.0,0.0,0.0,0.0,0.0,0.0,0.0,0.0,0.0,0.0,0.0,0.0,1.5183,1.6129,0.0,0.0,0.0,0.0,0.0,0.0,0.0,0.0,1.6772,0.0,0.0,0.0,0.0,0.0,0.0,0.0,0.0,0.0,0.0,0.0,0.0,0.0,0.0,0.0,0.0,0.0,0.0,0.0,0.0,0.0,0.0,0.0,0.0,0.0,0.0,0.0,0.0,0.0,0.0,0.0,0.0,0.0,0.0,0.0,0.0,0.0,0.0,0.0,0.0,0.0,0.0,0.0,0.0,0.0,0.0,0.0,0.0,0.0,0.0,0.0,0.0,0.0,0.0,0.0,0.0,2.5893,2.661,2.7811,2.9545,2.9111,2.8952,2.9076,2.7513,2.6134,2.508,0.0,0.0,0.0,0.0,0.0,0.0,0.0,0.0,0.0,0.0,0.0,0.0,0.0,0.0,0.0,0.0,0.0,0.0,0.0,0.0,0.0,0.0,0.0,0.0,0.0,0.0,0.0,0.0,0.0,0.0,0.0,0.0,0.0,0.0,0.0,0.0,0.0,0.0,0.0,1.6876,1.7571,0.0,0.0,0.0,0.0,0.0,0.0,0.0,0.0,1.7618,0.0,0.0,0.0,0.0,0.0,0.0,0.0,0.0,0.0,0.0,0.0,0.0,0.0,0.0,0.0,0.0,0.0,0.0,0.0,0.0,0.0,0.0,0.0,0.0,0.0,0.0,0.0,0.0,0.0,0.0,0.0,0.0,0.0,0.0,0.0,0.0,0.0,0.0,0.0,0.0,0.0,0.0,0.0,0.0,0.0,0.0,0.0,0.0,0.0,0.0,0.0,0.0,0.0,0.0,0.0,2.6793,2.7783,2.9152,3.0957,3.0769,3.0391,2.9955,2.8539,2.6938,0.0,0.0,0.0,0.0,0.0,0.0,0.0,0.0,0.0,0.0,0.0,0.0,0.0,0.0,0.0,0.0,0.0,0.0,0.0,0.0,0.0,0.0,0.0,0.0,0.0,0.0,0.0,0.0,0.0,0.0,0.0,0.0,0.0,0.0,0.0,0.0,0.0,0.0,0.0,0.0,1.7735,1.8566,1.8485,0.0,0.0,0.0,0.0,0.0,0.0,1.9046,1.8751,0.0,0.0,0.0,0.0,0.0,0.0,0.0,0.0,0.0,0.0,0.0,0.0,0.0,0.0,0.0,0.0,0.0,0.0,0.0,0.0,0.0,0.0,0.0,0.0,0.0,0.0,0.0,0.0,0.0,0.0,0.0,0.0,0.0,0.0,0.0,0.0,0.0,0.0,0.0,0.0,0.0,0.0,0.0,0.0,0.0,0.0,0.0,0.0,0.0,0.0,0.0,0.0,0.0,0.0,0.0,2.7924,2.9307,3.0817,3.2502,3.2474,3.1895,3.0844,2.9565,2.7689,0.0,0.0,0.0,0.0,0.0,0.0,0.0,0.0,0.0,0.0,0.0,0.0,0.0,0.0,0.0,0.0,0.0,0.0,0.0,0.0,0.0,0.0,0.0,0.0,0.0,0.0,0.0,0.0,0.0,0.0,0.0,0.0,0.0,0.0,0.0,0.0,0.0,0.0,0.0,0.0,0.0,1.9325,1.8813,1.9616,0.0,0.0,0.0,0.0,1.9983,2.0013,0.0,0.0,0.0,0.0,0.0,0.0,0.0,0.0,0.0,0.0,0.0,0.0,0.0,0.0,0.0,0.0,0.0,0.0,0.0,0.0,0.0,0.0,0.0,0.0,0.0,0.0,0.0,0.0,0.0,0.0,0.0,0.0,0.0,0.0,0.0,0.0,0.0,0.0,0.0,0.0,0.0,0.0,0.0,0.0,0.0,0.0,0.0,0.0,0.0,0.0,0.0,0.0,0.0,0.0,0.0,0.0,2.8564,3.0383,3.1921,3.3111,3.2679,3.2237,3.1897,3.0351,2.8469,0.0,0.0,0.0,0.0,0.0,0.0,0.0,0.0,0.0,0.0,0.0,0.0,0.0,0.0,0.0,0.0,0.0,0.0,0.0,0.0,0.0,0.0,0.0,0.0,0.0,0.0,0.0,0.0,0.0,0.0,0.0,0.0,0.0,0.0,0.0,0.0,0.0,0.0,0.0,0.0,0.0,1.9455,2.0672,2.0213,1.9884,0.0,0.0,2.0504,2.0948,2.1025,0.0,0.0,0.0,0.0,0.0,0.0,0.0,0.0,0.0,0.0,0.0,0.0,0.0,0.0,0.0,0.0,0.0,0.0,0.0,0.0,0.0,0.0,0.0,0.0,0.0,0.0,0.0,0.0,0.0,0.0,0.0,0.0,0.0,0.0,0.0,0.0,0.0,0.0,0.0,0.0,0.0,0.0,0.0,0.0,0.0,0.0,0.0,0.0,0.0,0.0,0.0,0.0,0.0,0.0,0.0,2.6322,2.817,3.001,3.137,3.2249,3.2699,3.2712,3.2287,3.0524,2.8677,0.0,0.0,0.0,0.0,0.0,0.0,0.0,0.0,0.0,0.0,0.0,0.0,0.0,0.0,0.0,0.0,0.0,0.0,0.0,0.0,0.0,0.0,0.0,0.0,0.0,0.0,0.0,0.0,0.0,0.0,0.0,0.0,0.0,0.0,0.0,0.0,0.0,0.0,0.0,0.0,0.0,0.0,2.1109,2.1783,0.0,0.0,0.0,2.253,2.2455,0.0,0.0,0.0,0.0,0.0,0.0,0.0,0.0,0.0,0.0,0.0,0.0,0.0,0.0,0.0,0.0,0.0,0.0,0.0,0.0,0.0,0.0,0.0,0.0,0.0,0.0,0.0,0.0,0.0,0.0,0.0,0.0,0.0,0.0,0.0,0.0,0.0,0.0,0.0,0.0,0.0,0.0,0.0,0.0,0.0,0.0,0.0,0.0,0.0,0.0,0.0,0.0,0.0,0.0,0.0,0.0,0.0,2.8451,3.0142,3.1378,3.2145,3.2915,3.3092,3.2615,3.0817,0.0,0.0,0.0,0.0,0.0,0.0,0.0,0.0,0.0,0.0,0.0,0.0,0.0,0.0,0.0,0.0,0.0,0.0,0.0,0.0,0.0,0.0,0.0,0.0,0.0,0.0,0.0,1.3274,0.0,0.0,0.0,0.0,0.0,0.0,0.0,0.0,0.0,0.0,0.0,0.0,0.0,0.0,2.1607,2.1745,2.3144,2.3971,0.0,0.0,2.4191,2.3668,2.3072,2.2401,0.0,0.0,0.0,0.0,0.0,0.0,0.0,0.0,0.0,0.0,0.0,0.0,0.0,0.0,0.0,0.0,0.0,0.0,0.0,0.0,0.0,0.0,0.0,0.0,0.0,0.0,0.0,0.0,0.0,0.0,0.0,0.0,0.0,0.0,0.0,0.0,0.0,0.0,0.0,0.0,0.0,0.0,0.0,0.0,0.0,0.0,0.0,0.0,0.0,0.0,0.0,0.0,0.0,0.0,0.0,3.0275,3.1595,3.2831,3.3936,3.3552,3.3271,3.3196,3.1426,2.9862,0.0,0.0,0.0,0.0,0.0,0.0,0.0,0.0,0.0,0.0,0.0,0.0,0.0,0.0,0.0,0.0,0.0,0.0,0.0,0.0,0.0,0.0,0.0,0.0,0.0,0.0,0.0,0.0,0.0,0.0,0.0,0.0,0.0,0.0,0.0,0.0,0.0,0.0,0.0,0.0,0.0,2.2771,2.3178,2.3792,2.4347,0.0,0.0,2.4696,2.4232,2.4444,2.4214,2.284,0.0,0.0,0.0,0.0,0.0,0.0,0.0,0.0,0.0,0.0,0.0,0.0,0.0,0.0,0.0,0.0,0.0,0.0,0.0,0.0,0.0,0.0,0.0,0.0,0.0,0.0,0.0,0.0,0.0,0.0,0.0,0.0,0.0,0.0,0.0,0.0,0.0,0.0,0.0,0.0,0.0,0.0,0.0,0.0,0.0,0.0,0.0,0.0,0.0,0.0,0.0,0.0,0.0,2.8493,2.9946,3.1932,3.3355,3.4133,3.3964,3.3852,3.3852,3.1671,3.0106,0.0,0.0,0.0,0.0,0.0,0.0,0.0,0.0,0.0,0.0,0.0,0.0,0.0,0.0,0.0,0.0,0.0,0.0,0.0,0.0,0.0,0.0,0.0,0.0,0.0,0.0,0.0,0.0,1.725,1.755,1.7861,0.0,0.0,0.0,0.0,0.0,0.0,0.0,0.0,0.0,0.0,2.3413,2.4798,2.5469,0.0,0.0,2.6197,2.6142,2.5689,2.4967,2.4269,2.3727,2.214,0.0,0.0,0.0,0.0,0.0,0.0,0.0,0.0,0.0,0.0,0.0,0.0,0.0,0.0,0.0,0.0,0.0,0.0,0.0,0.0,0.0,0.0,0.0,0.0,0.0,0.0,0.0,0.0,0.0,0.0,0.0,0.0,0.0,0.0,0.0,0.0,0.0,0.0,0.0,0.0,0.0,0.0,0.0,0.0,0.0,0.0,0.0,0.0,0.0,0.0,0.0,0.0,2.8922,3.0704,3.2437,3.3785,3.474,3.4385,3.4217,3.4161,3.1988,3.0423,0.0,0.0,0.0,0.0,0.0,0.0,0.0,0.0,0.0,0.0,0.0,0.0,0.0,0.0,0.0,0.0,0.0,0.0,0.0,0.0,0.0,0.0,0.0,0.0,0.0,0.0,0.0,0.0,1.8217,1.8342,1.8632,0.0,0.0,0.0,0.0,0.0,0.0,0.0,0.0,0.0,0.0,2.4616,2.5718,2.6527,2.6999,2.7023,2.7123,2.7027,2.6582,2.5459,2.4554,2.4319,0.0,0.0,0.0,0.0,0.0,0.0,0.0,0.0,0.0,0.0,0.0,0.0,0.0,0.0,0.0,0.0,0.0,0.0,0.0,0.0,0.0,0.0,0.0,0.0,0.0,0.0,0.0,2.3734,0.0,0.0,2.466,0.0,0.0,0.0,0.0,0.0,0.0,0.0,0.0,0.0,0.0,0.0,0.0,0.0,0.0,0.0,0.0,0.0,0.0,0.0,0.0,0.0,0.0,3.0178,3.3122,3.3308,3.4216,3.5939,3.4853,3.4245,3.4198,3.2418,3.0889,2.9624,0.0,0.0,0.0,0.0,0.0,0.0,0.0,0.0,0.0,0.0,0.0,0.0,0.0,0.0,0.0,0.0,0.0,0.0,0.0,0.0,0.0,0.0,0.0,0.0,0.0,0.0,1.8809,1.9013,1.9056,0.0,0.0,0.0,0.0,0.0,0.0,0.0,0.0,0.0,0.0,2.4692,2.6664,2.5793,2.6695,2.7521,2.751,2.7364,2.707,2.6638,2.6066,2.5405,0.0,0.0,0.0,0.0,0.0,0.0,0.0,0.0,0.0,0.0,0.0,0.0,0.0,0.0,0.0,0.0,0.0,0.0,0.0,0.0,0.0,0.0,0.0,0.0,0.0,0.0,0.0,2.6257,2.7523,0.0,0.0,0.0,0.0,0.0,0.0,0.0,0.0,0.0,0.0,0.0,3.2033,3.2422,0.0,0.0,0.0,0.0,0.0,0.0,0.0,0.0,0.0,0.0,0.0,0.0,3.1283,3.2699,3.4328,3.5677,3.6632,3.5902,3.5311,3.4989,3.3633,3.1767,2.9404,0.0,0.0,0.0,0.0,0.0,0.0,0.0,0.0,0.0,0.0,0.0,0.0,0.0,0.0,0.0,0.0,0.0,0.0,0.0,0.0,0.0,0.0,0.0,0.0,0.0,1.9503,0.0,0.0,0.0,0.0,0.0,0.0,0.0,0.0,0.0,0.0,0.0,2.2709,2.4168,2.5487,2.6553,2.7221,2.7981,2.8484,0.0,0.0,0.0,0.0,0.0,0.0,0.0,0.0,0.0,0.0,0.0,0.0,0.0,0.0,2.3167,2.1008,2.0462,2.0541,2.1212,0.0,0.0,0.0,0.0,0.0,0.0,0.0,0.0,0.0,0.0,0.0,0.0,0.0,0.0,2.8892,0.0,3.0832,0.0,0.0,0.0,0.0,0.0,0.0,0.0,0.0,3.3954,3.4886,3.5258,3.5642,3.5235,0.0,3.354,3.1262,0.0,0.0,0.0,0.0,0.0,0.0,0.0,0.0,3.2509,3.3806,3.5459,3.6618,3.7145,3.6618,3.6165,3.5833,3.4249,3.2277,2.9905,2.8717,2.7079,0.0,0.0,0.0,0.0,0.0,0.0,0.0,0.0,0.0,0.0,0.0,0.0,0.0,0.0,0.0,0.0,0.0,0.0,0.0,0.0,0.0,0.0,0.0,2.0633,0.0,0.0,0.0,0.0,0.0,0.0,0.0,0.0,0.0,2.2647,2.3281,2.4478,2.6158,2.7095,2.784,2.8506,0.0,0.0,0.0,0.0,0.0,0.0,0.0,2.8103,2.7809,2.7234,2.6898,2.7258,2.7149,2.6973,2.6759,0.0,0.0,2.3245,2.2654,2.2765,2.3417,2.3895,2.4462,2.5208,2.5804,2.621,0.0,0.0,0.0,0.0,0.0,0.0,0.0,0.0,3.0204,3.0994,0.0,3.2462,0.0,0.0,0.0,0.0,3.2142,3.3428,0.0,0.0,3.6405,3.7727,3.8387,3.8349,3.7865,3.6993,3.5489,3.4245,3.3123,3.0214,0.0,0.0,0.0,0.0,0.0,0.0,3.3978,3.6212,3.6598,3.6987,3.7567,3.7015,3.672,3.6615,3.4352,3.2462,3.1124,2.9428,2.8097,2.7361,2.5471,0.0,0.0,0.0,0.0,0.0,0.0,0.0,0.0,0.0,0.0,0.0,0.0,0.0,0.0,0.0,0.0,0.0,0.0,0.0,0.0,2.202,0.0,0.0,0.0,0.0,0.0,0.0,0.0,0.0,0.0,0.0,2.4053,2.6066,2.7758,2.7602,0.0,0.0,0.0,0.0,3.0071,2.9859,2.9637,2.9488,2.9475,2.9085,2.8849,2.8984,0.0,0.0,2.9049,2.8658,2.8278,2.8052,2.8093,2.7576,2.619,2.5758,2.567,2.5761,2.6162,2.67,2.7165,2.7694,2.8231,3.4765,0.0,0.0,0.0,0.0,3.1009,3.236,3.4691,3.4423,3.5284,3.6931,3.6542,0.0,0.0,0.0,0.0,0.0,0.0,3.7416,3.7885,4.0102,4.124,4.1444,4.1891,4.1532,4.0445,3.9572,3.8559,3.7402,3.5186,3.3099,3.1228,0.0,0.0,0.0,0.0,3.5284,3.5979,3.6854,3.7444,3.7577,3.7444,3.6967,3.6226,3.5223,3.4116,3.2826,3.1719,3.038,2.8734,2.7136,0.0,0.0,0.0,0.0,0.0,0.0,0.0,0.0,0.0,0.0,0.0,0.0,0.0,0.0,0.0,0.0,0.0,0.0,0.0,2.2083,2.2271,2.2452,0.0,0.0,0.0,0.0,0.0,0.0,0.0,0.0,0.0,2.8179,2.818,2.8479,0.0,0.0,2.9944,2.9873,3.0347,3.0663,3.0599,3.0845,0.0,3.0526,3.0348,3.0164,2.9834,3.0084,3.0359,3.0359,3.0551,3.0619,3.0369,3.0658,3.0678,3.0041,2.8332,2.7297,2.7499,2.7838,2.8239,2.8769,2.9527,3.0159,4.0363,3.7381,3.554,3.5134,3.5673,3.5634,3.68,3.8662,3.8266,3.8849,4.0045,3.9522,3.8971,3.8447,3.853,0.0,0.0,0.0,4.0181,4.0499,4.206,4.2933,4.3233,4.3542,4.332,4.2594,4.2032,4.1378,4.0649,3.8996,3.7349,3.5642,0.0,0.0,3.4858,3.6296,3.7156,3.7404,3.8189,3.8467,3.8227,3.7978,3.7421,3.657,3.6262,3.5523,3.4178,3.3463,3.2375,3.0729,2.8939,2.7115,0.0,0.0,0.0,0.0,0.0,0.0,0.0,0.0,0.0,0.0,0.0,2.2865,0.0,0.0,0.0,0.0,2.3016,2.3215,2.3728,2.3786,0.0,0.0,0.0,0.0,0.0,0.0,0.0,2.8585,3.0232,3.1377,3.1237,3.0971,3.0733,3.0626,3.0671,3.072,3.0727,0.0,3.1311,3.1235,3.1489,3.1586,3.1262,3.1459,3.1629,3.1666,3.1906,3.2114,3.2138,3.2417,3.2544,3.2457,3.2539,3.2653,3.2504,3.0925,2.9731,2.9927,3.0098,3.0301,3.0501,3.1194,3.1747,4.4552,4.3678,4.0448,3.9267,3.9616,4.0436,4.1067,4.1589,4.1581,4.1621,4.1678,4.159,4.1489,4.1381,4.2013,0.0,4.1325,4.2069,4.239,4.239,4.2921,4.3538,4.4134,4.3974,4.3838,4.3861,4.3319,4.3011,4.2942,4.1825,4.1217,4.105,3.8059,3.6951,3.7806,3.8582,3.9255,3.9821,3.9991,3.9799,3.9189,3.8609,3.7961,3.7313,3.7235,3.6525,3.5177,3.4633,3.395,3.2924,3.0651,2.8719,2.7322,0.0,0.0,0.0,0.0,0.0,0.0,0.0,0.0,0.0,0.0,0.0,0.0,0.0,0.0,0.0,2.4006,0.0,2.573,2.6164,0.0,0.0,0.0,2.8667,2.8476,3.0697,3.1991,3.1271,0.0,0.0,3.3469,3.4069,3.3917,3.218,3.2241,3.2324,3.1942,3.1975,3.201,3.1937,3.1893,3.1904,3.201,3.2469,3.3049,3.3644,3.3995,3.3898,3.385,3.3898,3.3983,3.39,3.3814,3.3703,3.3703,3.3248,3.2994,3.2712,3.2524,3.2348,3.2101,3.2461,3.2822,4.6286,4.6067,4.5225,4.4026,4.2652,4.2861,4.3015,4.3153,4.3145,4.3476,4.3929,4.3283,4.3193,4.3543,4.3306,4.3032,4.2766,4.3726,4.404,4.3872,4.497,4.5536,4.5603,4.5407,4.53,4.5273,4.4655,4.4198,4.386,4.3142,4.2366,4.1588,4.1253,4.0578,3.9566,3.9721,3.9875,4.002,4.006,3.9809,3.9209,3.9044,3.8434,3.7322,3.6809,3.6161,3.5352,3.4731,3.4,3.3136,3.1627,3.0103,2.8607,2.6819,0.0,0.0,0.0,0.0,0.0,0.0,0.0,0.0,0.0,2.6161,2.6308,0.0,2.8318,0.0,2.7065,2.6889,2.7047,2.8019,0.0,0.0,3.0769,3.1657,3.1481,3.3357,3.4654,3.4612,3.5617,3.6177,3.5743,3.5849,3.5542,3.4243,3.3352,3.2978,3.3314,3.291,3.2822,3.3288,3.3384,3.3467,3.3431,3.3574,3.3803,3.3983,3.4019,3.3995,3.4019,3.3995,3.3995,3.4032,3.4307,3.4483,3.4508,3.4578,3.4618,3.4474,3.347,3.2489,3.243,3.2852,3.3216,4.7378,4.7419,4.7702,4.7143,4.6001,4.5403,4.5119,4.5111,4.5111,4.5346,4.5694,4.5113,4.5059,4.5272,4.4902,4.469,4.4614,4.5186,4.537,4.5222,4.5884,4.6161,4.6094,4.5905,4.5814,4.5796,4.5413,4.5145,4.4871,4.4263,4.3666,4.3092,4.2912,4.2345,4.1439,4.121,4.106,4.0989,4.0699,4.0389,4.0031,3.9479,3.886,3.8164,3.7496,3.6722,3.5839,3.5453,3.4749,3.3647,3.2594,3.1216,2.9508,2.8304,2.7265,0.0,0.0,0.0,0.0,0.0,0.0,0.0,0.0,0.0,0.0,0.0,2.9974,2.9969,2.9126,2.8996,3.0003,3.0654,3.1369,3.2147,3.3531,3.4361,3.4248,3.5782,3.6882,3.6998,3.7393,3.7593,3.7419,3.724,3.6914,3.6227,3.5075,3.4183,3.395,3.3574,3.3516,3.3934,3.3995,3.4152,3.4453,3.4525,3.467,3.4986,3.507,3.507,3.507,3.507,3.507,3.5084,3.5215,3.5344,3.532,3.534,3.5331,3.509,3.4426,3.3708,3.3386,3.3574,3.3776,4.8138,4.8179,4.8753,4.9003,4.8915,4.7711,4.716,4.716,4.7169,4.7128,4.7022,4.6866,4.6714,4.6582,4.6325,4.622,4.6298,4.6211,4.6211,4.628,4.6143,4.6112,4.6094,4.5914,4.5814,4.5814,4.5814,4.5787,4.5723,4.5132,4.4852,4.4718,4.3742,4.316,4.3061,4.2698,4.2382,4.2102,4.1512,4.1202,4.1086,3.9944,3.9276,3.9189,3.8483,3.7593,3.6472,3.6277,3.5598,3.4326,3.3434,3.216,3.0428,2.9978,2.9305,0.0,2.8072,0.0,0.0,0.0,0.0,0.0,0.0,0.0,0.0,3.0668,3.135,3.1929,3.1058,3.1322,3.344,3.3678,3.4147,3.518,3.6142,3.6745,3.6836,3.7924,3.8695,3.8748,3.8769,3.8789,3.8741,3.8421,3.8175,3.7901,3.6921,3.5837,3.4788,3.435,3.4211,3.4272,3.4308,3.4707,3.5216,3.5362,3.557,3.6208,3.6282,3.6405,3.6319,3.6319,3.6356,3.6332,3.613,3.6026,3.6051,3.5811,3.5596,3.5404,3.521,3.4969,3.452,3.4374,3.4445,4.8817,4.8841,4.8938,4.9003,4.8979,4.872,4.8591,4.8632,4.8591,4.8299,4.779,4.7755,4.7312,4.6559,4.5977,4.5911,4.6266,4.5716,4.578,4.6289,4.6152,4.6112,4.6094,4.5873,4.5814,4.5814,4.5814,4.5628,4.5312,4.5201,4.4977,4.4648,4.4389,4.4044,4.3487,0.0,0.0,0.0,4.1976,4.1657,4.1105,4.036,3.9692,3.918,3.8057,0.0,3.7099,3.6121,3.5453,3.512,3.403,0.0,0.0,0.0,0.0,0.0,0.0,0.0,0.0,0.0,0.0,0.0,3.2774,3.2699,3.2005,3.338,3.4373,3.4486,3.473,3.5058,3.5508,3.6435,3.708,3.7323,3.7976,3.8529,3.8797,3.9292,3.9662,4.0013,4.0169,4.0223,4.0013,3.98,3.9365,3.878,3.833,3.7829,3.7137,3.5835,3.5251,3.579,3.5815,3.5937,3.6147,3.6147,3.6147,3.6393,3.6405,3.6405,3.6405,3.6405,3.6405,3.6405,3.6358,3.631,3.631,3.611,3.5884,3.5873,3.5668,3.5368,3.4835,3.4714,3.4726,5.0089,5.0089,5.0089,5.0098,0.0,5.0089,5.0098,5.0034,4.9303,4.8817,4.8485,4.8445,4.813,4.7654,4.7211,4.7177,4.738,4.6915,4.6911,4.7235,4.7074,4.7005,4.6973,4.6871,4.6866,4.6834,4.6478,4.6196,4.5989,4.5656,4.5398,4.5185,4.4676,4.4226,4.3888,4.3289,4.2708,4.2092,4.2082,4.1918,4.157,4.0941,4.0282,3.9654,3.8744,0.0,0.0,0.0,0.0,0.0,0.0,0.0,0.0,0.0,0.0,3.2753,3.2038,3.1854,3.243,3.301,3.3596,3.4206,3.5339,3.5508,3.4318,3.5105,3.5883,3.6492,3.6829,3.711,3.7476,3.8319,3.8843,3.8871,3.9405,3.9859,4.0005,4.0164,4.0336,4.0481,4.0554,4.0544,4.0533,4.0121,3.9804,3.9469,3.8935,3.8523,3.8141,3.7025,3.6267,3.6366,3.6405,3.6393,3.6405,3.6405,3.6405,3.6393,3.6405,3.6405,3.6405,3.6405,3.6405,3.6405,3.6405,3.6405,3.6393,3.6275,3.6169,3.6015,3.5872,3.5668,3.5284,3.5078,3.5005,5.1565,5.1565,5.1565,5.1565,5.1565,5.1575,5.1575,5.1459,5.0034,0.0,0.0,4.9093,4.8946,4.8822,4.8634,4.8514,4.8449,4.8259,4.8198,4.8151,4.7962,4.7918,4.7918,4.7918,4.7918,4.7877,4.7277,4.6992,4.6961,4.6288,4.5972,4.5899,4.4952,4.4358,4.4168,4.323,4.2586,4.2236,4.2175,4.2144,4.2102,4.1464,4.0844,4.0292,3.9683,3.8812,3.769,3.7535,3.6934,3.5828,3.5476,3.5108,3.4597,3.4482,3.4656,3.5134,3.466,3.4592,3.5125,3.5534,3.5827,3.5977,3.7401,3.7775,3.667,3.6586,3.7036,3.8131,3.8243,3.8506,3.9173,3.9641,3.9978,3.9978,4.0417,4.0688,4.0688,4.0716,4.0688,4.0705,4.0554,4.0501,4.0662,4.0154,3.9793,3.9832,3.9258,3.8681,3.8512,3.7764,3.7045,3.6791,3.6699,3.6558,3.6523,3.644,3.6405,3.6405,3.6405,3.6405,3.6405,3.6405,3.6405,3.6405,3.6405,3.6405,3.6405,3.6381,3.6347,3.611,3.6062,3.6015,3.5788,3.5536,3.5356,5.3003,5.3026,5.2993,5.2993,5.3003,5.3003,5.2993,5.2874,5.1491,5.0519,4.996,4.9941,4.9526,4.879,4.8771,4.8569,4.8273,4.8203,4.8104,4.7956,4.7928,4.7918,4.7918,4.7918,4.7918,4.7909,4.7782,4.7751,4.7665,4.6992,4.6645,4.6563,4.5929,4.5098,4.4216,4.3379,4.285,4.2607,4.2453,4.2288,4.2102,4.1464,4.1076,4.0931,4.0331,3.9654,3.8947,3.8367,3.7767,3.707,3.6454,3.6097,3.6039,3.6369,3.6606,3.6712,3.6946,3.7301,3.7734,3.7837,3.8238,3.9071,3.9405,3.9247,3.8572,3.8498,3.8797,3.9472,3.949,3.9771,4.035,4.0502,4.0558,4.0558,4.0631,4.0716,4.0716,4.0716,4.0716,4.0716,4.0694,4.0651,4.0662,4.0274,3.9941,3.9919,3.9546,3.9069,3.8677,3.8073,3.7718,3.7557,3.7271,3.7038,3.6992,3.664,3.6499,3.6405,3.6405,3.6405,3.6405,3.6405,3.6405,3.6405,3.6405,3.6405,3.6405,3.6405,3.6369,3.631,3.6324,3.6275,3.6216,3.6027,3.5812,5.3275,5.3275,5.3275,5.3275,5.3275,5.3275,5.3275,5.3243,5.2647,5.2161,5.186,5.1838,5.1411,5.0657,5.0657,5.0337,4.9814,4.9588,4.9458,4.9353,4.9112,4.9005,4.8974,4.9005,4.8983,4.8974,4.8604,4.8446,4.8392,4.7719,4.7403,4.7302,4.6279,4.5151,4.4093,4.3488,4.307,4.287,4.2658,4.2535,4.2433,4.214,4.1728,4.1306,4.0976,4.044,3.9712,3.9537,3.9167,3.8526,3.8316,3.8159,3.8059,3.8228,3.8454,3.8659,3.8793,3.8925,3.9093,3.9195,3.9566,4.0203,4.0266,4.0192,3.9894,3.9883,4.0006,4.0249,4.0294,4.0389,4.0659,4.0716,4.0716,4.0716,4.0716,4.0716,4.0716,4.0716,4.0716,4.0705,4.0598,4.0587,4.0677,4.0289,4.0072,4.0143,3.9892,3.9606,3.9385,3.9147,3.8729,3.8152,3.7848,3.7733,3.7675,3.7317,3.698,3.6805,3.6558,3.6428,3.6405,3.6405,3.6405,3.6405,3.6405,3.6405,3.6405,3.6405,3.6405,3.6405,3.6405,3.6405,3.6369,3.63,3.6086,5.377,5.377,5.377,5.376,5.377,5.377,5.377,5.376,5.376,5.377,5.3738,5.3437,5.2971,5.2462,5.2453,5.211,5.159,5.1061,5.0793,5.0716,5.0153,4.988,4.988,4.988,4.988,4.9848,4.9363,4.911,4.9056,4.8456,4.8045,4.777,4.644,4.5332,4.4491,4.3882,4.3478,4.322,4.308,4.289,4.2698,4.2688,4.2382,4.1761,4.1722,4.1309,4.0538,4.0656,4.0432,3.9797,3.9939,3.9891,3.9672,3.9856,4.013,4.0352,4.0387,4.0324,4.0252,4.0316,4.0516,4.0728,4.0773,4.0752,4.0698,4.0716,4.0716,4.0716,4.0688,4.0688,4.0716,4.0716,4.0716,4.0716,4.0716,4.0716,4.0716,4.0716,4.0716,4.0666,4.0565,4.0522,4.0587,4.0332,4.0165,4.0208,4.0132,4.0034,4.0023,4.0023,3.959,3.9013,3.8575,3.8462,3.8417,3.7856,3.743,3.7201,3.6734,3.6476,3.6405,3.6405,3.6405,3.6405,3.6405,3.6405,3.6405,3.6405,3.6405,3.6405,3.6405,3.6443,3.6619,3.6632,3.6353,5.5195,5.5205,5.5173,5.5195,5.5173,5.5162,5.514,5.513,5.5195,5.5185,5.5011,5.3867,5.3317,5.3188,5.3188,5.3045,5.2716,5.1901,5.1438,5.1166,5.0315,4.9912,4.9953,4.9912,4.9912,4.987,4.9795,4.9754,4.97,4.911,4.8519,4.7839,4.6717,4.6117,4.5875,4.4977,4.4287,4.3919,4.39,4.3488,4.2749,4.2688,4.2659,4.258,4.258,4.2265,4.1567,4.1568,4.1244,4.052,4.0655,4.0538,4.0227,4.0979,4.144,4.1309,4.1825,4.1992,4.1542,4.1368,4.1194,4.1011,4.0969,4.0912,4.0737,4.0716,4.0716,4.0772,4.0744,4.0744,4.0716,4.0754,4.0839,4.0884,4.0828,4.0716,4.0772,4.0716,4.0716,4.0716,4.0712,4.0683,4.0683,4.049,4.0312,4.0259,4.0237,4.0249,4.0293,4.026,4.0266,4.009,3.9678,3.929,3.9118,3.8221,3.7764,3.7511,3.6898,3.6582,3.6523,3.6464,3.6405,3.6405,3.6468,3.6494,3.6468,3.643,3.648,3.6494,3.6494,3.6507,3.6959,3.7034,3.6715,5.6446,5.6047,5.6047,5.5788,5.5421,5.5399,5.5399,5.5399,5.5399,5.5399,5.5334,5.4774,5.4321,5.3942,5.3942,5.3666,5.3157,5.2647,5.2342,5.2091,5.1583,5.1074,5.0573,5.0542,5.0332,4.9912,4.988,4.988,4.9848,4.9596,4.9141,4.8464,4.7514,4.6829,4.6388,4.5095,4.4347,4.4158,4.3787,4.3399,4.31,4.306,4.3,4.287,4.288,4.2701,4.2354,4.2385,4.2307,4.2021,4.2159,4.2139,4.1823,4.2238,4.2375,4.2204,4.243,4.2434,4.2127,4.1879,4.1598,4.1262,4.1075,4.1046,4.1215,4.1221,4.139,4.171,4.1485,4.1221,4.1267,4.1598,4.1823,4.1823,4.1823,4.1823,4.1823,4.1474,4.1239,4.1211,4.0912,4.0716,4.0705,4.063,4.0673,4.0865,4.0927,4.0961,4.1385,4.1413,4.1346,4.1369,4.1056,4.0568,4.0024,3.9298,3.8751,3.8413,3.7695,3.7085,3.6954,3.6617,3.6405,3.6405,3.6644,3.6808,3.6921,3.716,3.7311,3.6984,3.6519,3.6494,3.6708,3.6733,3.65,5.7309,5.6855,5.6812,5.6488,5.6025,5.5992,5.5885,5.5691,5.5691,5.5593,5.5399,5.5399,5.514,5.4719,5.4687,5.4363,5.387,5.3475,5.3178,5.2957,5.2605,5.2009,5.1299,5.1058,5.0732,5.0237,5.0006,4.988,4.988,4.988,4.9637,4.9107,4.8365,4.7703,4.7157,4.5916,4.5172,4.4901,4.4439,4.4098,4.3878,4.3658,4.3409,4.312,4.3071,4.2991,4.288,4.301,4.308,4.3001,4.32,4.319,4.296,4.3001,4.2981,4.2819,4.2779,4.2746,4.2647,4.244,4.2257,4.203,4.18,4.1784,4.192,4.1956,4.2159,4.2469,4.23,4.211,4.1952,4.23,4.2593,4.2621,4.2621,4.2621,4.2525,4.2121,4.1812,4.1604,4.1221,4.0856,4.0733,4.0705,4.0835,4.1161,4.1312,4.1474,4.198,4.1937,4.1954,4.2038,4.198,4.1585,4.0713,3.9941,3.9615,3.9024,3.8118,3.7329,3.7349,3.6793,3.6405,3.6443,3.6909,3.7034,3.6845,3.7235,3.76,3.711,3.6669,3.6468,3.6745,3.6644,3.6614,5.7568,5.7568,5.7535,5.7471,5.7481,5.7438,5.7071,5.6456,5.6446,5.6089,5.5561,5.5496,5.5389,5.5367,5.5377,5.5324,5.5174,5.4408,5.3905,5.3629,5.287,5.2285,5.1922,5.1311,5.0994,5.09,5.0311,4.9943,4.9912,4.988,4.988,4.9807,4.9109,4.8791,4.8597,4.7845,4.7259,4.6423,4.619,4.592,4.5208,4.4546,4.3957,4.3459,4.328,4.326,4.326,4.327,4.321,4.2991,4.32,4.312,4.2809,4.312,4.322,4.305,4.302,4.3095,4.3263,4.3236,4.3251,4.3401,4.3311,4.3241,4.2887,4.286,4.2838,4.2682,4.3172,4.3178,4.2739,4.2784,4.275,4.275,4.2666,4.2694,4.2666,4.2666,4.2272,4.1829,4.1576,4.1295,4.0828,4.0716,4.0733,4.0856,4.08,4.094,4.1193,4.1442,4.1667,4.1824,4.2032,4.2155,4.1057,4.0513,3.9786,3.9289,3.8693,3.7329,3.7015,3.6769,3.6582,3.6531,3.6909,3.6984,3.672,3.672,3.6959,3.6783,3.6582,3.6507,3.672,3.7034,3.7039,5.8637,5.8184,5.7752,5.7568,5.7568,5.7568,5.7428,5.7201,5.7212,5.7082,5.6845,5.6802,5.6543,5.6132,5.6122,5.5852,5.5389,5.5069,5.4748,5.4385,5.4058,5.3511,5.2733,5.246,5.2049,5.1575,5.0943,5.0342,4.9912,4.988,4.988,4.9831,4.9402,4.9166,4.8951,4.7921,4.7139,4.6804,4.6153,4.5624,4.5386,4.5065,4.4815,4.4556,4.3728,4.329,4.329,4.329,4.327,4.32,4.327,4.323,4.314,4.3618,4.3847,4.3684,4.4031,4.4252,4.4146,4.3996,4.3921,4.3845,4.3672,4.3695,4.3722,4.3741,4.3838,4.4129,4.4362,4.4379,4.4237,4.3946,4.375,4.375,4.375,4.3694,4.3666,4.3425,4.3059,4.2728,4.2166,4.1481,4.1306,4.093,4.0845,4.1182,4.1267,4.1407,4.179,4.197,4.1937,4.1965,4.202,4.1829,4.1068,4.1024,4.0813,4.0377,3.9729,3.8696,3.813,3.7315,3.6989,3.6669,3.6941,3.7098,3.6884,3.682,3.6934,3.6884,3.6658,3.6494,3.6644,3.7009,3.7102,5.9403,5.8918,5.8453,5.8281,5.8281,5.827,5.814,5.7946,5.7946,5.7816,5.7633,5.7568,5.7309,5.691,5.6845,5.6446,5.5755,5.5518,5.5227,5.4885,5.4834,5.4348,5.3577,5.3207,5.287,5.2323,5.1638,5.1048,5.0585,5.0364,5.0247,5.0249,4.9759,4.9503,4.9308,4.8428,4.7876,4.761,4.6976,4.6506,4.6236,4.5963,4.5779,4.5475,4.4546,4.3938,4.3927,4.3938,4.3938,4.3927,4.3938,4.3948,4.3997,4.4366,4.4574,4.4501,4.4818,4.5058,4.495,4.4798,4.4682,4.4621,4.4468,4.4443,4.461,4.4634,4.4789,4.5047,4.5098,4.5098,4.5046,4.4746,4.4513,4.4542,4.4542,4.4467,4.4397,4.4048,4.3722,4.3357,4.257,4.2025,4.1868,4.1362,4.1267,4.1576,4.1463,4.1531,4.1846,4.2026,4.2004,4.2021,4.2082,4.1981,4.1597,4.1524,4.0963,4.0509,3.9775,3.9112,3.8646,3.7879,3.7236,3.6942,3.691,3.712,3.7148,3.7034,3.6984,3.6959,3.6733,3.6494,3.672,3.6984,3.7252,5.9705,5.963,5.9662,5.9533,5.9511,5.9511,5.9198,5.8659,5.8615,5.8313,5.7924,5.773,5.7752,5.76,5.759,5.7201,5.651,5.5917,5.5428,5.5104,5.4896,5.4655,5.4253,5.3566,5.3144,5.2986,5.2323,5.1975,5.1786,5.1269,5.0994,5.0858,5.0364,5.0093,4.9923,4.9734,4.9531,4.9075,4.8768,4.8512,4.801,4.7183,4.6701,4.6294,4.5633,4.5304,4.5304,4.5214,4.5125,4.5155,4.5185,4.5244,4.5125,4.5244,4.5294,4.5293,4.5333,4.5441,4.558,4.5593,4.5621,4.5714,4.5824,4.5613,4.545,4.5429,4.5367,4.5236,4.5207,4.5161,4.5207,4.5074,4.4901,4.4797,4.4728,4.4623,4.4443,4.4385,4.4172,4.361,4.2992,4.2638,4.2469,4.2036,4.1727,4.1643,4.1362,4.1109,4.1317,4.1571,4.161,4.1722,4.1813,4.1803,4.192,4.1986,4.1095,4.0244,3.9378,3.8639,3.8511,3.7982,3.7257,3.6879,3.6785,3.6958,3.6897,3.6808,3.6644,3.6569,3.6468,3.6607,3.6909,3.7248,3.7751,5.9694,5.9694,5.9694,5.9694,5.9694,5.9694,5.9533,5.9371,5.9338,5.9241,5.9069,5.9026,5.8777,5.8378,5.827,5.7903,5.7276,5.6964,5.6299,5.5296,5.4917,5.4697,5.438,5.3978,5.3534,5.3144,5.286,5.2491,5.207,5.1796,5.1701,5.1669,5.1643,5.1262,5.0648,5.0202,4.9626,4.8841,4.8228,4.7752,4.7516,4.7325,4.7119,4.7001,4.677,4.6681,4.6651,4.5823,4.5304,4.5334,4.5274,4.5274,4.5364,4.5743,4.5919,4.586,4.6185,4.6334,4.6281,4.6285,4.6289,4.6318,4.6202,4.609,4.5978,4.589,4.5777,4.5698,4.5669,4.5784,4.6154,4.6224,4.5815,4.4884,4.4646,4.461,4.4532,4.4469,4.4329,4.4104,4.361,4.3273,4.3115,4.2654,4.23,4.2272,4.2075,4.1935,4.1963,4.1699,4.1604,4.1632,4.1615,4.1699,4.1879,4.1907,4.1343,4.0618,3.9748,3.9036,3.8758,3.8012,3.7338,3.6854,3.6785,3.6705,3.6669,3.6632,3.6569,3.6619,3.6795,3.7009,3.7223,3.7739,3.8442,5.9694,5.9694,5.9694,5.9694,5.9694,5.9694,5.9694,5.9694,5.9694,5.9694,5.9694,5.9694,5.9446,5.9079,5.9015,5.8594,5.8032,5.7978,5.7278,5.6066,5.5344,5.4984,5.456,5.4242,5.3913,5.3566,5.3471,5.325,5.2807,5.2544,5.2418,5.2417,5.232,5.1949,5.1353,5.0702,5.0019,4.9419,4.8591,4.7954,4.7794,4.7624,4.7482,4.7342,4.7298,4.7298,4.7219,4.6471,4.6022,4.6052,4.6052,4.6022,4.6082,4.6461,4.6636,4.6588,4.6772,4.6964,4.6745,4.6693,4.676,4.6752,4.6683,4.6665,4.6732,4.6672,4.6614,4.6603,4.6621,4.6766,4.7091,4.7056,4.6598,4.5898,4.5588,4.5312,4.517,4.5087,4.4975,4.4778,4.4425,4.4116,4.3778,4.3301,4.2975,4.2919,4.2722,4.2621,4.2525,4.2216,4.2121,4.2064,4.2036,4.2047,4.1907,4.1766,4.1541,4.0994,4.0393,3.9903,3.9563,3.8251,3.7292,3.6781,3.6542,3.6542,3.6519,3.6758,3.6808,3.6984,3.7336,3.7902,3.8404,3.8969,3.9622,5.9694,5.9694,5.9694,5.9694,5.9694,5.9694,5.9694,5.9694,5.9694,5.9694,5.9694,5.9694,5.9662,5.9662,5.9565,5.9241,5.8756,5.8659,5.827,5.7419,5.6552,5.5709,5.4921,5.4518,5.4251,5.405,5.404,5.404,5.3818,5.3365,5.3144,5.3092,5.2628,5.2122,5.1997,5.1396,5.1052,5.071,4.98,4.9027,4.856,4.8183,4.783,4.7451,4.7429,4.7459,4.7429,4.7298,4.7249,4.7279,4.713,4.7089,4.7249,4.7298,4.7238,4.7277,4.7358,4.7328,4.7134,4.7269,4.7303,4.744,4.7437,4.7443,4.7689,4.766,4.7579,4.7573,4.759,4.7718,4.7758,4.7658,4.7481,4.7467,4.6945,4.6553,4.6345,4.6231,4.5818,4.5356,4.5244,4.5047,4.4385,4.3835,4.361,4.3469,4.3172,4.3003,4.2891,4.2919,4.3003,4.2919,4.2767,4.2795,4.2823,4.2851,4.2683,4.243,4.1641,4.0946,3.9902,3.8402,3.7484,3.6929,3.672,3.6619,3.6845,3.7336,3.76,3.7826,3.8379,3.9057,3.9572,4.0023,4.0526,5.9694,5.9694,5.9694,5.9694,5.9694,5.9694,5.9694,5.9694,5.9694,5.9694,5.9694,5.9694,5.9694,5.9694,5.9694,5.9565,5.9403,5.9371,5.9004,5.8357,5.7915,5.6723,5.557,5.5186,5.4781,5.4272,5.423,5.4103,5.4103,5.3882,5.3776,5.3829,5.3682,5.3355,5.2849,5.2398,5.1916,5.1257,5.0353,4.9527,4.8938,4.8477,4.8181,4.8071,4.8038,4.8038,4.8038,4.8038,4.7758,4.7339,4.7298,4.7298,4.7399,4.7388,4.7608,4.7978,4.8057,4.8256,4.8529,4.8596,4.866,4.8708,4.8488,4.8388,4.8282,4.8196,4.8004,4.7864,4.7805,4.8026,4.8339,4.8395,4.849,4.859,4.7737,4.6897,4.6688,4.6385,4.6026,4.544,4.5368,4.5083,4.461,4.4296,4.4116,4.4088,4.3935,4.3778,4.3638,4.3554,4.361,4.3778,4.3739,4.3807,4.3863,4.3907,4.3907,4.3907,4.3192,4.2136,4.0433,3.8309,3.7758,3.7361,3.765,3.765,3.819,3.873,3.8806,3.873,3.9509,4.0212,4.035,4.0688,4.1229,6.0247,6.017,6.017,5.9997,5.9727,5.9694,5.9694,5.9694,5.9694,5.9694,5.9694,5.9694,5.9694,5.9694,5.9694,5.9694,5.9694,5.9694,5.9468,5.9133,5.8927,5.7816,5.6486,5.6059,5.5802,5.5291,5.4866,5.4739,5.4611,5.4315,5.4114,5.4082,5.421,5.4009,5.3545,5.3039,5.265,5.202,5.1122,5.028,4.9684,4.9249,4.8908,4.8775,4.8708,4.8708,4.8708,4.8738,4.8397,4.7948,4.7978,4.8139,4.8128,4.8117,4.8338,4.8708,4.8727,4.8929,4.9187,4.9288,4.9381,4.9477,4.9388,4.9294,4.9187,4.9057,4.8892,4.8695,4.8589,4.8769,4.9001,4.9105,4.9248,4.9246,4.8472,4.7763,4.7612,4.7563,4.7052,4.6482,4.607,4.5656,4.4922,4.4675,4.4535,4.442,4.4329,4.4301,4.4273,4.4245,4.4385,4.4706,4.4987,4.5127,4.5228,4.5312,4.52,4.5172,4.4288,4.3282,4.1546,3.9236,3.8852,3.8766,3.8743,3.8818,3.9208,3.9534,3.9597,3.9823,4.0639,4.1091,4.1204,4.1279,4.1845,6.1072,6.0915,6.0915,6.0526,5.9986,5.9867,5.99,5.9824,5.9727,5.9694,5.9694,5.9694,5.9694,5.9694,5.9694,5.9694,5.9694,5.9694,5.9694,5.9597,5.9489,5.87,5.7504,5.7086,5.6882,5.6572,5.5962,5.5579,5.5238,5.4611,5.4198,5.4156,5.4114,5.4114,5.3913,5.3481,5.3239,5.2997,5.2185,5.1395,5.0811,5.0323,4.9871,4.9591,4.9408,4.9396,4.9385,4.9355,4.9116,4.8536,4.9007,4.9138,4.9198,4.9258,4.9337,4.9355,4.9385,4.9456,4.9546,4.9696,4.9706,5.0011,5.0084,5.0023,5.0021,4.9978,4.9857,4.9485,4.9693,4.9565,4.9606,4.9664,4.9652,4.9608,4.9366,4.9215,4.9046,4.8946,4.8565,4.7754,4.7258,4.6504,4.5718,4.5127,4.4876,4.4955,4.4924,4.5138,4.5147,4.5143,4.5521,4.6055,4.6307,4.6532,4.6645,4.6745,4.6576,4.6387,4.5219,4.4146,4.3096,4.1438,4.0718,4.0313,3.9827,3.9597,3.9635,3.9911,4.0275,4.0551,4.1117,4.1632,4.2009,4.2009,4.2336,6.164,6.1583,6.1595,6.1498,6.126,6.0818,6.0558,6.0494,5.9932,5.9694,5.9694,5.9694,5.9694,5.9694,5.9694,5.9694,5.9694,5.9694,5.9694,5.9694,5.9694,5.9564,5.8862,5.8333,5.7612,5.7129,5.6775,5.6229,5.5653,5.5397,5.4813,5.423,5.4241,5.4103,5.4071,5.3945,5.3882,5.3775,5.3232,5.2577,5.1933,5.1249,5.0783,5.0547,5.0226,5.0021,5.0009,5.0009,4.992,4.974,4.9523,4.9456,4.9426,4.9396,4.9595,4.9931,5.0039,5.023,5.0649,5.069,5.0817,5.0807,5.079,5.0774,5.0442,5.0417,5.0171,4.9844,4.9722,4.9722,4.9722,4.9722,4.9722,4.9698,4.9649,4.9588,4.9461,4.9141,4.8673,4.8068,4.7424,4.6731,4.6087,4.5865,4.567,4.5527,4.5659,4.599,4.5978,4.5858,4.6335,4.6785,4.7066,4.7166,4.7363,4.7275,4.6876,4.6469,4.5468,4.4457,4.3409,4.2371,4.1194,4.0727,4.0605,4.0475,4.035,4.0929,4.1406,4.1518,4.143,4.1719,4.2009,4.2286,4.2562,6.2613,6.2511,6.2511,6.2216,6.1747,6.1189,6.0897,6.0678,6.0029,5.9694,5.9694,5.9694,5.9694,5.9694,5.9694,5.9694,5.9694,5.9694,5.9694,5.9694,5.9694,5.9694,5.9662,5.9251,5.8646,5.8139,5.773,5.7225,5.6829,5.6304,5.5675,5.4824,5.4749,5.4495,5.4145,5.4145,5.4071,5.4039,5.3845,5.3441,5.2824,5.2412,5.1778,5.1436,5.0956,5.0667,5.0656,5.0697,5.0656,5.0578,5.035,5.0182,5.0193,5.0182,5.0361,5.0589,5.0656,5.0787,5.1116,5.1217,5.1187,5.1217,5.1217,5.0923,5.0656,5.0513,5.0231,4.9868,4.9722,4.9722,4.9722,4.9722,4.9722,4.9722,4.9722,4.9722,4.9644,4.9436,4.9116,4.8648,4.8184,4.7573,4.706,4.6607,4.5971,4.563,4.5511,4.5797,4.597,4.5986,4.6632,4.711,4.7447,4.7687,4.7912,4.7638,4.6909,4.6173,4.5143,4.4123,4.3095,4.2073,4.1032,4.109,4.1329,4.119,4.1229,4.187,4.1808,4.1317,4.1128,4.1505,4.187,4.2185,4.2526,6.3573,6.3511,6.3465,6.2969,6.2172,6.1669,6.1353,6.1067,6.0224,5.9953,5.9835,5.9803,5.9694,5.9694,5.9694,5.9694,5.9694,5.9694,5.9694,5.9694,5.9694,5.9694,5.9662,5.9608,5.9532,5.9619,5.8905,5.8419,5.7956,5.7483,5.6614,5.5877,5.5706,5.543,5.4749,5.4357,5.4442,5.4463,5.4187,5.3889,5.3501,5.3273,5.2743,5.1907,5.1516,5.1203,5.1133,5.1128,5.1158,5.1217,5.1217,5.1217,5.1217,5.1217,5.1217,5.1187,5.1116,5.1146,5.1158,5.1217,5.1217,5.1217,5.1159,5.0947,5.0632,5.0446,5.0264,5.0138,5.0042,5.0174,5.0,4.9983,4.9942,4.9867,4.9809,4.9722,4.9722,4.9722,4.9505,4.9296,4.8735,4.8096,4.7625,4.715,4.6411,4.5797,4.5729,4.5729,4.601,4.6351,4.7054,4.7419,4.7743,4.7856,4.8052,4.7774,4.7063,4.6495,4.5294,4.4388,4.3456,4.3,4.2453,4.2029,4.2071,4.1692,4.1341,4.1368,4.1167,4.0713,4.0889,4.1391,4.1756,4.2098,4.24,6.3926,6.447,6.4239,6.4026,6.374,6.2975,6.2506,6.233,6.1109,6.0623,6.0537,5.9965,5.9694,5.9694,5.9694,5.9694,5.9694,5.9694,5.9694,5.9694,5.9694,5.9694,5.9694,5.9694,5.9694,5.9705,5.9413,5.9034,5.8506,5.8085,5.7558,5.6871,5.6657,5.6465,5.6112,5.5717,5.528,5.5174,5.4663,5.4205,5.4086,5.3524,5.2961,5.2067,5.1771,5.1539,5.1282,5.1236,5.1217,5.1217,5.1217,5.1236,5.1272,5.1272,5.126,5.1206,5.1242,5.1278,5.129,5.126,5.1224,5.117,5.1137,5.0882,5.0583,5.0397,5.0489,5.0647,5.0917,5.1224,5.124,5.0772,5.0552,5.0419,5.01,4.9809,4.978,4.971,4.9698,4.9554,4.9062,4.8625,4.822,4.7818,4.7323,4.6939,4.6922,4.6901,4.704,4.73,4.7715,4.7912,4.8009,4.8052,4.8108,4.7687,4.7216,4.7048,4.6222,4.5449,4.4745,4.4533,4.4097,4.2834,4.1895,4.1266,4.1028,4.1091,4.0953,4.0814,4.1051,4.1352,4.1706,4.206,4.2249,6.4239,6.4873,6.4622,6.4437,6.4191,6.3457,6.3017,6.2686,6.1444,6.0796,6.0591,6.0062,5.9694,5.9694,5.9694,5.9694,5.9694,5.9694,5.9694,5.9694,5.9694,5.9694,5.9684,5.9684,5.9694,5.9694,5.9662,5.9489,5.9078,5.9034,5.8495,5.7838,5.7612,5.7397,5.6957,5.6443,5.624,5.6036,5.5412,5.4906,5.4797,5.3892,5.2872,5.2489,5.1906,5.1561,5.1542,5.126,5.1314,5.1447,5.1512,5.1512,5.1578,5.1637,5.1631,5.1351,5.1405,5.1512,5.1566,5.1672,5.1843,5.1819,5.1633,5.1505,5.1327,5.1218,5.1103,5.1208,5.1311,5.1617,5.153,5.1323,5.1207,5.1062,5.061,5.0274,5.0129,4.9896,4.9867,4.9838,4.954,4.9228,4.8864,4.8509,4.8182,4.8056,4.8038,4.799,4.7969,4.8051,4.8144,4.8108,4.808,4.7968,4.8024,4.78,4.7344,4.7158,4.6748,4.5989,4.4995,4.4269,4.3473,4.2433,4.1621,4.1279,4.1418,4.1708,4.1317,4.0989,4.1227,4.1478,4.1756,4.2009,4.2274,6.4375,6.5144,6.4873,6.4656,6.4385,6.3827,6.3496,6.3031,6.1935,6.1296,6.0961,6.0322,5.9867,5.9727,5.9694,5.9694,5.9694,5.9694,5.9694,5.9694,5.9694,5.9684,5.9628,5.9628,5.9584,5.9474,5.9496,5.9617,5.9575,5.9575,5.9208,5.8797,5.8581,5.8279,5.7687,5.7168,5.7105,5.667,5.5978,5.5584,5.5144,5.4118,5.3172,5.309,5.2188,5.1929,5.1994,5.181,5.1732,5.1855,5.1931,5.1901,5.1995,5.225,5.21,5.1649,5.1761,5.1866,5.2001,5.2139,5.2272,5.2243,5.2296,5.2188,5.2092,5.1909,5.2003,5.1868,5.2007,5.2111,5.2169,5.1891,5.1833,5.1688,5.1307,5.0855,5.0755,5.0569,5.0394,5.0291,5.0058,4.9733,4.9338,4.8997,4.8657,4.8428,4.8405,4.824,4.8192,4.8192,4.8232,4.8147,4.8052,4.7884,4.7884,4.8037,4.7558,4.7161,4.6624,4.5891,4.4613,4.3379,4.2783,4.2551,4.2389,4.216,4.2274,4.2098,4.1644,4.1391,4.1466,4.1717,4.2197,4.2411,4.2562,6.4167,6.5347,6.5133,6.5031,6.4952,6.4594,6.4514,6.427,6.3313,6.2638,6.1833,6.1059,6.0267,5.9792,5.9694,5.9694,5.9694,5.9694,5.9694,5.9694,5.9694,5.9617,5.9419,5.9353,5.9353,5.9318,5.9218,5.934,5.9551,5.9639,5.9618,5.9401,5.9293,5.937,5.8849,5.7925,5.7198,5.6925,5.568,5.49,5.483,5.4516,5.4096,5.3763,5.3469,5.3116,5.269,5.2517,5.2454,5.2339,5.2353,5.2353,5.2341,5.2358,5.2375,5.2289,5.2307,5.2353,5.2358,5.246,5.2528,5.2507,5.2344,5.2097,5.2217,5.2428,5.2546,5.2523,5.2862,5.3081,5.2936,5.273,5.2555,5.2265,5.1904,5.1614,5.1427,5.1108,5.0933,5.0991,5.0859,5.0258,4.9725,4.9408,4.912,4.8919,4.8717,4.8551,4.8389,4.8352,4.827,4.8159,4.8108,4.7968,4.7912,4.7996,4.7785,4.7288,4.6578,4.5869,4.4811,4.3756,4.3377,4.3146,4.2966,4.2612,4.2272,4.1996,4.1781,4.1856,4.2032,4.2359,4.2799,4.2875,4.2838,6.3879,6.4796,6.4992,6.5088,6.5054,6.4816,6.4622,6.432,6.363,6.2787,6.1959,6.1176,6.0397,5.9803,5.9694,5.9694,5.9694,5.9694,5.9694,5.9694,5.9684,5.965,5.9584,5.9508,5.9441,5.9353,5.9385,5.9418,5.9507,5.9342,5.9318,5.9329,5.934,5.9298,5.9463,5.8764,5.8601,5.8182,5.7164,5.6032,5.5476,5.4843,5.4292,5.4085,5.3754,5.3505,5.3359,5.2931,5.2914,5.2855,5.2851,5.2725,5.275,5.2866,5.301,5.3023,5.3023,5.2941,5.2792,5.2908,5.2957,5.2994,5.2904,5.2914,5.2888,5.2953,5.3107,5.3123,5.3326,5.3487,5.3487,5.3268,5.3181,5.292,5.2484,5.231,5.2078,5.1688,5.1472,5.1559,5.1588,5.1069,5.0559,5.0328,4.996,4.9544,4.9267,4.8974,4.8663,4.8368,4.8245,4.8121,4.8108,4.808,4.8052,4.8068,4.7941,4.745,4.6771,4.6044,4.5275,4.4521,4.3862,4.3376,4.3022,4.2624,4.2233,4.2258,4.2372,4.2498,4.2637,4.2813,4.2975,4.2975,4.2939,6.389,6.4377,6.496,6.5167,6.5167,6.4953,6.4662,6.425,6.3667,6.2803,6.1789,6.0985,6.0247,5.9814,5.9694,5.9694,5.9694,5.9694,5.9694,5.9694,5.9684,5.965,5.9541,5.9552,5.9551,5.9551,5.9396,5.9374,5.9208,5.9096,5.9029,5.8984,5.9083,5.9085,5.913,5.8852,5.8651,5.8334,5.7496,5.6714,5.6067,5.5211,5.4739,5.4386,5.4059,5.3781,5.3927,5.3657,5.3536,5.3491,5.3485,5.3354,5.3361,5.3548,5.3662,5.3636,5.3597,5.3455,5.3318,5.3357,5.3469,5.3487,5.3487,5.3352,5.3397,5.3487,5.3487,5.3442,5.3458,5.3487,5.3487,5.3458,5.3442,5.3297,5.3052,5.2933,5.2772,5.2426,5.2297,5.243,5.2414,5.2123,5.1708,5.1398,5.095,5.032,4.9841,4.945,4.9108,4.8817,4.8765,4.8737,4.8502,4.8502,4.8405,4.831,4.8098,4.7707,4.7007,4.6193,4.5407,4.4584,4.3764,4.3362,4.3118,4.2875,4.261,4.2824,4.3,4.2914,4.2838,4.2914,4.3,4.3,4.3011,6.4354,6.4443,6.5094,6.537,6.537,6.537,6.4983,6.4409,6.3821,6.2901,6.1699,6.0674,6.0043,5.976,5.9705,5.9694,5.9694,5.9694,5.9694,5.9694,5.9684,5.9595,5.9497,5.9419,5.9319,5.9207,5.9262,5.9218,5.9072,5.9085,5.9006,5.8972,5.8916,5.8993,5.8914,5.8621,5.813,5.7781,5.7144,5.67,5.6213,5.5716,5.5413,5.5147,5.5017,5.4976,5.4752,5.4506,5.4328,5.4178,5.4046,5.4007,5.3956,5.4048,5.4097,5.4058,5.389,5.3779,5.3711,5.3541,5.3498,5.3487,5.3487,5.3487,5.3487,5.3487,5.3487,5.3487,5.3487,5.3487,5.3487,5.3487,5.3487,5.3429,5.3313,5.3297,5.321,5.3239,5.3139,5.3313,5.3168,5.2791,5.2646,5.2294,5.1643,5.1024,5.0666,5.0255,5.0016,4.9748,4.9734,4.9617,4.9202,4.9035,4.8923,4.8774,4.8598,4.8113,4.7472,4.6503,4.554,4.4673,4.4103,4.3647,4.3438,4.3226,4.3101,4.3352,4.3427,4.3126,4.3,4.3,4.3,4.3,4.3023,6.4641,6.505,6.5282,6.5414,6.5414,6.5414,6.516,6.4761,6.4121,6.2968,6.1556,6.0598,6.0044,5.9924,5.9749,5.9694,5.9694,5.9694,5.9694,5.9694,5.9673,5.9639,5.953,5.9508,5.9486,5.9429,5.9407,5.9297,5.9208,5.9186,5.895,5.8848,5.8803,5.8746,5.861,5.8576,5.83,5.7898,5.7334,5.6796,5.6567,5.58,5.5363,5.5229,5.5222,5.5141,5.5027,5.4849,5.4735,5.4607,5.4406,5.4368,5.4355,5.4342,5.4355,5.4304,5.4084,5.3942,5.388,5.3671,5.35,5.3487,5.3487,5.3487,5.3487,5.3487,5.3487,5.3487,5.3487,5.3487,5.3487,5.3487,5.3487,5.3487,5.3487,5.3487,5.3487,5.3487,5.3487,5.3429,5.3429,5.3284,5.321,5.3123,5.2414,5.1721,5.1404,5.1107,5.0875,5.0672,5.0639,5.0437,5.0033,4.9745,4.9619,4.9385,4.9098,4.8533,4.7938,4.6988,4.6042,4.5462,4.4871,4.4319,4.3876,4.3851,4.389,4.3966,4.3815,4.3438,4.3176,4.3,4.3,4.3087,4.3178,6.4962,6.5381,6.5414,6.5414,6.5414,6.5414,6.5193,6.4783,6.4001,6.2717,6.1142,6.051,6.0206,6.0077,5.9924,5.9749,5.9727,5.9694,5.9694,5.9694,5.9694,5.9694,5.9694,5.9684,5.965,5.9694,5.9684,5.9552,5.943,5.9419,5.9163,5.8893,5.8712,5.869,5.8553,5.8699,5.8701,5.8312,5.7805,5.6952,5.6651,5.5961,5.5318,5.5255,5.5222,5.5192,5.5128,5.5015,5.4968,5.4849,5.473,5.4586,5.456,5.4577,5.4577,5.4432,5.4239,5.4049,5.3958,5.371,5.3514,5.3487,5.3487,5.3487,5.3487,5.3487,5.3487,5.3487,5.3487,5.3487,5.3487,5.3487,5.3487,5.3487,5.3487,5.3487,5.3487,5.3487,5.3487,5.3487,5.3487,5.3487,5.3442,5.3342,5.299,5.2429,5.2289,5.201,5.1748,5.1551,5.1428,5.1169,5.0824,5.0577,5.0372,4.9851,4.9348,4.8936,4.8337,4.7594,4.6795,4.6177,4.5408,4.4608,4.4353,4.4539,4.4514,4.4378,4.4052,4.3689,4.3564,4.3553,4.3633,4.3754,4.3622,6.5381,6.5414,6.5414,6.5414,6.5414,6.5414,6.5072,6.4498,6.3507,6.2113,6.0758,6.0569,6.0452,6.0217,6.012,5.9968,5.9793,5.9749,5.9716,5.9705,5.9694,5.9694,5.9694,5.9694,5.9694,5.9694,5.9694,5.9673,5.965,5.9628,5.9374,5.9038,5.8803,5.8655,5.8355,5.8321,5.8046,5.7637,5.7554,5.688,5.6323,5.5893,5.5488,5.5292,5.5222,5.5222,5.5166,5.5154,5.512,5.5065,5.5065,5.5027,5.504,5.5053,5.5065,5.5053,5.459,5.4316,5.4239,5.3775,5.354,5.3487,5.3487,5.3487,5.3487,5.3487,5.3487,5.3487,5.3487,5.3487,5.3487,5.3487,5.3487,5.3487,5.3487,5.3487,5.3487,5.3487,5.3487,5.3487,5.3487,5.3487,5.3487,5.3461,5.3329,5.3108,5.3076,5.2872,5.2525,5.2333,5.2179,5.2001,5.1642,5.1371,5.1029,5.0208,4.9622,4.9261,4.8831,4.8227,4.7489,4.678,4.593,4.4976,4.4865,4.5141,4.4916,4.464,4.4604,4.4604,4.4378,4.4338,4.4392,4.4334,4.4143,6.5414,6.5414,6.5414,6.5414,6.5414,6.5414,6.5249,6.4884,6.3682,6.2284,6.1043,6.077,6.0665,6.0484,6.0346,6.0185,6.0001,5.9968,5.9924,5.9716,5.9694,5.9694,5.9694,5.9694,5.9694,5.9694,5.9694,5.9694,5.9684,5.9694,5.9429,5.9083,5.8733,5.847,5.8344,5.8297,5.8182,5.7938,5.7424,5.6748,5.6384,5.5837,5.5406,5.5204,5.5222,5.5222,5.5222,5.5222,5.5222,5.5222,5.5222,5.5222,5.5222,5.5222,5.5222,5.5141,5.4798,5.4423,5.4126,5.3697,5.3514,5.3487,5.3487,5.3487,5.3487,5.3487,5.3487,5.3487,5.3487,5.3487,5.3487,5.3487,5.3487,5.3487,5.3487,5.3487,5.3487,5.3487,5.3487,5.3487,5.3487,5.3487,5.3487,5.3487,5.3411,5.3385,5.3306,5.3319,5.3082,5.291,5.2788,5.2695,5.2476,5.2194,5.1714,5.0903,5.0469,5.0241,4.9762,4.9144,4.8368,4.7491,4.6866,4.6141,4.5914,4.5693,4.5518,4.5417,4.5643,4.5658,4.5257,4.4905,4.4786,4.4703,4.4555,6.5414,6.5414,6.5414,6.5414,6.5414,6.5414,6.5149,6.4597,6.3647,6.2455,6.1276,6.0919,6.077,6.0686,6.0559,6.0388,6.0217,6.012,6.0066,5.9826,5.9727,5.9705,5.9694,5.9694,5.9694,5.9694,5.9694,5.9694,5.9694,5.9694,5.944,5.9016,5.8562,5.8378,5.8297,5.8297,5.817,5.7848,5.7298,5.682,5.6348,5.5849,5.5418,5.5255,5.5222,5.5222,5.5222,5.5222,5.5222,5.5222,5.5222,5.5222,5.5222,5.5222,5.5222,5.5146,5.4811,5.4385,5.3984,5.3671,5.3514,5.3487,5.3487,5.3487,5.3487,5.3487,5.3487,5.3487,5.3487,5.3487,5.3487,5.3487,5.3487,5.3487,5.3487,5.3487,5.3487,5.3487,5.3487,5.3487,5.3487,5.3487,5.3487,5.3487,5.3461,5.3474,5.3474,5.3487,5.3487,5.3345,5.3186,5.312,5.2987,5.2661,5.2244,5.1659,5.1304,5.1224,5.053,4.9714,4.9162,4.8296,4.7811,4.7294,4.6771,4.6378,4.6235,4.6235,4.6135,4.601,4.5759,4.5457,4.5231,4.5133,4.5055,6.5414,6.5414,6.5414,6.5414,6.5414,6.5414,6.463,6.3393,6.3327,6.2465,6.1109,6.1098,6.0961,6.0749,6.0717,6.0591,6.0421,6.0239,6.012,6.0001,5.9804,5.9738,5.9694,5.9694,5.9694,5.9694,5.9694,5.9694,5.9684,5.9562,5.9329,5.9004,5.8539,5.8355,5.8297,5.8263,5.8112,5.7825,5.7507,5.694,5.6348,5.5955,5.5563,5.5355,5.5222,5.5222,5.5222,5.5222,5.5222,5.5222,5.5222,5.5222,5.5222,5.5222,5.5222,5.5053,5.4654,5.4239,5.3968,5.3723,5.3527,5.3487,5.3487,5.3487,5.3487,5.3487,5.3487,5.3487,5.3487,5.3487,5.3487,5.3487,5.3487,5.3487,5.3487,5.3487,5.3487,5.3487,5.3487,5.3487,5.3487,5.3487,5.3487,5.3487,5.3487,5.3487,5.3487,5.3487,5.3487,5.3487,5.3398,5.3372,5.3226,5.3014,5.2586,5.2072,5.1582,5.1293,5.0642,4.9925,4.9444,4.8942,4.8233,4.7633,4.7279,4.6934,4.6466,4.6311,4.6286,4.6135,4.601,4.5959,4.5733,4.571,4.5665,6.5414,6.5414,6.5414,6.5414,6.5414,6.5414,6.4597,6.3393,6.3261,6.2488,6.1109,6.1109,6.1023,6.0981,6.0981,6.0835,6.0612,6.0432,6.0239,6.0055,5.9837,5.9738,5.9694,5.9694,5.9694,5.9694,5.9694,5.9684,5.9606,5.9452,5.9229,5.8916,5.8539,5.8355,5.8297,5.8286,5.8104,5.793,5.7649,5.7072,5.6482,5.609,5.5688,5.5343,5.5192,5.5222,5.5222,5.5222,5.5222,5.5222,5.5222,5.5222,5.5222,5.5222,5.5192,5.5128,5.4692,5.4252,5.4123,5.3762,5.35,5.35,5.3487,5.3487,5.3487,5.3487,5.3487,5.3487,5.3487,5.3487,5.3487,5.3487,5.3487,5.3487,5.3487,5.3487,5.3487,5.3487,5.3487,5.3487,5.3487,5.3487,5.3487,5.3487,5.3487,5.3487,5.3487,5.3487,5.3487,5.3487,5.3487,5.349,5.3424,5.32,5.2894,5.241,5.1841,5.1293,5.0711,5.0151,4.9643,4.91,4.8478,4.7836,4.7216,4.6755,4.6376,4.6311,4.6311,4.6311,4.621,4.6261,4.6256,4.615,4.609,6.5414,6.5414,6.5414,6.5414,6.5414,6.5414,6.4741,6.3791,6.3426,6.2598,6.155,6.1218,6.1109,6.1098,6.1098,6.0992,6.0866,6.0538,6.0335,6.0206,5.987,5.9738,5.9694,5.9694,5.9694,5.9694,5.9694,5.9694,5.9573,5.9274,5.8984,5.8971,5.8539,5.8355,5.824,5.8101,5.7941,5.7825,5.7613,5.718,5.6688,5.6164,5.57,5.5305,5.5204,5.5222,5.5222,5.5222,5.5222,5.5222,5.5222,5.5222,5.5222,5.5222,5.5222,5.5116,5.4824,5.4475,5.4252,5.3903,5.3658,5.3514,5.3487,5.3487,5.3487,5.3487,5.3487,5.3487,5.3487,5.3487,5.3487,5.3487,5.3487,5.3487,5.3487,5.3487,5.3487,5.3487,5.3487,5.3487,5.3487,5.3487,5.3487,5.3487,5.3487,5.3487,5.3487,5.3487,5.3487,5.3487,5.3487,5.3487,5.3477,5.3372,5.3054,5.2692,5.2154,5.1582,5.1017,5.0474,4.9898,4.9215,4.855,4.7747,4.6934,4.6586,4.6311,4.6311,4.6311,4.6311,4.6311,4.6311,4.6311,4.6256,4.6225,6.5348,6.5414,6.5414,6.5414,6.5414,6.5315,6.4895,6.4321,6.3493,6.283,6.2101,6.1494,6.1208,6.1142,6.1109,6.1109,6.0919,6.0666,6.042,6.0378,6.0001,5.9782,5.9705,5.9694,5.9694,5.9694,5.9694,5.9684,5.9562,5.9253,5.8972,5.8971,5.8539,5.8309,5.8251,5.7825,5.766,5.7602,5.7287,5.6892,5.6554,5.6115,5.5713,5.5292,5.5222,5.5222,5.5222,5.5222,5.5222,5.5222,5.5222,5.5222,5.5222,5.5222,5.5222,5.5133,5.4875,5.459,5.4333,5.3993,5.3762,5.3592,5.3487,5.3487,5.3487,5.3487,5.3487,5.3487,5.3487,5.3487,5.3487,5.3487,5.3487,5.3487,5.3487,5.3487,5.3487,5.3487,5.3487,5.3487,5.3487,5.3516,5.3545,5.3574,5.3907,5.372,5.3836,5.3894,5.372,5.372,5.3574,5.3574,5.3503,5.3437,5.3239,5.2865,5.2437,5.1909,5.1335,5.0711,5.0123,4.9358,4.8567,4.7692,4.683,4.6541,4.6311,4.6311,4.6311,4.6311,4.6311,4.6311,4.6311,4.6311,4.6311,6.4962,6.5414,6.5414,6.5414,6.5315,6.4785,6.4531,6.4288,6.2996,6.241,6.2178,6.1968,6.1583,6.1142,6.1109,6.1109,6.1025,6.0782,6.0559,6.0378,6.0109,5.987,5.9727,5.9716,5.9694,5.9694,5.9694,5.9684,5.9595,5.9285,5.8961,5.8948,5.855,5.8309,5.8251,5.7754,5.7393,5.7334,5.6688,5.636,5.609,5.5967,5.567,5.5368,5.5222,5.5222,5.5222,5.5222,5.5222,5.5222,5.5222,5.5222,5.5222,5.5222,5.5222,5.5171,5.4981,5.4683,5.4372,5.4071,5.3841,5.3605,5.3487,5.3487,5.3487,5.3487,5.3487,5.3487,5.3487,5.3487,5.3487,5.3487,5.3487,5.3487,5.3487,5.3487,5.3487,5.3487,5.3487,5.3487,5.3487,5.3545,5.3603,5.3807,5.4168,5.4487,5.4822,5.488,5.4474,5.4271,5.3836,5.3749,5.3574,5.3466,5.3306,5.312,5.2705,5.2221,5.1664,5.1003,5.0333,4.9356,4.8393,4.753,4.68,4.6586,4.6406,4.6311,4.6311,4.6311,4.6311,4.6311,4.6311,4.6311,4.6311,6.431,6.4962,6.5282,6.5414,6.5282,6.4664,6.4376,6.4188,6.3161,6.2476,6.2144,6.1869,6.1483,6.1109,6.1109,6.1142,6.11,6.0835,6.0665,6.0484,6.0369,6.0055,5.9903,5.9869,5.9705,5.9694,5.9694,5.9673,5.9671,5.9274,5.8993,5.8925,5.8562,5.8286,5.8193,5.7649,5.718,5.706,5.614,5.5738,5.5651,5.5576,5.5501,5.5229,5.5222,5.5222,5.5222,5.5222,5.5222,5.5222,5.5222,5.5222,5.5222,5.5222,5.5222,5.5184,5.5044,5.4786,5.4436,5.4136,5.3906,5.3658,5.3487,5.3487,5.3487,5.3487,5.3487,5.3487,5.3487,5.3487,5.3487,5.3487,5.3487,5.3487,5.3487,5.3487,5.3487,5.3487,5.3487,5.3487,5.3487,5.3516,5.3545,5.3574,5.3865,5.3894,5.4445,5.4648,5.4474,5.4648,5.4242,5.3923,5.3778,5.3603,5.3451,5.3292,5.3054,5.2518,5.2091,5.1238,5.0485,4.9269,4.819,4.7733,4.727,4.6825,4.6646,4.6527,4.6336,4.6311,4.6311,4.6311,4.6336,4.6436,4.6537,6.3592,6.4321,6.4995,6.5249,6.516,6.4542,6.4211,6.4056,6.3327,6.2697,6.2211,6.1593,6.1251,6.1109,6.1374,6.1307,6.1332,6.1524,6.1242,6.1061,6.0804,6.0816,6.0608,6.0303,6.0312,6.0235,6.0212,6.0006,5.9854,5.9497,5.9206,5.8944,5.8619,5.8297,5.7988,5.7472,5.694,5.6736,5.617,5.5518,5.5318,5.5247,5.5247,5.5234,5.5222,5.5222,5.5222,5.5222,5.5222,5.5222,5.5222,5.5222,5.5222,5.5222,5.5222,5.5196,5.5196,5.4875,5.4539,5.4304,5.401,5.3723,5.3595,5.3516,5.3545,5.3545,5.3545,5.3661,5.3661,5.3545,5.3545,5.3545,5.3545,5.372,5.372,5.3778,5.3778,5.372,5.3661,5.3661,5.3603,5.3603,5.3574,5.3574,5.3661,5.3619,5.3648,5.3661,5.3836,5.43,5.4387,5.4155,5.401,5.3807,5.3691,5.3569,5.3441,5.3348,5.289,5.1752,5.0763,5.0079,4.9339,4.8502,4.8017,4.7536,4.7081,4.6884,4.6662,4.6562,4.6763,4.6913,4.6863,4.6963,4.6963,6.283,6.3559,6.4288,6.4608,6.4476,6.3824,6.3526,6.3294,6.219,6.1715,6.2167,6.2111,6.1736,6.1218,6.2455,6.2598,6.2047,6.227,6.2538,6.2486,6.2048,6.1961,6.1685,6.1269,6.1461,6.1338,6.1075,6.0899,6.0488,6.0075,5.9512,5.8938,5.8634,5.8415,5.828,5.779,5.7516,5.7284,5.6739,5.6086,5.5789,5.5609,5.5259,5.5222,5.5222,5.5222,5.5222,5.5222,5.5222,5.5222,5.5222,5.5222,5.5222,5.5222,5.5239,5.5295,5.5278,5.5138,5.4844,5.4654,5.4332,5.4067,5.3939,5.3749,5.3749,5.3749,5.3894,5.4213,5.4126,5.3807,5.3749,5.372,5.3778,5.43,5.4532,5.4706,5.4822,5.4532,5.43,5.4155,5.3952,5.3894,5.3778,5.3952,5.43,5.4387,5.4648,5.459,5.4184,5.4358,5.4532,5.43,5.4126,5.4329,5.43,5.4055,5.3955,5.3943,5.3606,5.249,5.171,5.1409,5.0621,4.9276,4.8789,4.8394,4.7963,4.7089,4.7355,4.7315,4.7531,4.7657,4.7541,4.7465,4.7465]}]]